[[{"header":{"parameterUnit":"m.s-1","parameterCategory":1,"la1":31.0,"la2":29.5877,"lo1":-88.7671,"lo2":-86.6584,"dy":0.0162,"dx":0.0185,"nx":115,"ny":88,"refTime":"2025-08-14T12:00:00:Z","depth":0,"parameterNumber":2,"parameterNumberName":"U-component_of_WINDS"},"data":[0.0,0.0,0.0,0.0,0.0,0.0,0.0,0.0,0.0,0.0,0.0,0.0,0.0,0.0,0.0,0.0,0.0,0.0,0.0,0.0,0.0,0.0,0.0,0.0,0.0,0.0,0.0,0.0,0.0,0.0,0.0,0.0,0.0,0.0,0.0,0.0,0.0,0.0,0.0,0.0,0.0,0.0,0.0,0.0,0.0,0.0,0.0,0.0,0.0,0.0,0.0,0.0,0.0,0.0,0.0,0.0,0.0,0.0,0.0,0.0,0.0,0.0,0.0,0.0,0.0,0.0,0.0,0.0,0.0,0.0,0.0,0.0,0.0,0.0,0.0,0.0,0.0,0.0,0.0,0.0,0.0,0.0,0.0,0.0,0.0,0.0,0.0,0.0,0.0,0.0,0.0,0.0,0.0,0.0,0.0,0.0,0.0,0.0,0.0,0.0,0.0,0.0,0.0,0.0,0.0,0.0,0.0,0.0,0.0,0.0,0.0,0.0,0.0,0.0,0.0,0.0,0.0,0.0,0.0,0.0,0.0,0.0,0.0,0.0,0.0,0.0,0.0,0.0,0.0,0.0,0.0,0.0,0.0,0.0,0.0,0.0,0.0,0.0,0.0,0.0,0.0,0.0,0.0,0.0,0.0,0.0,0.0,0.0,0.0,0.0,0.0,0.0,0.0,0.0,0.0,0.0,0.0,0.0,0.0,0.0,0.0,0.0,0.0,0.0,0.0,0.0,0.0,0.0,0.0,0.0,0.0,0.0,0.0,0.0,0.0,0.0,0.0,0.0,0.0,0.0,0.0,0.0,0.0,0.0,0.0,0.0,0.0,0.0,0.0,0.0,0.0,0.0,0.0,0.0,0.0,0.0,0.0,0.0,0.0,0.0,0.0,0.0,0.0,0.0,0.0,0.0,0.0,0.0,0.0,0.0,0.0,0.0,0.0,0.0,0.0,0.0,0.0,0.0,0.0,0.0,0.0,0.0,0.0,0.0,0.0,0.0,0.0,0.0,0.0,0.0,0.0,0.0,0.0,0.0,0.0,0.0,0.0,0.0,0.0,0.0,0.0,0.0,0.0,0.0,0.0,0.0,0.0,0.0,0.0,0.0,0.0,0.0,0.0,0.0,0.0,0.0,0.0,0.0,0.0,0.0,0.0,0.0,0.0,0.0,0.0,0.0,0.0,0.0,0.0,0.0,0.0,0.0,0.0,0.0,0.0,0.0,0.0,0.0,0.0,0.0,0.0,0.0,0.0,0.0,0.0,0.0,0.0,0.0,0.0,0.0,0.0,0.0,0.0,0.0,0.0,0.0,0.0,0.0,0.0,0.0,0.0,0.0,0.0,0.0,0.0,0.0,0.0,0.0,0.0,0.0,0.0,0.0,0.0,0.0,0.0,0.0,0.0,0.0,0.0,0.0,0.0,0.0,0.0,0.0,0.0,0.0,0.0,0.0,0.0,0.0,0.0,0.0,0.0,0.0,0.0,0.0,0.0,0.0,0.0,0.0,0.0,0.0,0.0,0.0,0.0,0.0,0.0,0.0,0.0,0.0,0.0,0.0,0.0,0.0,0.0,0.0,0.0,0.0,0.0,0.0,0.0,0.0,0.0,0.0,0.0,0.0,0.0,0.0,0.0,0.0,0.0,0.0,0.0,0.0,0.0,0.0,0.0,0.0,0.0,0.0,0.0,0.0,0.0,0.0,0.0,0.0,0.0,0.0,0.0,0.0,0.0,0.0,0.0,0.0,0.0,0.0,0.0,0.0,0.0,0.0,0.0,0.0,0.0,0.0,0.0,0.0,0.0,0.0,0.0,0.0,0.0,0.0,0.0,0.0,0.0,0.0,0.0,0.0,0.0,0.0,0.0,0.0,0.0,0.0,0.0,0.0,0.0,0.0,0.0,0.0,0.0,0.0,0.0,0.0,0.0,0.0,0.0,0.0,0.0,0.0,0.0,0.0,0.0,0.0,0.0,0.0,0.0,0.0,0.0,0.0,0.0,0.0,0.0,0.0,0.0,0.0,0.0,0.0,0.0,0.0,0.0,0.0,0.0,0.0,0.0,0.0,0.0,0.0,0.0,0.0,0.0,0.0,0.0,0.0,0.0,0.0,0.0,0.0,0.0,0.0,0.0,0.0,0.0,0.0,0.0,0.0,0.0,0.0,0.0,0.0,0.0,0.0,0.0,0.0,0.0,0.0,0.0,0.0,0.0,0.0,0.0,0.0,0.0,0.0,0.0,0.0,0.0,0.0,0.0,0.0,0.0,0.0,0.0,0.0,0.0,0.0,0.0,0.0,0.0,0.0,0.0,0.0,0.0,0.0,0.0,0.0,0.0,0.0,0.0,0.0,0.0,0.0,0.0,0.0,0.0,0.0,0.0,0.0,0.0,0.0,0.0,0.0,0.0,0.0,0.0,0.0,0.0,0.0,0.0,0.0,0.0,0.0,0.0,0.0,0.0,0.0,0.0,0.0,0.0,0.0,0.0,0.0,0.0,0.0,0.0,0.0,0.0,0.0,0.0,0.0,0.0,0.0,0.0,0.0,0.0,0.0,0.0,0.0,0.0,0.0,0.0,0.0,0.0,0.0,0.0,0.0,0.0,0.0,0.0,0.0,0.0,0.0,0.0,0.0,0.0,0.0,0.0,0.0,0.0,0.0,0.0,0.0,0.0,0.0,0.0,0.0,0.0,0.0,0.0,0.0,0.0,0.0,0.0,0.0,0.0,0.0,0.0,0.0,0.0,0.0,0.0,0.0,0.0,0.0,0.0,0.0,0.0,0.0,0.0,0.0,0.0,0.0,0.0,0.0,0.0,0.0,0.0,0.0,0.0,0.0,0.0,0.0,0.0,0.0,0.0,0.0,0.0,0.0,0.0,0.0,0.0,0.0,0.0,0.0,0.0,0.0,0.0,0.0,0.0,0.0,0.0,0.0,0.0,0.0,0.0,0.0,0.0,0.0,0.0,0.0,0.0,0.0,0.0,0.0,0.0,0.0,0.0,0.0,0.0,0.0,0.0,0.0,0.0,0.0,0.0,0.0,0.0,0.0,0.0,0.0,0.0,0.0,0.0,0.0,0.0,0.0,0.0,0.0,0.0,0.0,0.0,0.0,0.0,0.0,0.0,0.0,0.0,0.0,0.0,0.0,0.0,0.0,0.0,0.0,0.0,0.0,0.0,0.0,0.0,0.0,0.0,0.0,0.0,0.0,0.0,0.0,0.0,0.0,0.0,0.0,0.0,0.0,0.0,0.0,0.0,0.0,0.0,0.0,0.0,0.0,0.0,0.0,0.0,0.0,0.0,0.0,0.0,0.0,0.0,0.0,0.0,0.0,0.0,0.0,0.0,0.0,0.0,0.0,0.0,0.0,0.0,0.0,0.0,0.0,0.0,0.0,0.0,0.0,0.0,0.0,0.0,0.0,0.0,0.0,0.0,0.0,0.0,0.0,0.0,0.0,0.0,0.0,0.0,0.0,0.0,0.0,0.0,0.0,0.0,0.0,0.0,0.0,0.0,0.0,0.0,0.0,0.0,0.0,0.0,0.0,0.0,0.0,0.0,0.0,0.0,0.0,0.0,0.0,0.0,0.0,0.0,0.0,0.0,0.0,0.0,0.0,0.0,0.0,0.0,0.0,0.0,0.0,0.0,0.0,0.0,0.0,0.0,0.0,0.0,0.0,0.0,0.0,0.0,0.0,0.0,0.0,0.0,0.0,0.0,0.0,0.0,0.0,0.0,0.0,0.0,0.0,0.0,0.0,0.0,0.0,0.0,0.0,0.0,0.0,0.0,0.0,0.0,0.0,0.0,0.0,0.0,0.0,0.0,0.0,0.0,0.0,0.0,0.0,0.0,0.0,0.0,0.0,0.0,0.0,0.0,0.0,0.0,0.0,0.0,0.0,0.0,0.0,0.0,0.0,0.0,0.0,0.0,0.0,0.0,0.0,0.0,0.0,0.0,0.0,0.0,0.0,0.0,0.0,0.0,0.0,0.0,0.0,0.0,0.0,0.0,0.0,0.0,0.0,0.0,0.0,0.0,0.0,0.0,0.0,0.0,0.0,0.0,0.0,0.0,0.0,0.0,0.0,0.0,0.0,0.0,0.0,0.0,0.0,0.0,0.0,0.0,0.0,0.0,0.0,0.0,0.0,0.0,0.0,0.0,0.0,0.0,0.0,0.0,0.0,0.0,0.0,0.0,0.0,0.0,0.0,0.0,0.0,0.0,0.0,0.0,0.0,0.0,0.0,0.0,0.0,0.0,0.0,0.0,0.0,0.0,0.0,-2.3277,0.0,0.0,0.0,0.0,0.0,0.0,0.0,0.0,0.0,0.0,0.0,0.0,0.0,0.0,0.0,0.0,0.0,0.0,0.0,0.0,0.0,0.0,0.0,0.0,0.0,0.0,0.0,0.0,0.0,0.0,0.0,0.0,0.0,0.0,0.0,0.0,0.0,0.0,0.0,0.0,0.0,0.0,0.0,0.0,0.0,0.0,0.0,0.0,0.0,0.0,0.0,0.0,0.0,0.0,0.0,0.0,0.0,0.0,0.0,0.0,0.0,0.0,0.0,0.0,0.0,0.0,0.0,0.0,0.0,0.0,0.0,0.0,0.0,0.0,0.0,0.0,0.0,0.0,0.0,0.0,0.0,0.0,0.0,0.0,0.0,0.0,0.0,0.0,0.0,0.0,0.0,0.0,0.0,0.0,0.0,0.0,0.0,0.0,0.0,0.0,0.0,0.0,0.0,0.0,0.0,0.0,0.0,0.0,0.0,0.0,-2.5891,-2.5349,-2.5654,-2.5208,-2.3898,0.0,0.0,0.0,0.0,0.0,0.0,0.0,0.0,0.0,0.0,0.0,0.0,0.0,0.0,0.0,0.0,0.0,0.0,0.0,0.0,0.0,0.0,0.0,0.0,0.0,0.0,0.0,0.0,0.0,0.0,0.0,0.0,0.0,0.0,0.0,0.0,0.0,0.0,0.0,0.0,0.0,0.0,0.0,0.0,0.0,0.0,0.0,0.0,0.0,0.0,0.0,0.0,0.0,0.0,0.0,0.0,0.0,0.0,0.0,0.0,0.0,0.0,0.0,0.0,0.0,0.0,0.0,0.0,0.0,0.0,0.0,0.0,0.0,0.0,0.0,0.0,0.0,0.0,0.0,0.0,0.0,0.0,0.0,0.0,0.0,0.0,0.0,0.0,0.0,0.0,0.0,0.0,0.0,0.0,0.0,0.0,0.0,0.0,0.0,0.0,0.0,0.0,0.0,0.0,0.0,0.0,0.0,0.0,0.0,0.0,0.0,0.0,-2.6872,-2.6236,-2.4988,0.0,0.0,0.0,0.0,0.0,0.0,0.0,0.0,0.0,0.0,0.0,0.0,0.0,0.0,0.0,0.0,0.0,0.0,0.0,0.0,0.0,0.0,0.0,0.0,0.0,0.0,0.0,0.0,0.0,0.0,0.0,0.0,0.0,0.0,0.0,0.0,0.0,0.0,0.0,0.0,0.0,0.0,0.0,0.0,0.0,0.0,0.0,0.0,0.0,0.0,0.0,0.0,0.0,0.0,0.0,0.0,0.0,0.0,0.0,0.0,0.0,0.0,0.0,0.0,0.0,0.0,0.0,0.0,0.0,0.0,0.0,0.0,0.0,0.0,0.0,0.0,0.0,0.0,0.0,0.0,0.0,0.0,0.0,0.0,0.0,0.0,0.0,0.0,0.0,0.0,0.0,0.0,0.0,0.0,0.0,0.0,0.0,0.0,0.0,0.0,0.0,0.0,0.0,0.0,0.0,0.0,0.0,0.0,0.0,0.0,-2.8268,-2.9441,-3.0054,0.0,-2.6764,0.0,0.0,0.0,0.0,0.0,0.0,0.0,0.0,0.0,0.0,0.0,0.0,0.0,0.0,0.0,0.0,0.0,0.0,0.0,0.0,0.0,0.0,0.0,0.0,0.0,0.0,0.0,0.0,0.0,0.0,0.0,0.0,0.0,0.0,0.0,0.0,0.0,0.0,0.0,0.0,0.0,0.0,0.0,0.0,0.0,0.0,0.0,0.0,0.0,0.0,0.0,0.0,0.0,0.0,0.0,0.0,0.0,0.0,0.0,0.0,0.0,0.0,0.0,0.0,0.0,0.0,0.0,0.0,0.0,0.0,0.0,0.0,0.0,0.0,0.0,0.0,0.0,0.0,0.0,0.0,0.0,0.0,0.0,0.0,0.0,0.0,0.0,0.0,0.0,0.0,0.0,0.0,0.0,0.0,0.0,0.0,0.0,0.0,0.0,0.0,0.0,0.0,0.0,0.0,0.0,0.0,0.0,0.0,0.0,0.0,-2.9924,-3.045,-2.9837,-2.8638,0.0,0.0,0.0,0.0,0.0,0.0,0.0,0.0,0.0,0.0,0.0,0.0,0.0,0.0,0.0,0.0,0.0,0.0,0.0,0.0,0.0,0.0,0.0,0.0,0.0,0.0,0.0,0.0,0.0,0.0,0.0,0.0,0.0,0.0,0.0,0.0,0.0,0.0,0.0,0.0,0.0,0.0,0.0,0.0,0.0,0.0,0.0,0.0,0.0,0.0,0.0,0.0,0.0,0.0,0.0,0.0,0.0,0.0,0.0,0.0,0.0,0.0,0.0,0.0,0.0,0.0,0.0,0.0,0.0,0.0,0.0,0.0,0.0,0.0,0.0,0.0,0.0,0.0,0.0,0.0,0.0,0.0,0.0,0.0,0.0,0.0,0.0,0.0,0.0,0.0,0.0,0.0,0.0,0.0,0.0,0.0,0.0,0.0,0.0,0.0,0.0,0.0,0.0,0.0,0.0,0.0,0.0,0.0,0.0,0.0,-3.0209,0.0,-3.1706,-3.0497,-2.8954,-2.721,0.0,0.0,0.0,0.0,0.0,0.0,0.0,0.0,0.0,0.0,0.0,0.0,0.0,0.0,0.0,0.0,0.0,0.0,0.0,0.0,0.0,0.0,0.0,0.0,0.0,0.0,0.0,0.0,0.0,0.0,0.0,0.0,0.0,0.0,0.0,0.0,0.0,0.0,0.0,0.0,0.0,0.0,0.0,0.0,0.0,0.0,0.0,0.0,0.0,0.0,0.0,0.0,0.0,0.0,0.0,0.0,0.0,0.0,0.0,0.0,0.0,0.0,0.0,0.0,0.0,0.0,0.0,0.0,0.0,0.0,0.0,0.0,0.0,0.0,0.0,0.0,0.0,0.0,0.0,0.0,0.0,0.0,0.0,0.0,0.0,0.0,0.0,0.0,0.0,0.0,0.0,0.0,0.0,0.0,0.0,0.0,0.0,0.0,0.0,0.0,0.0,0.0,0.0,0.0,0.0,0.0,0.0,0.0,0.0,-3.208,-3.2109,-3.399,-3.3295,-3.1379,0.0,0.0,0.0,0.0,0.0,0.0,0.0,0.0,0.0,0.0,0.0,0.0,0.0,0.0,0.0,0.0,0.0,0.0,0.0,0.0,0.0,0.0,0.0,0.0,0.0,0.0,0.0,0.0,0.0,0.0,0.0,0.0,0.0,0.0,0.0,0.0,0.0,0.0,0.0,0.0,0.0,0.0,0.0,0.0,0.0,0.0,0.0,0.0,0.0,0.0,0.0,0.0,0.0,0.0,0.0,0.0,0.0,0.0,0.0,0.0,0.0,0.0,0.0,0.0,0.0,0.0,0.0,0.0,0.0,0.0,0.0,0.0,0.0,0.0,0.0,0.0,0.0,0.0,0.0,0.0,0.0,0.0,0.0,0.0,0.0,0.0,0.0,0.0,0.0,0.0,0.0,0.0,0.0,0.0,0.0,0.0,0.0,0.0,0.0,0.0,0.0,0.0,0.0,0.0,0.0,0.0,0.0,0.0,0.0,-3.084,-3.1974,-3.3836,-3.631,-3.3117,-3.0731,0.0,0.0,0.0,0.0,0.0,0.0,0.0,0.0,0.0,0.0,0.0,0.0,0.0,0.0,0.0,0.0,0.0,0.0,0.0,0.0,0.0,0.0,0.0,0.0,0.0,0.0,0.0,0.0,0.0,0.0,0.0,0.0,0.0,0.0,0.0,0.0,0.0,0.0,0.0,0.0,0.0,0.0,0.0,0.0,0.0,0.0,0.0,0.0,0.0,0.0,0.0,0.0,0.0,0.0,0.0,0.0,0.0,0.0,0.0,0.0,0.0,0.0,0.0,0.0,0.0,0.0,0.0,0.0,0.0,0.0,0.0,0.0,0.0,0.0,0.0,0.0,0.0,0.0,0.0,0.0,0.0,0.0,0.0,0.0,0.0,0.0,0.0,0.0,0.0,0.0,0.0,0.0,0.0,0.0,0.0,0.0,0.0,0.0,0.0,0.0,0.0,0.0,0.0,0.0,0.0,0.0,0.0,0.0,0.0,-3.1206,0.0,-3.6058,0.0,-3.3755,-3.0982,0.0,0.0,0.0,0.0,0.0,0.0,0.0,0.0,0.0,0.0,0.0,0.0,0.0,0.0,0.0,0.0,0.0,0.0,0.0,0.0,0.0,0.0,0.0,0.0,0.0,0.0,0.0,0.0,0.0,0.0,0.0,0.0,0.0,0.0,0.0,0.0,0.0,0.0,0.0,0.0,0.0,0.0,0.0,0.0,0.0,0.0,0.0,0.0,0.0,0.0,0.0,0.0,0.0,0.0,0.0,0.0,0.0,0.0,0.0,0.0,0.0,0.0,0.0,0.0,0.0,0.0,0.0,0.0,0.0,0.0,0.0,0.0,0.0,0.0,0.0,0.0,0.0,0.0,0.0,0.0,0.0,0.0,0.0,0.0,0.0,0.0,0.0,0.0,0.0,0.0,0.0,0.0,0.0,0.0,0.0,0.0,0.0,0.0,0.0,0.0,0.0,0.0,0.0,0.0,0.0,0.0,0.0,0.0,-3.1283,-3.5475,-3.8124,-3.8415,-3.6452,-3.5349,-3.2365,0.0,0.0,0.0,0.0,0.0,0.0,0.0,0.0,0.0,0.0,0.0,0.0,0.0,0.0,0.0,0.0,0.0,0.0,0.0,0.0,0.0,0.0,0.0,0.0,0.0,0.0,0.0,0.0,0.0,0.0,0.0,0.0,0.0,0.0,0.0,0.0,0.0,0.0,0.0,0.0,0.0,0.0,0.0,0.0,0.0,0.0,0.0,0.0,0.0,0.0,0.0,0.0,0.0,0.0,0.0,0.0,0.0,0.0,0.0,0.0,0.0,0.0,0.0,0.0,0.0,0.0,0.0,0.0,0.0,0.0,0.0,0.0,0.0,0.0,0.0,0.0,0.0,0.0,0.0,0.0,0.0,0.0,0.0,0.0,0.0,0.0,0.0,0.0,0.0,0.0,0.0,0.0,0.0,0.0,0.0,0.0,0.0,0.0,0.0,0.0,0.0,0.0,0.0,0.0,0.0,0.0,0.0,0.0,0.0,-3.5135,-3.6723,-3.8018,-3.8859,-3.5331,-3.273,0.0,0.0,0.0,0.0,0.0,0.0,0.0,0.0,0.0,0.0,0.0,0.0,0.0,0.0,0.0,0.0,0.0,0.0,0.0,0.0,0.0,0.0,0.0,0.0,0.0,0.0,0.0,0.0,0.0,0.0,0.0,0.0,0.0,0.0,0.0,0.0,0.0,0.0,0.0,0.0,0.0,0.0,0.0,0.0,0.0,0.0,0.0,0.0,0.0,0.0,0.0,0.0,0.0,0.0,0.0,0.0,0.0,0.0,0.0,0.0,0.0,0.0,0.0,0.0,0.0,0.0,0.0,0.0,0.0,0.0,0.0,0.0,0.0,0.0,0.0,0.0,0.0,0.0,0.0,0.0,0.0,0.0,0.0,0.0,0.0,0.0,0.0,0.0,0.0,0.0,0.0,0.0,0.0,0.0,0.0,0.0,0.0,0.0,0.0,0.0,0.0,0.0,0.0,0.0,0.0,0.0,0.0,0.0,0.0,-3.6193,-3.7954,-3.9305,-4.0126,-3.6417,-3.3752,-3.2264,0.0,0.0,0.0,0.0,0.0,0.0,0.0,0.0,0.0,0.0,0.0,0.0,0.0,0.0,0.0,0.0,0.0,0.0,0.0,0.0,0.0,0.0,0.0,0.0,0.0,0.0,0.0,0.0,0.0,0.0,0.0,0.0,0.0,0.0,0.0,0.0,0.0,0.0,0.0,0.0,0.0,0.0,0.0,0.0,0.0,0.0,0.0,0.0,0.0,0.0,0.0,0.0,0.0,0.0,0.0,0.0,0.0,0.0,0.0,0.0,0.0,0.0,0.0,0.0,0.0,0.0,0.0,0.0,0.0,0.0,0.0,0.0,0.0,0.0,0.0,0.0,0.0,0.0,0.0,0.0,0.0,0.0,0.0,0.0,0.0,0.0,0.0,0.0,0.0,0.0,0.0,0.0,0.0,0.0,0.0,0.0,0.0,0.0,0.0,0.0,0.0,0.0,0.0,0.0,0.0,0.0,0.0,0.0,-3.8254,-4.1203,-4.1902,-4.0189,-3.8377,-3.5362,0.0,0.0,0.0,0.0,0.0,0.0,0.0,0.0,0.0,0.0,0.0,0.0,0.0,0.0,0.0,0.0,0.0,0.0,0.0,0.0,0.0,0.0,0.0,0.0,0.0,0.0,0.0,0.0,0.0,0.0,0.0,0.0,0.0,0.0,0.0,0.0,0.0,0.0,0.0,0.0,0.0,0.0,0.0,0.0,0.0,0.0,0.0,0.0,0.0,0.0,0.0,0.0,0.0,0.0,0.0,0.0,0.0,0.0,0.0,0.0,0.0,0.0,0.0,0.0,0.0,0.0,0.0,0.0,0.0,0.0,0.0,0.0,0.0,0.0,0.0,0.0,0.0,0.0,0.0,0.0,0.0,0.0,0.0,0.0,0.0,0.0,0.0,0.0,0.0,0.0,0.0,0.0,0.0,0.0,0.0,0.0,0.0,0.0,0.0,0.0,0.0,0.0,0.0,0.0,0.0,0.0,0.0,0.0,0.0,-3.9156,-4.1301,-4.2474,-4.2451,-3.9258,-3.6522,0.0,0.0,0.0,0.0,0.0,0.0,0.0,0.0,0.0,0.0,0.0,0.0,0.0,0.0,0.0,0.0,0.0,0.0,0.0,0.0,0.0,0.0,0.0,0.0,0.0,0.0,0.0,0.0,0.0,0.0,0.0,0.0,0.0,0.0,0.0,0.0,0.0,0.0,0.0,0.0,0.0,0.0,0.0,0.0,0.0,0.0,0.0,0.0,0.0,0.0,0.0,0.0,0.0,0.0,0.0,0.0,0.0,0.0,0.0,0.0,0.0,0.0,0.0,0.0,0.0,0.0,0.0,0.0,0.0,0.0,0.0,0.0,0.0,0.0,0.0,0.0,0.0,0.0,0.0,0.0,0.0,0.0,0.0,0.0,0.0,0.0,0.0,0.0,0.0,0.0,0.0,0.0,0.0,0.0,0.0,0.0,0.0,0.0,0.0,0.0,0.0,0.0,0.0,0.0,0.0,0.0,0.0,0.0,-3.8263,-3.9825,-4.1785,-4.302,-4.3479,-4.0346,-3.762,0.0,0.0,0.0,0.0,0.0,0.0,0.0,0.0,0.0,0.0,0.0,0.0,0.0,0.0,0.0,0.0,0.0,0.0,0.0,0.0,0.0,0.0,0.0,0.0,0.0,0.0,0.0,0.0,0.0,0.0,0.0,0.0,0.0,0.0,0.0,0.0,0.0,0.0,0.0,0.0,0.0,0.0,0.0,0.0,0.0,0.0,0.0,0.0,0.0,0.0,0.0,0.0,0.0,0.0,0.0,0.0,0.0,0.0,0.0,0.0,0.0,0.0,0.0,0.0,0.0,0.0,0.0,0.0,0.0,0.0,0.0,0.0,0.0,0.0,0.0,0.0,0.0,0.0,0.0,0.0,0.0,0.0,0.0,0.0,0.0,0.0,0.0,0.0,0.0,0.0,0.0,0.0,0.0,0.0,0.0,0.0,0.0,0.0,0.0,0.0,0.0,0.0,0.0,0.0,0.0,0.0,0.0,0.0,-3.9027,-4.0393,-4.2447,-4.3479,-4.3424,-4.1343,-3.8618,0.0,0.0,0.0,0.0,0.0,0.0,0.0,0.0,0.0,0.0,0.0,0.0,0.0,0.0,0.0,0.0,0.0,0.0,0.0,0.0,0.0,0.0,0.0,0.0,0.0,0.0,0.0,0.0,0.0,0.0,0.0,0.0,0.0,0.0,0.0,0.0,0.0,0.0,0.0,0.0,0.0,0.0,0.0,0.0,0.0,0.0,0.0,0.0,0.0,0.0,0.0,0.0,0.0,0.0,0.0,0.0,0.0,0.0,0.0,0.0,0.0,0.0,0.0,0.0,0.0,0.0,0.0,0.0,0.0,0.0,0.0,0.0,0.0,0.0,0.0,0.0,0.0,0.0,0.0,0.0,0.0,0.0,0.0,0.0,0.0,0.0,0.0,0.0,0.0,0.0,0.0,0.0,0.0,0.0,0.0,0.0,0.0,0.0,0.0,0.0,0.0,0.0,0.0,0.0,0.0,0.0,0.0,0.0,-3.9877,-4.1229,-4.2724,-4.3479,-4.3479,-4.1343,-3.8869,0.0,0.0,0.0,0.0,0.0,0.0,0.0,0.0,0.0,0.0,0.0,0.0,0.0,0.0,0.0,0.0,0.0,0.0,0.0,0.0,0.0,0.0,0.0,0.0,0.0,0.0,0.0,0.0,0.0,0.0,0.0,0.0,0.0,0.0,0.0,0.0,0.0,0.0,0.0,0.0,0.0,0.0,0.0,0.0,0.0,0.0,0.0,0.0,-3.0336,0.0,0.0,0.0,0.0,0.0,0.0,0.0,0.0,0.0,0.0,0.0,0.0,0.0,0.0,0.0,0.0,0.0,0.0,0.0,0.0,0.0,0.0,0.0,0.0,0.0,0.0,0.0,0.0,0.0,0.0,0.0,0.0,0.0,0.0,0.0,0.0,0.0,0.0,0.0,0.0,0.0,0.0,0.0,0.0,0.0,0.0,0.0,0.0,0.0,0.0,0.0,0.0,0.0,0.0,0.0,0.0,0.0,0.0,0.0,-4.0705,-4.1841,-4.2938,-4.3375,-4.3087,-4.1713,-3.9611,0.0,0.0,0.0,0.0,0.0,0.0,0.0,0.0,0.0,0.0,0.0,0.0,0.0,0.0,0.0,0.0,0.0,0.0,0.0,0.0,0.0,0.0,0.0,0.0,0.0,0.0,0.0,0.0,0.0,0.0,0.0,0.0,0.0,0.0,0.0,0.0,0.0,0.0,0.0,0.0,0.0,0.0,0.0,0.0,0.0,0.0,0.0,0.0,0.0,0.0,0.0,0.0,0.0,0.0,0.0,0.0,0.0,0.0,0.0,0.0,0.0,0.0,0.0,0.0,0.0,0.0,0.0,0.0,0.0,0.0,0.0,0.0,0.0,0.0,0.0,0.0,0.0,0.0,0.0,0.0,0.0,0.0,0.0,0.0,0.0,0.0,0.0,0.0,0.0,0.0,0.0,0.0,0.0,0.0,0.0,0.0,0.0,0.0,0.0,0.0,0.0,0.0,0.0,0.0,0.0,0.0,0.0,-3.8852,-4.1055,-4.2448,-4.308,-4.3178,-4.2693,-4.2038,-4.0259,-3.7281,0.0,0.0,0.0,0.0,0.0,0.0,0.0,0.0,0.0,0.0,0.0,0.0,0.0,0.0,0.0,0.0,0.0,0.0,0.0,0.0,0.0,0.0,0.0,0.0,0.0,0.0,0.0,0.0,0.0,0.0,0.0,0.0,0.0,0.0,0.0,0.0,0.0,0.0,-2.3917,-2.8704,0.0,0.0,0.0,0.0,0.0,0.0,0.0,0.0,-3.5077,0.0,0.0,0.0,0.0,0.0,0.0,0.0,0.0,0.0,0.0,0.0,0.0,0.0,0.0,0.0,0.0,0.0,0.0,0.0,0.0,0.0,0.0,0.0,0.0,0.0,0.0,0.0,0.0,0.0,0.0,0.0,0.0,0.0,0.0,0.0,0.0,0.0,0.0,0.0,0.0,0.0,0.0,0.0,0.0,0.0,0.0,0.0,0.0,0.0,0.0,0.0,0.0,0.0,0.0,0.0,0.0,-3.8099,-3.8312,-3.9973,-4.3185,-4.2996,-4.2788,-4.2655,-4.1621,-3.966,-3.6766,0.0,0.0,0.0,0.0,0.0,0.0,0.0,0.0,0.0,0.0,0.0,0.0,0.0,0.0,0.0,0.0,0.0,0.0,0.0,0.0,0.0,0.0,0.0,0.0,0.0,0.0,0.0,0.0,0.0,0.0,0.0,0.0,0.0,0.0,0.0,0.0,0.0,0.0,0.0,-3.2487,-3.4781,0.0,0.0,0.0,0.0,0.0,0.0,0.0,0.0,-3.5465,0.0,0.0,0.0,0.0,0.0,0.0,0.0,0.0,0.0,0.0,0.0,0.0,0.0,0.0,0.0,0.0,0.0,0.0,0.0,0.0,0.0,0.0,0.0,0.0,0.0,0.0,0.0,0.0,0.0,0.0,0.0,0.0,0.0,0.0,0.0,0.0,0.0,0.0,0.0,0.0,0.0,0.0,0.0,0.0,0.0,0.0,0.0,0.0,0.0,0.0,0.0,0.0,0.0,0.0,0.0,-3.7323,-3.9017,-4.0898,-4.2978,-4.2826,-4.24,-4.1793,-4.0455,-3.8597,0.0,0.0,0.0,0.0,0.0,0.0,0.0,0.0,0.0,0.0,0.0,0.0,0.0,0.0,0.0,0.0,0.0,0.0,0.0,0.0,0.0,0.0,0.0,0.0,0.0,0.0,0.0,0.0,0.0,0.0,0.0,0.0,0.0,0.0,0.0,0.0,0.0,0.0,0.0,0.0,-3.4117,-3.6114,-3.6556,0.0,0.0,0.0,0.0,0.0,0.0,-3.5943,-3.5578,0.0,0.0,0.0,0.0,0.0,0.0,0.0,0.0,0.0,0.0,0.0,0.0,0.0,0.0,0.0,0.0,0.0,0.0,0.0,0.0,0.0,0.0,0.0,0.0,0.0,0.0,0.0,0.0,0.0,0.0,0.0,0.0,0.0,0.0,0.0,0.0,0.0,0.0,0.0,0.0,0.0,0.0,0.0,0.0,0.0,0.0,0.0,0.0,0.0,0.0,0.0,0.0,0.0,0.0,0.0,-3.6303,-3.9316,-4.1475,-4.2641,-4.2498,-4.1913,-4.0915,-3.9496,-3.7779,0.0,0.0,0.0,0.0,0.0,0.0,0.0,0.0,0.0,0.0,0.0,0.0,0.0,0.0,0.0,0.0,0.0,0.0,0.0,0.0,0.0,0.0,0.0,0.0,0.0,0.0,0.0,0.0,0.0,0.0,0.0,0.0,0.0,0.0,0.0,0.0,0.0,0.0,0.0,0.0,0.0,-3.7365,-3.7955,-3.7768,0.0,0.0,0.0,0.0,-3.5807,-3.5796,0.0,0.0,0.0,0.0,0.0,0.0,0.0,0.0,0.0,0.0,0.0,0.0,0.0,0.0,0.0,0.0,0.0,0.0,0.0,0.0,0.0,0.0,0.0,0.0,0.0,0.0,0.0,0.0,0.0,0.0,0.0,0.0,0.0,0.0,0.0,0.0,0.0,0.0,0.0,0.0,0.0,0.0,0.0,0.0,0.0,0.0,0.0,0.0,0.0,0.0,0.0,0.0,0.0,0.0,0.0,0.0,-3.6182,-3.758,-3.9679,-4.2474,-4.1717,-4.1094,-4.0903,-3.9662,-3.7916,0.0,0.0,0.0,0.0,0.0,0.0,0.0,0.0,0.0,0.0,0.0,0.0,0.0,0.0,0.0,0.0,0.0,0.0,0.0,0.0,0.0,0.0,0.0,0.0,0.0,0.0,0.0,0.0,0.0,0.0,0.0,0.0,0.0,0.0,0.0,0.0,0.0,0.0,0.0,0.0,0.0,-3.943,-3.7485,-3.7994,-3.8092,0.0,0.0,-3.6561,-3.6564,-3.6064,0.0,0.0,0.0,0.0,0.0,0.0,0.0,0.0,0.0,0.0,0.0,0.0,0.0,0.0,0.0,0.0,0.0,0.0,0.0,0.0,0.0,0.0,0.0,0.0,0.0,0.0,0.0,0.0,0.0,0.0,0.0,0.0,0.0,0.0,0.0,0.0,0.0,0.0,0.0,0.0,0.0,0.0,0.0,0.0,0.0,0.0,0.0,0.0,0.0,0.0,0.0,0.0,0.0,0.0,0.0,-3.2787,-3.5415,-3.765,-3.9704,-4.1576,-4.1196,-4.0607,-3.9833,-3.8455,-3.6688,0.0,0.0,0.0,0.0,0.0,0.0,0.0,0.0,0.0,0.0,0.0,0.0,0.0,0.0,0.0,0.0,0.0,0.0,0.0,0.0,0.0,0.0,0.0,0.0,0.0,0.0,0.0,0.0,0.0,0.0,0.0,0.0,0.0,0.0,0.0,0.0,0.0,0.0,0.0,0.0,0.0,0.0,-3.8552,-3.8674,0.0,0.0,0.0,-3.6731,-3.609,0.0,0.0,0.0,0.0,0.0,0.0,0.0,0.0,0.0,0.0,0.0,0.0,0.0,0.0,0.0,0.0,0.0,0.0,0.0,0.0,0.0,0.0,0.0,0.0,0.0,0.0,0.0,0.0,0.0,0.0,0.0,0.0,0.0,0.0,0.0,0.0,0.0,0.0,0.0,0.0,0.0,0.0,0.0,0.0,0.0,0.0,0.0,0.0,0.0,0.0,0.0,0.0,0.0,0.0,0.0,0.0,0.0,-3.4801,-3.7588,-3.9536,-4.0556,-4.0331,-3.9675,-3.8766,-3.7466,0.0,0.0,0.0,0.0,0.0,0.0,0.0,0.0,0.0,0.0,0.0,0.0,0.0,0.0,0.0,0.0,0.0,0.0,0.0,0.0,0.0,0.0,0.0,0.0,0.0,0.0,0.0,-2.0847,0.0,0.0,0.0,0.0,0.0,0.0,0.0,0.0,0.0,0.0,0.0,0.0,0.0,0.0,-3.7775,-3.894,-3.8616,-3.8048,0.0,0.0,-3.64,-3.5645,-3.7449,-3.7744,0.0,0.0,0.0,0.0,0.0,0.0,0.0,0.0,0.0,0.0,0.0,0.0,0.0,0.0,0.0,0.0,0.0,0.0,0.0,0.0,0.0,0.0,0.0,0.0,0.0,0.0,0.0,0.0,0.0,0.0,0.0,0.0,0.0,0.0,0.0,0.0,0.0,0.0,0.0,0.0,0.0,0.0,0.0,0.0,0.0,0.0,0.0,0.0,0.0,0.0,0.0,0.0,0.0,0.0,0.0,-3.4783,-3.6666,-3.8339,-3.9777,-3.8709,-3.8072,-3.7956,-3.7212,-3.5508,0.0,0.0,0.0,0.0,0.0,0.0,0.0,0.0,0.0,0.0,0.0,0.0,0.0,0.0,0.0,0.0,0.0,0.0,0.0,0.0,0.0,0.0,0.0,0.0,0.0,0.0,0.0,0.0,0.0,0.0,0.0,0.0,0.0,0.0,0.0,0.0,0.0,0.0,0.0,0.0,0.0,-3.7701,-3.7595,-3.7154,-3.6788,0.0,0.0,-3.5569,-3.5503,-3.5649,-3.5259,-3.3785,0.0,0.0,0.0,0.0,0.0,0.0,0.0,0.0,0.0,0.0,0.0,0.0,0.0,0.0,0.0,0.0,0.0,0.0,0.0,0.0,0.0,0.0,0.0,0.0,0.0,0.0,0.0,0.0,0.0,0.0,0.0,0.0,0.0,0.0,0.0,0.0,0.0,0.0,0.0,0.0,0.0,0.0,0.0,0.0,0.0,0.0,0.0,0.0,0.0,0.0,0.0,0.0,0.0,-3.2059,-3.3266,-3.5754,-3.7581,-3.8589,-3.8119,-3.7686,-3.7229,-3.6941,-3.5244,0.0,0.0,0.0,0.0,0.0,0.0,0.0,0.0,0.0,0.0,0.0,0.0,0.0,0.0,0.0,0.0,0.0,0.0,0.0,0.0,0.0,0.0,0.0,0.0,0.0,0.0,0.0,0.0,-2.5759,-2.6002,-2.5743,0.0,0.0,0.0,0.0,0.0,0.0,0.0,0.0,0.0,0.0,-3.674,-3.7508,-3.7068,0.0,0.0,-3.6013,-3.5495,-3.5524,-3.4085,-3.3162,-3.3468,-3.3092,0.0,0.0,0.0,0.0,0.0,0.0,0.0,0.0,0.0,0.0,0.0,0.0,0.0,0.0,0.0,0.0,0.0,0.0,0.0,0.0,0.0,0.0,0.0,0.0,0.0,0.0,0.0,0.0,0.0,0.0,0.0,0.0,0.0,0.0,0.0,0.0,0.0,0.0,0.0,0.0,0.0,0.0,0.0,0.0,0.0,0.0,0.0,0.0,0.0,0.0,0.0,0.0,-3.1664,-3.2611,-3.5131,-3.6806,-3.755,-3.7347,-3.6975,-3.6468,-3.6279,-3.4568,0.0,0.0,0.0,0.0,0.0,0.0,0.0,0.0,0.0,0.0,0.0,0.0,0.0,0.0,0.0,0.0,0.0,0.0,0.0,0.0,0.0,0.0,0.0,0.0,0.0,0.0,0.0,0.0,-2.682,-2.6916,-2.6639,0.0,0.0,0.0,0.0,0.0,0.0,0.0,0.0,0.0,0.0,-3.6011,-3.7223,-3.6753,-3.6275,-3.629,-3.5831,-3.5489,-3.5489,-3.3419,-3.2205,-3.321,0.0,0.0,0.0,0.0,0.0,0.0,0.0,0.0,0.0,0.0,0.0,0.0,0.0,0.0,0.0,0.0,0.0,0.0,0.0,0.0,0.0,0.0,0.0,0.0,0.0,0.0,0.0,0.0,0.0,0.0,-2.9956,0.0,0.0,0.0,0.0,0.0,0.0,0.0,0.0,0.0,0.0,0.0,0.0,0.0,0.0,0.0,0.0,0.0,0.0,0.0,0.0,0.0,0.0,-3.1918,-3.3355,-3.4878,-3.6028,-3.6738,-3.6062,-3.5645,-3.5611,-3.4991,-3.3383,-3.0725,0.0,0.0,0.0,0.0,0.0,0.0,0.0,0.0,0.0,0.0,0.0,0.0,0.0,0.0,0.0,0.0,0.0,0.0,0.0,0.0,0.0,0.0,0.0,0.0,0.0,0.0,-2.6654,-2.6621,-2.6621,0.0,0.0,0.0,0.0,0.0,0.0,0.0,0.0,0.0,0.0,-3.5582,-3.5796,-3.6522,-3.6006,-3.5554,-3.5569,-3.5504,-3.5489,-3.5489,-3.3877,-3.267,0.0,0.0,0.0,0.0,0.0,0.0,0.0,0.0,0.0,0.0,0.0,0.0,0.0,0.0,0.0,0.0,0.0,0.0,0.0,0.0,0.0,0.0,0.0,0.0,0.0,0.0,0.0,-3.3119,-3.2628,0.0,0.0,0.0,0.0,0.0,0.0,0.0,0.0,0.0,0.0,0.0,-3.64,-3.6603,0.0,0.0,0.0,0.0,0.0,0.0,0.0,0.0,0.0,0.0,0.0,0.0,-3.2171,-3.273,-3.4607,-3.574,-3.5994,-3.5278,-3.4941,-3.4941,-3.4284,-3.2898,-3.0649,0.0,0.0,0.0,0.0,0.0,0.0,0.0,0.0,0.0,0.0,0.0,0.0,0.0,0.0,0.0,0.0,0.0,0.0,0.0,0.0,0.0,0.0,0.0,0.0,0.0,-2.7852,0.0,0.0,0.0,0.0,0.0,0.0,0.0,0.0,0.0,0.0,0.0,-3.4666,-3.5451,-3.5554,-3.5589,-3.5864,-3.5668,-3.5489,0.0,0.0,0.0,0.0,0.0,0.0,0.0,0.0,0.0,0.0,0.0,0.0,0.0,0.0,-2.9831,-2.9054,-2.8912,-2.8964,-2.9171,0.0,0.0,0.0,0.0,0.0,0.0,0.0,0.0,0.0,0.0,0.0,0.0,0.0,0.0,-3.4607,0.0,-3.366,0.0,0.0,0.0,0.0,0.0,0.0,0.0,0.0,-3.7466,-3.7922,-3.7956,-3.843,-3.8007,0.0,-3.6535,-3.4912,0.0,0.0,0.0,0.0,0.0,0.0,0.0,0.0,-3.2568,-3.3102,-3.4742,-3.5639,-3.5577,-3.4941,-3.4592,-3.4576,-3.3494,-3.2201,-3.0584,-2.9078,-2.8053,0.0,0.0,0.0,0.0,0.0,0.0,0.0,0.0,0.0,0.0,0.0,0.0,0.0,0.0,0.0,0.0,0.0,0.0,0.0,0.0,0.0,0.0,0.0,-2.8281,0.0,0.0,0.0,0.0,0.0,0.0,0.0,0.0,0.0,-3.3801,-3.4416,-3.4999,-3.5431,-3.551,-3.5489,-3.5489,0.0,0.0,0.0,0.0,0.0,0.0,0.0,-3.333,-3.3297,-3.2555,-3.1717,-3.1061,-3.0795,-3.0482,-2.9934,0.0,0.0,-2.8825,-2.885,-2.9089,-2.944,-2.9955,-3.052,-3.106,-3.1273,-3.1449,0.0,0.0,0.0,0.0,0.0,0.0,0.0,0.0,-3.5757,-3.574,0.0,-3.5673,0.0,0.0,0.0,0.0,0.0,-3.6096,0.0,0.0,-3.9326,-4.0054,-4.0037,-4.0037,-3.9698,-3.9089,-3.9631,-3.8464,-3.5639,-3.3491,0.0,0.0,0.0,0.0,0.0,0.0,-3.3068,-3.4438,-3.5216,-3.5639,-3.5577,-3.4894,-3.4528,-3.4414,-3.257,-3.1275,-3.0563,-2.9894,-2.8981,-2.7739,-2.764,0.0,0.0,0.0,0.0,0.0,0.0,0.0,0.0,0.0,0.0,0.0,0.0,0.0,0.0,0.0,0.0,0.0,0.0,0.0,0.0,-2.723,0.0,0.0,0.0,0.0,0.0,0.0,0.0,0.0,0.0,0.0,-3.437,-3.5058,-3.5493,-3.5529,0.0,0.0,0.0,0.0,-3.5489,-3.5489,-3.5489,-3.5489,-3.5489,-3.3443,-3.2301,-3.3395,0.0,0.0,-2.9779,-2.9779,-2.9779,-2.9792,-2.9779,-2.9779,-2.9754,-3.0131,-3.0507,-3.0608,-3.0997,-3.1549,-3.2051,-3.1851,-3.1807,-4.2161,0.0,0.0,0.0,0.0,-3.8035,-3.7883,-3.8024,-3.8024,-3.7719,-3.7246,-3.7263,0.0,0.0,0.0,0.0,0.0,0.0,-3.7973,-3.8684,-3.9123,-3.9563,-4.007,-4.0087,-3.9969,-3.9766,-3.9445,-3.8599,-3.7246,-3.6062,-3.4184,-3.1715,0.0,0.0,0.0,0.0,-3.4049,-3.4506,-3.5233,-3.5639,-3.5622,-3.4496,-3.3427,-3.2391,-3.1393,-3.094,-3.121,-3.0163,-2.9609,-2.9639,-2.8323,0.0,0.0,0.0,0.0,0.0,0.0,0.0,0.0,0.0,0.0,0.0,0.0,0.0,0.0,0.0,0.0,0.0,0.0,0.0,-2.7853,-2.8203,-2.8462,0.0,0.0,0.0,0.0,0.0,0.0,0.0,0.0,0.0,-3.51,-3.5389,-3.5522,0.0,0.0,-3.5489,-3.5489,-3.5489,-3.5489,-3.5489,-3.5489,0.0,0.0,-3.4912,-3.4052,-3.3072,-3.111,-2.9779,-2.9779,-2.9779,-2.9779,-2.9779,-2.9779,-2.9779,-2.9792,-2.9905,-3.0281,-3.0972,-3.1286,-3.1712,-3.2579,-3.2679,-3.2726,-4.3128,-4.2451,-4.1597,-4.1081,-4.0713,-3.9931,-3.9646,-3.9751,-3.9493,-3.9174,-3.8768,-3.8768,-3.8091,-3.6941,-3.6654,0.0,0.0,0.0,-3.8734,-3.9411,-3.9428,-3.9665,-4.0054,-4.0087,-4.0087,-4.0104,-3.9343,-3.8633,-3.7905,-3.7144,-3.5554,-3.3254,0.0,0.0,-3.3203,-3.4032,-3.4641,-3.4945,-3.5385,-3.547,-3.5207,-3.3903,-3.268,-3.1509,-3.0866,-3.0821,-3.148,-3.0522,-3.0118,-3.0462,-2.9385,-2.8196,0.0,0.0,0.0,0.0,0.0,0.0,0.0,0.0,0.0,0.0,0.0,-2.143,0.0,0.0,0.0,0.0,-2.5033,-2.6816,-2.8539,-2.8669,0.0,0.0,0.0,0.0,0.0,0.0,0.0,-3.4596,-3.4551,-3.4593,-3.5379,-3.5489,-3.5489,-3.5489,-3.5489,-3.5489,-3.5489,0.0,-3.5489,-3.5489,-3.5489,-3.5359,-3.4986,-3.4823,-3.3994,-3.1856,-3.0558,-2.9856,-2.9779,-2.9779,-2.9779,-2.9779,-2.9779,-2.9779,-2.9779,-2.9779,-3.0043,-3.0896,-3.1248,-3.17,-3.2566,-3.2729,-3.2792,-4.3479,-4.3444,-4.2958,-4.2732,-4.2559,-4.1446,-4.0949,-4.0856,-4.0319,-4.0087,-4.0087,-4.0087,-3.9698,-3.9056,-3.8379,0.0,-3.9073,-3.9073,-3.9445,-4.007,-4.0087,-4.0087,-4.0087,-4.0087,-4.0054,-3.9969,-3.9309,-3.8582,-3.7804,-3.7127,-3.6028,-3.4624,-3.4573,-3.4539,-3.4506,-3.4556,-3.4912,-3.556,-3.5622,-3.5253,-3.4528,-3.3287,-3.2185,-3.1435,-3.0791,-3.0717,-3.1273,-3.0717,-3.0387,-3.0417,-3.0372,-2.9535,-2.7769,0.0,0.0,0.0,0.0,0.0,0.0,0.0,0.0,0.0,0.0,0.0,0.0,0.0,0.0,0.0,-2.6085,0.0,-2.873,-2.8789,0.0,0.0,0.0,-3.0021,-3.0596,-3.1144,-3.2194,-3.3819,0.0,0.0,-3.5359,-3.5489,-3.5489,-3.5489,-3.5489,-3.5489,-3.5489,-3.5489,-3.5489,-3.5489,-3.5424,-3.5052,-3.4259,-3.3704,-3.2622,-3.0393,-2.9767,-2.9779,-2.9779,-2.9779,-2.9779,-2.9779,-2.9779,-2.9779,-2.9779,-2.9779,-2.9942,-3.0457,-3.0959,-3.1486,-3.2014,-3.2152,-3.229,-4.3479,-4.3497,-4.3375,-4.3069,-4.2655,-4.1895,-4.1313,-4.0856,-4.0336,-4.0087,-4.0087,-4.0087,-3.9986,-3.98,-3.9648,-3.9648,-3.9834,-3.9817,-3.9901,-4.007,-4.0087,-4.0087,-4.0087,-4.0087,-3.9783,-3.9259,-3.9073,-3.8311,-3.7077,-3.6874,-3.6282,-3.5385,-3.5351,-3.5047,-3.4539,-3.5064,-3.5453,-3.5622,-3.5639,-3.5021,-3.3836,-3.3055,-3.2026,-3.0746,-3.0133,-2.9864,-3.0028,-2.94,-2.928,-2.9774,-2.9325,-2.8846,-2.8382,-2.6604,0.0,0.0,0.0,0.0,0.0,0.0,0.0,0.0,0.0,-2.3439,-2.1619,0.0,-2.591,0.0,-2.7242,-2.8611,-2.9402,-2.9484,0.0,0.0,-3.0113,-3.0339,-3.0983,-3.1169,-3.2027,-3.3779,-3.4013,-3.4394,-3.5359,-3.5489,-3.5489,-3.5489,-3.5489,-3.5489,-3.5489,-3.5489,-3.5489,-3.5424,-3.4839,-3.4245,-3.3988,-3.2915,-3.1656,-3.0044,-2.977,-2.9779,-2.9779,-2.9779,-2.9779,-2.9779,-2.9779,-2.9779,-2.9779,-2.9779,-2.9829,-2.9993,-3.0419,-3.0959,-3.1474,-3.1574,-3.1744,-4.3479,-4.3479,-4.3479,-4.3339,-4.2976,-4.2144,-4.1621,-4.1223,-4.0466,-4.0087,-4.0087,-4.0087,-4.0087,-4.0087,-4.0087,-4.0087,-4.0087,-4.0087,-4.0087,-4.0087,-4.0087,-3.9918,-3.9597,-3.9597,-3.9208,-3.8514,-3.8159,-3.7584,-3.6806,-3.6434,-3.6045,-3.5639,-3.5639,-3.5419,-3.503,-3.5402,-3.5639,-3.556,-3.5021,-3.435,-3.3598,-3.2625,-3.1617,-3.0537,-3.0178,-2.9864,-2.9594,-2.9235,-2.919,-2.9549,-2.9235,-2.9041,-2.9011,-2.7358,-2.6105,0.0,0.0,0.0,0.0,0.0,0.0,0.0,0.0,0.0,0.0,0.0,-2.658,-2.6528,-2.7706,-2.867,-2.9306,-2.961,-2.9817,-3.0028,-3.0018,-3.0147,-3.0519,-3.0558,-3.1267,-3.3171,-3.338,-3.3905,-3.5279,-3.5118,-3.4839,-3.4839,-3.4476,-3.4558,-3.5359,-3.5489,-3.5374,-3.492,-3.4394,-3.3825,-3.3438,-3.1957,-3.0646,-2.9935,-2.9757,-2.9779,-2.9779,-2.9779,-2.9779,-2.9779,-2.9779,-2.9779,-2.9779,-2.9779,-2.9779,-2.9829,-3.003,-3.0419,-3.0934,-3.0891,-3.0835,-4.3479,-4.3479,-4.3479,-4.3479,-4.341,-4.2346,-4.1895,-4.1725,-4.0594,-4.0087,-4.0087,-4.0087,-4.0087,-4.0087,-4.0087,-4.0087,-4.0087,-4.0087,-4.0087,-4.0087,-4.0087,-3.9698,-3.9005,-3.8988,-3.8565,-3.7753,-3.7094,-3.6738,-3.662,-3.5943,-3.5639,-3.5639,-3.5639,-3.5571,-3.5487,-3.5571,-3.5577,-3.547,-3.4252,-3.3547,-3.3427,-3.2201,-3.121,-3.0552,-3.0432,-3.0088,-2.949,-2.946,-2.946,-2.946,-2.9535,-2.9594,-2.9564,-2.8232,-2.7142,0.0,-2.5101,0.0,0.0,0.0,0.0,0.0,0.0,0.0,0.0,-2.6722,-2.6967,-2.7444,-2.7996,-2.8524,-2.8988,-2.9503,-2.9779,-2.9779,-2.9779,-2.9779,-2.9792,-2.9779,-3.0508,-3.2249,-3.2536,-3.3255,-3.4773,-3.4461,-3.4027,-3.3808,-3.3255,-3.3353,-3.4831,-3.5096,-3.4721,-3.4002,-3.3768,-3.3157,-3.2233,-3.0866,-2.9856,-2.9779,-2.9767,-2.9779,-2.9779,-2.9779,-2.9779,-2.9779,-2.9779,-2.9779,-2.9779,-2.9779,-2.9779,-2.9792,-2.9817,-2.998,-3.0369,-3.0223,-3.0127,-4.3479,-4.3479,-4.3479,-4.3479,-4.3444,-4.2808,-4.2262,-4.1725,-4.0594,-4.0087,-4.0087,-4.0087,-4.0087,-4.0087,-4.0087,-4.0087,-4.0087,-4.0087,-4.0087,-4.0087,-4.0087,-3.9681,-3.9005,-3.8988,-3.8294,-3.7026,-3.684,-3.6451,-3.5859,-3.5673,-3.5639,-3.5639,-3.5639,-3.5301,-3.4776,0.0,0.0,0.0,-3.3971,-3.3323,-3.2803,-3.1951,-3.1195,-3.0522,-3.0013,0.0,-2.8831,-2.8786,-2.8771,-2.8801,-2.9295,0.0,0.0,0.0,0.0,0.0,0.0,0.0,0.0,0.0,0.0,0.0,-2.703,-2.6615,-2.6584,-2.7682,-2.8511,-2.8612,-2.9139,-2.9515,-2.9628,-2.9729,-2.9779,-2.9779,-2.9779,-2.9779,-2.9779,-2.9779,-3.0279,-3.1315,-3.2092,-3.2749,-3.3101,-3.3602,-3.3671,-3.2961,-3.2735,-3.3002,-3.3762,-3.348,-3.3283,-3.3508,-3.2616,-3.1429,-3.0458,-3.0061,-2.9779,-2.9779,-2.9779,-2.9779,-2.9779,-2.9779,-2.9779,-2.9779,-2.9779,-2.9779,-2.9779,-2.9779,-2.9779,-2.9779,-2.9779,-2.9829,-2.993,-2.9839,-2.9852,-4.3479,0.0,-4.3479,-4.3479,0.0,-4.2939,-4.2342,-4.1707,-4.0891,-4.0319,-4.0087,-4.0087,-4.0087,-4.0087,-4.0087,-4.0087,-4.0087,-4.0087,-3.9884,-3.9546,-3.9546,-3.8954,-3.7889,-3.7889,-3.7313,-3.6231,-3.6214,-3.5994,-3.5639,-3.5639,-3.5639,-3.5639,-3.5639,-3.525,-3.4506,-3.4506,-3.4533,-3.4624,-3.3937,-3.3287,-3.2586,-3.191,-3.121,-3.0537,0.0,0.0,0.0,0.0,0.0,0.0,0.0,0.0,0.0,0.0,0.0,-2.8036,-2.722,-2.6674,-2.6471,-2.6942,-2.762,-2.8436,-2.8524,-2.8285,-2.772,-2.8699,-2.9352,-2.9352,-2.9628,-2.9779,-2.9779,-2.9779,-2.9779,-2.9779,-2.9779,-2.9779,-2.9779,-2.9779,-3.0139,-3.1119,-3.2019,-3.2593,-3.2593,-3.2961,-3.2876,-3.2033,-3.1476,-3.1394,-3.1676,-3.2214,-3.2605,-3.2395,-3.1386,-3.0343,-2.9934,-2.9779,-2.9779,-2.9779,-2.9779,-2.9779,-2.9779,-2.9779,-2.9779,-2.9779,-2.9779,-2.9779,-2.9779,-2.9779,-2.9779,-2.9779,-2.9779,-2.9779,-2.9779,-2.9779,-2.9779,-4.3479,-4.3479,-4.3479,-4.3479,-4.3444,-4.3014,-4.248,-4.175,0.0,0.0,0.0,-4.0087,-4.0087,-4.0087,-4.0087,-4.0087,-4.007,-3.9952,-3.9563,-3.9005,-3.887,-3.8091,-3.6806,-3.6789,-3.6383,-3.5656,-3.5639,-3.5639,-3.5639,-3.5639,-3.5537,-3.5436,-3.5419,-3.5047,-3.4303,-3.3575,-3.3483,-3.3988,-3.3645,-3.3008,-3.2237,-3.1721,-3.127,-3.0702,-3.1063,-3.0851,-2.9789,-3.0238,-3.0268,-2.9789,-2.9879,-3.0163,-3.0586,-2.9344,-2.899,-2.9673,-2.8618,-2.8003,-2.8222,-2.8775,-2.9076,-2.9089,-2.9528,-2.9591,-2.9114,-2.9515,-2.9779,-2.9779,-2.9779,-2.9779,-2.9779,-2.9779,-2.9779,-2.9779,-2.9779,-2.9779,-2.9779,-2.9779,-3.0062,-3.0895,-3.1756,-3.2249,-3.2033,-3.2249,-3.2033,-3.1106,-3.0419,-2.9779,-2.9998,-3.1145,-3.1696,-3.1071,-3.0368,-2.9856,-2.9779,-2.9779,-2.9779,-2.9779,-2.9779,-2.9779,-2.9779,-2.9779,-2.9779,-2.9779,-2.9779,-2.9779,-2.9779,-2.9779,-2.9779,-2.9779,-2.9779,-2.9779,-2.9779,-2.9779,-2.9779,-4.3479,-4.3479,-4.3479,-4.3479,-4.3479,-4.341,-4.2772,-4.1725,-4.0672,-4.0154,-4.0087,-4.0087,-4.0087,-4.0087,-4.0087,-4.0087,-4.0037,-3.9445,-3.9089,0.0,-3.8345,-3.7618,-3.6806,-3.6789,-3.6366,-3.5656,-3.5639,-3.5639,-3.5639,-3.5639,-3.5301,-3.4726,-3.4658,-3.4286,-3.3558,-3.2814,-3.229,-3.1951,-3.2382,-3.204,-3.0865,-3.1225,-3.1437,-3.1375,-3.0911,-3.0582,-3.0387,-3.0477,-3.0477,-3.0387,-3.0941,-3.13,-3.1317,-3.1071,-3.0652,-2.9924,-2.9997,-2.9724,-2.8837,-2.934,-2.9679,-2.9679,-2.9754,-2.9754,-2.9691,-2.9741,-2.9779,-2.9779,-2.9779,-2.9779,-2.9779,-2.9779,-2.9779,-2.9779,-2.9779,-2.9779,-2.9779,-2.9779,-2.9869,-3.0062,-3.0833,-3.1106,-3.0558,-3.0983,-3.1119,-3.0279,-2.9934,-2.9779,-2.9856,-2.9998,-3.0139,-2.9998,-2.9946,-2.9792,-2.9779,-2.9779,-2.9779,-2.9779,-2.9779,-2.9779,-2.9779,-2.9779,-2.9779,-2.9779,-2.9779,-2.9779,-2.9779,-2.9779,-2.9779,-2.9779,-2.9779,-2.9779,-2.9779,-2.9779,-2.9779,-4.3479,-4.3479,-4.3479,-4.3479,-4.3444,-4.2865,-4.2306,-4.1707,-4.0594,-4.0087,-4.0087,-4.0087,-4.0087,-4.0087,-4.0087,-3.9851,-3.9478,-3.9157,-3.8548,-3.7787,-3.7449,-3.6891,-3.6197,-3.6129,-3.5977,-3.5639,-3.5639,-3.5639,-3.5639,-3.5639,-3.5233,-3.4472,-3.3694,-3.3119,-3.278,-3.2053,-3.1249,-3.0412,-3.1422,-3.1455,-3.0548,-3.0821,-3.115,-3.1452,-3.121,-3.1061,-3.1061,-3.1061,-3.1061,-3.1061,-3.1302,-3.1467,-3.1482,-3.1397,-3.097,-3.029,-3.0363,-3.0204,-2.9428,-2.9641,-2.9779,-2.9779,-2.9779,-2.9779,-2.9779,-2.9779,-2.9779,-2.9779,-2.9779,-2.9779,-2.9779,-2.9779,-2.9779,-2.9779,-2.9779,-2.9779,-2.9779,-2.9779,-2.9779,-2.9856,-3.062,-3.082,-2.9934,-3.062,-3.0833,-2.9998,-2.9779,-2.9779,-2.9779,-2.9779,-2.9779,-2.9779,-2.9779,-2.9779,-2.9779,-2.9779,-2.9779,-2.9779,-2.9779,-2.9779,-2.9779,-2.9779,-2.9779,-2.9779,-2.9779,-2.9779,-2.9779,-2.9779,-2.9779,-2.9779,-2.9779,-2.9779,-2.9779,-2.9779,-2.9779,-4.3479,-4.3479,-4.3479,-4.3479,-4.341,-4.2266,-4.181,-4.1682,-4.0611,-4.0087,-4.0087,-4.0087,-4.0087,-4.007,-3.9901,-3.9512,-3.9005,-3.8633,-3.7872,-3.684,-3.6586,-3.6197,-3.5673,-3.5639,-3.5639,-3.5639,-3.5639,-3.5639,-3.5639,-3.5639,-3.5148,-3.4184,-3.2763,-3.2036,-3.2036,-3.1478,-3.0617,-2.9576,-3.0622,-3.0958,-3.0323,-3.0567,-3.1001,-3.1422,-3.1467,-3.1467,-3.1467,-3.1467,-3.1467,-3.1467,-3.1467,-3.1467,-3.1497,-3.1483,-3.126,-3.0703,-3.0643,-3.0393,-2.9871,-2.9779,-2.9779,-2.9779,-2.9779,-2.9779,-2.9779,-2.9779,-2.9779,-2.9779,-2.9779,-2.9779,-2.9779,-2.9779,-2.9779,-2.9779,-2.9779,-2.9779,-2.9779,-2.9779,-2.9779,-2.9856,-3.0495,-3.0558,-3.0139,-3.0419,-3.0558,-2.9998,-2.9779,-2.9779,-2.9779,-2.9779,-2.9754,-2.9654,-2.9704,-2.9779,-2.9779,-2.9779,-2.9779,-2.9779,-2.9779,-2.9779,-2.9779,-2.9779,-2.9779,-2.9779,-2.9779,-2.9779,-2.9779,-2.9779,-2.9779,-2.9779,-2.9779,-2.9779,-2.9779,-2.9779,-2.9779,-4.3479,-4.3479,-4.3479,-4.3479,-4.3356,-4.2306,-4.181,-4.1682,-4.0594,-4.0087,-4.0087,-4.007,-4.0054,-3.9986,-3.9394,-3.9056,-3.8819,-3.7601,-3.6907,-3.6688,-3.6062,-3.569,-3.5639,-3.5639,-3.5639,-3.5639,-3.5639,-3.5639,-3.5622,-3.5554,-3.4861,-3.3491,-3.2019,-3.1326,-3.1292,-3.1241,-3.0617,-2.9422,-3.0112,-3.0235,-2.9793,-3.0821,-3.1422,-3.1467,-3.1467,-3.1467,-3.1467,-3.1467,-3.1467,-3.1467,-3.1467,-3.1467,-3.1526,-3.202,-3.1882,-3.0703,-3.1103,-3.1007,-2.9935,-2.9779,-2.9779,-2.9779,-2.9779,-2.9779,-2.9779,-2.9779,-2.9779,-2.9779,-2.9779,-2.9779,-2.9779,-2.9779,-2.9779,-2.9779,-2.9779,-2.9779,-2.9779,-2.9779,-2.9779,-2.9779,-2.9921,-2.9856,-2.9856,-2.9921,-2.9921,-2.9856,-2.9779,-2.9779,-2.9779,-2.9704,-2.9553,-2.9264,-2.9415,-2.9679,-2.9679,-2.9779,-2.9716,-2.9741,-2.9767,-2.9716,-2.9679,-2.9704,-2.9779,-2.9779,-2.9779,-2.9779,-2.9779,-2.9779,-2.9779,-2.9779,-2.9779,-2.9779,-2.9779,-2.9779,-2.9779,-4.3479,-4.3479,-4.3479,-4.3479,-4.3356,-4.2675,-4.2121,-4.1725,-4.092,-4.04,-4.0053,-3.9631,-3.9428,-3.9411,-3.9123,-3.8531,-3.7669,-3.7043,-3.6518,-3.6096,-3.5757,-3.5639,-3.5639,-3.5639,-3.5639,-3.5639,-3.5639,-3.5639,-3.547,-3.4742,-3.3761,-3.2747,-3.1681,-3.119,-3.119,-3.119,-3.0617,-2.9499,-3.0463,-3.0563,-2.9786,-3.0447,-3.112,-3.1495,-3.1467,-3.1467,-3.1467,-3.1467,-3.1467,-3.1467,-3.1467,-3.1467,-3.1482,-3.2512,-3.2338,-3.0758,-3.0552,-3.0325,-2.9844,-2.9779,-2.9779,-2.9779,-2.9779,-2.9779,-2.9779,-2.9779,-2.9779,-2.9779,-2.9779,-2.9779,-2.9779,-2.9779,-2.9779,-2.9779,-2.9779,-2.9779,-2.9779,-2.9779,-2.9779,-2.9779,-2.9779,-2.9779,-2.9779,-2.9779,-2.9779,-2.9779,-2.9779,-2.9754,-2.9767,-2.9515,-2.9189,-2.8963,-2.875,-2.8625,-2.885,-2.9428,-2.9415,-2.9063,-2.9076,-2.9264,-2.9277,-2.9289,-2.9365,-2.9691,-2.9729,-2.9741,-2.9779,-2.9779,-2.9779,-2.9779,-2.9779,-2.9779,-2.9779,-2.9779,-2.9779,-4.3479,-4.3479,-4.3479,-4.3479,-4.3444,-4.2939,-4.2217,-4.1449,-4.0864,-4.0212,-3.9477,-3.892,-3.8565,-3.8396,-3.8379,-3.777,-3.684,-3.6569,-3.6163,-3.5656,-3.5639,-3.5639,-3.5639,-3.5639,-3.5639,-3.5639,-3.5639,-3.552,-3.5199,-3.4066,-3.3017,-3.229,-3.1546,-3.119,-3.119,-3.119,-3.0617,-2.9608,-3.0559,-3.0642,-2.9825,-3.0193,-3.0836,-3.1407,-3.1467,-3.1467,-3.1467,-3.1467,-3.1467,-3.1467,-3.1467,-3.1467,-3.1511,-3.2617,-3.2499,-3.102,-3.0151,-2.9779,-2.9779,-2.9779,-2.9779,-2.9779,-2.9779,-2.9779,-2.9779,-2.9779,-2.9779,-2.9779,-2.9779,-2.9779,-2.9779,-2.9779,-2.9779,-2.9779,-2.9779,-2.9779,-2.9779,-2.9779,-2.9779,-2.9779,-2.9779,-2.9779,-2.9779,-2.9779,-2.9779,-2.9779,-2.9641,-2.9553,-2.9478,-2.9076,-2.8649,-2.8511,-2.7963,-2.7827,-2.8061,-2.8562,-2.87,-2.8549,-2.8412,-2.8575,-2.86,-2.8612,-2.88,-2.9151,-2.944,-2.9666,-2.9767,-2.9779,-2.9767,-2.9779,-2.9779,-2.9779,-2.9779,-2.9779,-2.9779,-4.3479,-4.3479,-4.3479,-4.3479,-4.3444,-4.2903,-4.1934,-4.0766,-4.0141,-3.9181,-3.819,-3.799,-3.7567,-3.6975,-3.6975,-3.684,-3.6654,-3.6028,-3.5707,-3.5639,-3.5639,-3.5639,-3.5639,-3.5639,-3.5639,-3.5622,-3.5537,-3.5165,-3.4472,-3.3744,-3.3017,-3.2256,-3.1529,-3.119,-3.119,-3.119,-3.0617,-2.9637,-3.0128,-3.0188,-2.978,-3.0178,-3.0836,-3.145,-3.1467,-3.1467,-3.1467,-3.1467,-3.1467,-3.1467,-3.1467,-3.1467,-3.1526,-3.2139,-3.2125,-3.1475,-3.042,-2.9779,-2.9779,-2.9779,-2.9779,-2.9779,-2.9779,-2.9779,-2.9779,-2.9779,-2.9779,-2.9779,-2.9779,-2.9779,-2.9779,-2.9779,-2.9779,-2.9779,-2.9779,-2.9779,-2.9779,-2.9779,-2.9779,-2.9779,-2.9779,-2.9779,-2.9779,-2.9779,-2.9729,-2.9628,-2.9302,-2.8963,-2.8888,-2.8499,-2.8009,-2.7682,-2.7513,-2.769,-2.7961,-2.81,-2.8038,-2.7836,-2.7748,-2.7777,-2.7888,-2.7988,-2.8362,-2.8637,-2.8813,-2.9164,-2.9591,-2.9767,-2.9741,-2.9754,-2.9767,-2.9779,-2.9779,-2.9779,-2.9779,-4.3479,-4.3479,-4.3479,-4.3479,-4.3424,-4.2755,-4.1775,-4.0671,-3.9887,-3.8963,-3.7933,-3.7415,-3.7026,-3.6738,-3.6248,-3.6045,-3.6011,-3.5723,-3.5639,-3.5639,-3.5639,-3.5639,-3.5639,-3.5639,-3.5639,-3.5554,-3.5115,-3.4269,-3.3152,-3.2797,-3.2307,-3.1664,-3.1326,-3.119,-3.119,-3.119,-3.0617,-2.9605,-3.0048,-3.0141,-2.9696,-3.0178,-3.0836,-3.148,-3.1467,-3.1467,-3.1467,-3.1467,-3.1467,-3.1467,-3.1467,-3.1467,-3.1453,-3.1058,-3.0769,-3.0747,-2.9838,-2.9402,-2.9729,-2.9779,-2.9779,-2.9779,-2.9779,-2.9779,-2.9779,-2.9779,-2.9779,-2.9779,-2.9779,-2.9779,-2.9779,-2.9779,-2.9779,-2.9779,-2.9779,-2.9779,-2.9779,-2.9779,-2.9779,-2.9779,-2.9779,-2.9779,-2.9691,-2.9478,-2.9252,-2.9189,-2.875,-2.8461,-2.8323,-2.7921,-2.7482,-2.7293,-2.7105,-2.6922,-2.703,-2.7463,-2.7591,-2.731,-2.7205,-2.736,-2.7473,-2.7473,-2.777,-2.8136,-2.8386,-2.8612,-2.9051,-2.9453,-2.9478,-2.939,-2.944,-2.9666,-2.9779,-2.9779,-2.9779,-4.3479,-4.3479,-4.3479,-4.3332,-4.3057,-4.2525,-4.1487,-4.0199,-3.943,-3.8465,-3.7427,-3.6712,-3.64,-3.6332,-3.5859,-3.5639,-3.5639,-3.5639,-3.5639,-3.5639,-3.5639,-3.5639,-3.5639,-3.5639,-3.547,-3.5165,-3.4489,-3.3474,-3.2449,-3.2313,-3.1901,-3.1241,-3.119,-3.119,-3.119,-3.1032,-3.0393,-2.9637,-2.9656,-2.9661,-2.9651,-2.9983,-3.0642,-3.1317,-3.1467,-3.1467,-3.1467,-3.1467,-3.1467,-3.1467,-3.1467,-3.1351,-3.1073,-3.0284,-2.9902,-2.9926,-2.9321,-2.9176,-2.9679,-2.9779,-2.9779,-2.9779,-2.9779,-2.9779,-2.9779,-2.9779,-2.9779,-2.9779,-2.9779,-2.9779,-2.9779,-2.9779,-2.9779,-2.9779,-2.9779,-2.9779,-2.9779,-2.9779,-2.9779,-2.9779,-2.9779,-2.9716,-2.9528,-2.9176,-2.89,-2.8699,-2.8185,-2.7871,-2.777,-2.7381,-2.7017,-2.6992,-2.6728,-2.6578,-2.6684,-2.6972,-2.7114,-2.6904,-2.6804,-2.6979,-2.708,-2.7055,-2.7218,-2.7657,-2.7959,-2.8172,-2.8511,-2.8963,-2.9051,-2.8925,-2.9139,-2.9402,-2.9578,-2.9779,-2.9767,-4.3442,-4.3406,-4.3442,-4.291,-4.2304,-4.2121,-4.1006,-3.9337,-3.8607,-3.769,-3.6594,-3.5895,-3.5757,-3.5673,-3.5656,-3.5639,-3.5639,-3.5639,-3.5639,-3.5639,-3.5639,-3.5639,-3.5622,-3.552,-3.5047,-3.437,-3.3728,-3.3,-3.2263,-3.2178,-3.1816,-3.1292,-3.119,-3.119,-3.119,-3.0658,-3.0038,-2.9422,-2.8951,-2.8958,-2.9507,-2.9654,-3.0268,-3.1375,-3.1467,-3.1467,-3.1467,-3.1467,-3.1467,-3.1467,-3.1467,-3.1102,-3.0462,-2.9975,-2.9671,-2.9412,-2.9065,-2.9151,-2.9654,-2.9754,-2.9779,-2.9779,-2.9779,-2.9779,-2.9779,-2.9779,-2.9779,-2.9779,-2.9779,-2.9779,-2.9779,-2.9779,-2.9779,-2.9779,-2.9779,-2.9779,-2.9779,-2.9779,-2.9767,-2.9729,-2.9679,-2.9515,-2.9101,-2.8775,-2.8536,-2.8109,-2.7645,-2.7281,-2.7243,-2.6879,-2.6622,-2.6571,-2.6571,-2.6533,-2.6521,-2.6477,-2.649,-2.6546,-2.6527,-2.6615,-2.6666,-2.6691,-2.6841,-2.7205,-2.7494,-2.7708,-2.7758,-2.8185,-2.8499,-2.8524,-2.8825,-2.9076,-2.9352,-2.9553,-2.9704,-4.2671,-4.2598,-4.2066,-4.1717,-4.1405,-4.0891,-4.0002,-3.9012,-3.8057,-3.715,-3.6409,-3.5827,-3.5639,-3.5639,-3.5639,-3.5639,-3.5639,-3.5639,-3.5639,-3.5639,-3.5639,-3.5639,-3.5537,-3.5098,-3.4184,-3.3119,-3.2747,-3.2256,-3.1681,-3.1546,-3.1376,-3.1224,-3.119,-3.119,-3.1151,-3.0617,-2.9978,-2.9406,-2.8826,-2.8863,-2.9552,-2.9579,-3.0208,-3.136,-3.1467,-3.1467,-3.1467,-3.1467,-3.1467,-3.1467,-3.1467,-3.1161,-3.0372,-2.9624,-2.91,-2.8805,-2.8528,-2.8599,-2.9151,-2.9578,-2.9779,-2.9779,-2.9779,-2.9779,-2.9779,-2.9779,-2.9779,-2.9779,-2.9779,-2.9779,-2.9779,-2.9779,-2.9779,-2.9779,-2.9779,-2.9779,-2.9779,-2.9767,-2.9591,-2.9277,-2.9189,-2.895,-2.8448,-2.8122,-2.7808,-2.757,-2.708,-2.6766,-2.6691,-2.6684,-2.6546,-2.6521,-2.6521,-2.6521,-2.6521,-2.6521,-2.6521,-2.6521,-2.6521,-2.6521,-2.6521,-2.6546,-2.6603,-2.6753,-2.703,-2.718,-2.7231,-2.7431,-2.7795,-2.7984,-2.8134,-2.8524,-2.9026,-2.9239,-2.9302,-4.1846,-4.1809,-4.1332,-4.0928,-4.0634,-4.0084,-3.9534,-3.8839,-3.7684,-3.6981,-3.6603,-3.5941,-3.5639,-3.5639,-3.5639,-3.5639,-3.5639,-3.5639,-3.5639,-3.5639,-3.5639,-3.5639,-3.5453,-3.4539,-3.3508,-3.2408,-3.2002,-3.1647,-3.1224,-3.119,-3.119,-3.119,-3.119,-3.119,-3.1112,-3.0393,-2.9717,-2.9316,-2.8606,-2.849,-2.9132,-2.946,-3.0073,-3.1016,-3.1332,-3.1452,-3.1467,-3.1467,-3.1467,-3.1467,-3.1219,-3.0644,-2.9813,-2.9016,-2.8371,-2.8144,-2.8117,-2.836,-2.89,-2.9478,-2.9779,-2.9779,-2.9779,-2.9779,-2.9779,-2.9779,-2.9779,-2.9779,-2.9779,-2.9779,-2.9779,-2.9779,-2.9779,-2.9779,-2.9779,-2.9779,-2.9767,-2.9591,-2.9365,-2.9013,-2.8762,-2.8386,-2.7871,-2.7557,-2.718,-2.6992,-2.6678,-2.6521,-2.6521,-2.6533,-2.6521,-2.6521,-2.6521,-2.6521,-2.6521,-2.6521,-2.6521,-2.6521,-2.6521,-2.6521,-2.6521,-2.6521,-2.6527,-2.6634,-2.6766,-2.6791,-2.6841,-2.7017,-2.7293,-2.7369,-2.746,-2.7971,-2.8436,-2.8599,-2.8812,-4.1056,-4.1038,-4.0983,-4.0469,-3.9863,-3.9772,-3.9355,-3.8624,-3.7721,-3.721,-3.696,-3.6122,-3.5667,-3.5622,-3.5639,-3.5639,-3.5605,-3.547,-3.5436,-3.5419,-3.5368,-3.5233,-3.4895,-3.3846,-3.2899,-3.2138,-3.1546,-3.1241,-3.119,-3.119,-3.119,-3.119,-3.119,-3.119,-3.1015,-3.0038,-2.9451,-2.9271,-2.8271,-2.8,-2.8637,-2.916,-2.9789,-3.0447,-3.0971,-3.13,-3.136,-3.1407,-3.1467,-3.1409,-3.0837,-3.0072,-2.9192,-2.8247,-2.7678,-2.7494,-2.7805,-2.8247,-2.8837,-2.9327,-2.9704,-2.9779,-2.9779,-2.9779,-2.9779,-2.9779,-2.9779,-2.9779,-2.9779,-2.9779,-2.9779,-2.9779,-2.9767,-2.9729,-2.9641,-2.9654,-2.9679,-2.9227,-2.8837,-2.8687,-2.8348,-2.7846,-2.7331,-2.7193,-2.6954,-2.6666,-2.6559,-2.6533,-2.6521,-2.6521,-2.6521,-2.6521,-2.6521,-2.6289,-2.6239,-2.589,-2.5852,-2.5824,-2.595,-2.6101,-2.6327,-2.6483,-2.6521,-2.6546,-2.6521,-2.6521,-2.6609,-2.6741,-2.6784,-2.6814,-2.7122,-2.7507,-2.7758,-2.7984,-2.8308,-4.023,-4.0157,-3.9588,-3.9203,-3.9019,-3.9019,-3.8927,-3.8627,-3.798,-3.7452,-3.7079,-3.6481,-3.5856,-3.5588,-3.5588,-3.5639,-3.5436,-3.5013,-3.4776,-3.4692,-3.4201,-3.3677,-3.3237,-3.2814,-3.2222,-3.1546,-3.1309,-3.119,-3.119,-3.119,-3.119,-3.119,-3.119,-3.119,-3.1015,-3.0021,-2.9451,-2.9225,-2.8222,-2.794,-2.8472,-2.8742,-2.916,-2.9774,-3.0028,-3.0372,-3.0776,-3.1213,-3.1467,-3.1467,-3.0718,-3.0194,-2.9752,-2.8492,-2.7629,-2.7527,-2.7557,-2.7745,-2.8298,-2.8837,-2.9315,-2.9741,-2.9716,-2.9779,-2.9779,-2.9779,-2.9779,-2.9779,-2.9779,-2.9779,-2.9779,-2.9741,-2.9578,-2.9227,-2.9126,-2.9126,-2.9076,-2.8674,-2.8185,-2.7783,-2.7607,-2.7256,-2.6892,-2.6785,-2.6666,-2.6571,-2.6521,-2.6471,-2.6433,-2.6508,-2.6508,-2.6508,-2.6389,-2.6151,-2.5857,-2.5473,-2.517,-2.5106,-2.5194,-2.5378,-2.5832,-2.6395,-2.6458,-2.6533,-2.6395,-2.6345,-2.6458,-2.6553,-2.6521,-2.6514,-2.6671,-2.7005,-2.7281,-2.7519,-2.7745,-3.9386,-3.935,-3.8891,-3.8707,-3.8707,-3.8707,-3.8707,-3.8504,-3.7769,-3.7112,-3.6569,-3.5767,-3.5153,-3.4692,-3.4692,-3.4692,-3.4624,-3.4235,-3.4049,-3.3914,-3.3288,-3.2747,-3.2374,-3.2297,-3.1901,-3.1258,-3.119,-3.119,-3.119,-3.119,-3.119,-3.119,-3.119,-3.119,-3.1151,-3.0293,-2.9629,-2.9271,-2.8463,-2.8087,-2.8195,-2.8472,-2.8757,-2.919,-2.94,-2.9879,-3.0477,-3.0896,-3.121,-3.1246,-3.0777,-3.0147,-2.9704,-2.8492,-2.7537,-2.7255,-2.7246,-2.7457,-2.777,-2.8273,-2.8712,-2.9051,-2.9252,-2.9415,-2.9478,-2.9616,-2.9779,-2.9779,-2.9779,-2.9666,-2.9428,-2.9239,-2.8938,-2.8624,-2.8386,-2.8348,-2.8536,-2.8097,-2.767,-2.7331,-2.7067,-2.6841,-2.6546,-2.6533,-2.6521,-2.6521,-2.6521,-2.6357,-2.6138,-2.6289,-2.6251,-2.6063,-2.6118,-2.5971,-2.5485,-2.4987,-2.4772,-2.4693,-2.4618,-2.4791,-2.5128,-2.5824,-2.5963,-2.5975,-2.6038,-2.6219,-2.6345,-2.6458,-2.649,-2.6515,-2.6465,-2.6609,-2.6854,-2.7067,-2.7293,-3.8707,-3.8707,-3.8707,-3.8707,-3.8707,-3.8707,-3.8615,-3.8303,-3.7316,-3.6466,-3.5757,-3.4617,-3.4088,-3.3389,-3.3677,-3.3474,-3.3491,-3.3372,-3.3186,-3.2933,-3.2476,-3.2087,-3.207,-3.2059,-3.1732,-3.1258,-3.119,-3.119,-3.119,-3.119,-3.119,-3.119,-3.119,-3.119,-3.1055,-3.0559,-2.9995,-2.9406,-2.8732,-2.8107,-2.7906,-2.8128,-2.8397,-2.8532,-2.9101,-2.9579,-3.0073,-3.0447,-3.0806,-3.139,-3.0659,-2.995,-2.9129,-2.8168,-2.7351,-2.6845,-2.6936,-2.7168,-2.7356,-2.7795,-2.8097,-2.8285,-2.8649,-2.8825,-2.8913,-2.9189,-2.9415,-2.9402,-2.9603,-2.9264,-2.89,-2.8423,-2.8185,-2.8021,-2.7595,-2.7582,-2.7708,-2.7494,-2.7193,-2.718,-2.6741,-2.6584,-2.6521,-2.6521,-2.6496,-2.6138,-2.6138,-2.5937,-2.5749,-2.5737,-2.5536,-2.5209,-2.5428,-2.5724,-2.5136,-2.4618,-2.4493,-2.433,-2.423,-2.4317,-2.4405,-2.487,-2.5159,-2.5347,-2.5636,-2.5912,-2.6219,-2.6332,-2.642,-2.6521,-2.6521,-2.6521,-2.6584,-2.6653,-2.6841,-3.8707,-3.8707,-3.8707,-3.8707,-3.8707,-3.8689,-3.8322,-3.7686,-3.7039,-3.607,-3.5119,-3.4394,-3.3837,-3.3339,-3.3254,-3.3389,-3.3186,-3.2747,-3.2239,-3.1664,-3.1546,-3.1427,-3.1444,-3.1478,-3.136,-3.119,-3.119,-3.119,-3.119,-3.119,-3.119,-3.119,-3.119,-3.119,-3.1095,-3.0601,-3.0038,-2.9406,-2.8826,-2.8238,-2.771,-2.7709,-2.7859,-2.7904,-2.8472,-2.8831,-2.919,-2.9983,-3.0552,-3.0622,-3.047,-3.0011,-2.9129,-2.8247,-2.7417,-2.6807,-2.6634,-2.6911,-2.7193,-2.7394,-2.7645,-2.7984,-2.8134,-2.8285,-2.8285,-2.8411,-2.8511,-2.8486,-2.8473,-2.8486,-2.8285,-2.8185,-2.7858,-2.7507,-2.7318,-2.713,-2.6904,-2.681,-2.6773,-2.671,-2.6634,-2.6521,-2.6521,-2.6402,-2.6251,-2.5912,-2.5674,-2.5511,-2.5347,-2.5209,-2.4921,-2.4594,-2.472,-2.4987,-2.4507,-2.4042,-2.3954,-2.3891,-2.3816,-2.3841,-2.3929,-2.4155,-2.4544,-2.4958,-2.536,-2.5598,-2.5737,-2.6088,-2.6176,-2.6314,-2.6445,-2.6408,-2.6357,-2.642,-2.6452,-3.8707,-3.8652,-3.8303,-3.8138,-3.8083,-3.7734,-3.7331,-3.6861,-3.6225,-3.5335,-3.4321,-3.367,-3.2997,-3.2415,-3.2374,-3.2357,-3.229,-3.1985,-3.1579,-3.1275,-3.1207,-3.1207,-3.119,-3.119,-3.119,-3.119,-3.119,-3.119,-3.119,-3.119,-3.119,-3.119,-3.119,-3.119,-3.1112,-3.0617,-2.9995,-2.9406,-2.8826,-2.8238,-2.771,-2.756,-2.756,-2.759,-2.7949,-2.8233,-2.8682,-2.9535,-3.0148,-3.0455,-3.0703,-3.045,-2.9628,-2.8812,-2.792,-2.7229,-2.704,-2.6952,-2.7025,-2.6917,-2.7005,-2.7331,-2.7544,-2.7695,-2.7821,-2.7934,-2.8109,-2.8109,-2.8109,-2.8047,-2.7745,-2.7406,-2.7168,-2.7005,-2.6904,-2.6836,-2.6596,-2.6521,-2.6521,-2.6521,-2.6533,-2.6521,-2.6496,-2.6264,-2.5988,-2.5624,-2.5247,-2.5059,-2.4795,-2.4632,-2.4393,-2.4142,-2.4217,-2.4129,-2.3716,-2.3466,-2.3329,-2.3353,-2.3353,-2.3389,-2.3427,-2.3715,-2.4042,-2.4418,-2.477,-2.4971,-2.5159,-2.5548,-2.5787,-2.5649,-2.5661,-2.59,-2.6101,-2.6151,-2.6302,-3.8524,-3.845,-3.7643,-3.7323,-3.7202,-3.6615,-3.6285,-3.5991,-3.517,-3.433,-3.3504,-3.2682,-3.1992,-3.1397,-3.1309,-3.1224,-3.1241,-3.1275,-3.1224,-3.1207,-3.119,-3.119,-3.119,-3.119,-3.119,-3.119,-3.119,-3.119,-3.119,-3.119,-3.119,-3.119,-3.119,-3.119,-3.1055,-3.0617,-2.9978,-2.9406,-2.8779,-2.8189,-2.771,-2.756,-2.756,-2.759,-2.7634,-2.7889,-2.8368,-2.9041,-2.9684,-3.0342,-3.0887,-3.0808,-3.0329,-2.9642,-2.8684,-2.7789,-2.7604,-2.7255,-2.6721,-2.6584,-2.6596,-2.6546,-2.6866,-2.713,-2.7256,-2.7469,-2.7632,-2.7733,-2.7682,-2.7557,-2.718,-2.6892,-2.6603,-2.649,-2.6546,-2.6521,-2.6521,-2.6521,-2.6521,-2.6521,-2.6508,-2.6483,-2.6163,-2.5925,-2.5636,-2.5322,-2.4933,-2.4582,-2.4293,-2.4067,-2.3853,-2.3666,-2.3729,-2.3741,-2.3378,-2.2924,-2.28,-2.286,-2.2932,-2.2957,-2.3017,-2.3351,-2.3653,-2.3791,-2.4067,-2.433,-2.4632,-2.4983,-2.5071,-2.4895,-2.5059,-2.5398,-2.5661,-2.5912,-2.6131,-3.7679,-3.7624,-3.6817,-3.6486,-3.6468,-3.6321,-3.5826,-3.5143,-3.4326,-3.3463,-3.268,-3.1819,-3.1466,-3.123,-3.119,-3.119,-3.119,-3.119,-3.119,-3.119,-3.119,-3.119,-3.119,-3.119,-3.119,-3.119,-3.119,-3.119,-3.119,-3.119,-3.119,-3.119,-3.119,-3.119,-3.1015,-3.0601,-2.9978,-2.9406,-2.8826,-2.8189,-2.776,-2.756,-2.756,-2.756,-2.756,-2.7664,-2.7859,-2.8427,-2.9056,-2.9645,-2.9679,-2.9958,-3.023,-3.0165,-2.9317,-2.8182,-2.7868,-2.7537,-2.6769,-2.6589,-2.6521,-2.6559,-2.6672,-2.6697,-2.6666,-2.6798,-2.6929,-2.6879,-2.6854,-2.6741,-2.6628,-2.6596,-2.6546,-2.6521,-2.6521,-2.6496,-2.6483,-2.6377,-2.6327,-2.6226,-2.6345,-2.6214,-2.5812,-2.5344,-2.4981,-2.4643,-2.4343,-2.3979,-2.3678,-2.3514,-2.3376,-2.3228,-2.319,-2.3203,-2.3115,-2.2604,-2.2333,-2.2457,-2.2494,-2.2665,-2.2787,-2.3017,-2.3276,-2.3464,-2.3678,-2.3954,-2.423,-2.4443,-2.4519,-2.4469,-2.4682,-2.4933,-2.5096,-2.5272,-2.5693,-3.6872,-3.6798,-3.5973,-3.5624,-3.555,-3.5165,-3.478,-3.4358,-3.3923,-3.3293,-3.2573,-3.2056,-3.16,-3.1291,-3.119,-3.119,-3.119,-3.119,-3.119,-3.119,-3.119,-3.119,-3.119,-3.119,-3.119,-3.119,-3.119,-3.1157,-3.119,-3.119,-3.1173,-3.119,-3.119,-3.119,-3.1055,-3.0601,-2.9978,-2.9406,-2.8779,-2.8174,-2.766,-2.756,-2.756,-2.756,-2.756,-2.756,-2.776,-2.8233,-2.8727,-2.9137,-2.9637,-3.0043,-3.0309,-3.0454,-3.0058,-2.8657,-2.8285,-2.7986,-2.7284,-2.7108,-2.6973,-2.6521,-2.6521,-2.6521,-2.6521,-2.6559,-2.6521,-2.6521,-2.6521,-2.6521,-2.6546,-2.6521,-2.6521,-2.6521,-2.6496,-2.6302,-2.6113,-2.6038,-2.59,-2.5762,-2.5749,-2.5573,-2.5169,-2.4768,-2.4304,-2.3954,-2.3691,-2.3464,-2.3103,-2.3078,-2.3065,-2.2823,-2.2775,-2.2616,-2.2592,-2.2231,-2.1393,-2.1424,-2.1892,-2.2063,-2.2469,-2.2689,-2.2944,-2.3213,-2.3427,-2.364,-2.3602,-2.3728,-2.3879,-2.4054,-2.4217,-2.4356,-2.4469,-2.4644,-2.5037,-3.6028,-3.5973,-3.511,-3.4752,-3.4669,-3.4082,-3.3789,-3.3662,-3.3541,-3.3045,-3.2417,-3.2179,-3.1787,-3.1312,-3.119,-3.119,-3.119,-3.119,-3.119,-3.119,-3.119,-3.119,-3.119,-3.1173,-3.1106,-3.0835,-3.0869,-3.097,-3.0937,-3.1106,-3.1123,-3.1021,-3.1038,-3.119,-3.1055,-3.0435,-2.9908,-2.9361,-2.8638,-2.8042,-2.771,-2.756,-2.756,-2.756,-2.756,-2.7509,-2.7365,-2.7684,-2.7963,-2.8351,-2.8946,-2.9635,-2.9709,-3.0338,-3.0001,-2.8927,-2.8856,-2.8492,-2.7934,-2.7364,-2.6973,-2.6533,-2.6521,-2.6521,-2.6521,-2.6521,-2.6521,-2.6521,-2.6521,-2.6521,-2.6521,-2.6521,-2.6521,-2.6483,-2.6382,-2.6126,-2.5774,-2.5511,-2.5184,-2.5109,-2.5069,-2.4893,-2.4568,-2.4494,-2.4079,-2.3704,-2.3439,-2.3389,-2.3078,-2.3078,-2.3005,-2.2567,-2.2273,-2.2035,-2.193,-2.1818,-2.0707,-1.9786,-2.0419,-2.0894,-2.1631,-2.2298,-2.2604,-2.2919,-2.3163,-2.3314,-2.3163,-2.3125,-2.3389,-2.3602,-2.369,-2.3778,-2.3853,-2.3929,-2.4154,-3.5137,-3.5082,-3.4284,-3.3954,-3.3954,-3.3862,-3.3625,-3.3273,-3.2934,-3.2366,-3.2004,-3.1582,-3.1406,-3.123,-3.119,-3.119,-3.119,-3.119,-3.119,-3.119,-3.119,-3.119,-3.119,-3.119,-3.0818,-3.0497,-3.0328,-3.0226,-3.0243,-3.0683,-3.0768,-3.0446,-3.0717,-3.1157,-3.0943,-3.007,-2.9496,-2.921,-2.8304,-2.771,-2.7625,-2.756,-2.756,-2.756,-2.7575,-2.7408,-2.693,-2.703,-2.6953,-2.6905,-2.7369,-2.7335,-2.6952,-2.7605,-2.7688,-2.7739,-2.8089,-2.8634,-2.7789,-2.7229,-2.685,-2.6589,-2.6521,-2.6521,-2.6521,-2.6521,-2.6521,-2.6521,-2.6521,-2.6521,-2.6521,-2.6521,-2.6521,-2.6264,-2.6025,-2.5774,-2.546,-2.4996,-2.4669,-2.433,-2.4255,-2.4255,-2.4067,-2.4004,-2.3941,-2.3489,-2.3128,-2.309,-2.3005,-2.2944,-2.2555,-2.199,-2.1439,-2.1129,-2.1005,-2.0969,-2.0085,-1.8633,-1.9115,-1.9932,-2.1032,-2.1892,-2.2323,-2.264,-2.2919,-2.3125,-2.3125,-2.3125,-2.3125,-2.3213,-2.3401,-2.3339,-2.3238,-2.3341,-2.3529,-3.4339,-3.4284,-3.3935,-3.3807,-3.3807,-3.3807,-3.3707,-3.3494,-3.3075,-3.2648,-3.2179,-3.1768,-3.1445,-3.123,-3.119,-3.119,-3.119,-3.1173,-3.119,-3.114,-3.114,-3.114,-3.119,-3.1157,-3.0801,-3.0176,-2.9973,-2.9465,-2.9414,-2.9499,-2.9736,-2.9617,-2.982,-3.0142,-3.0482,-2.9741,-2.9405,-2.9037,-2.8304,-2.766,-2.756,-2.756,-2.756,-2.756,-2.756,-2.7357,-2.7034,-2.6683,-2.6504,-2.6564,-2.7004,-2.7258,-2.7381,-2.8316,-2.9237,-2.9137,-2.9412,-2.9101,-2.7934,-2.7338,-2.6973,-2.6589,-2.6521,-2.6521,-2.6521,-2.6521,-2.6521,-2.6521,-2.6521,-2.6521,-2.6521,-2.6521,-2.6239,-2.6013,-2.5724,-2.5209,-2.4895,-2.4569,-2.418,-2.3816,-2.354,-2.3602,-2.364,-2.359,-2.3552,-2.3376,-2.3103,-2.309,-2.2823,-2.2567,-2.2002,-2.1239,-2.0624,-2.0151,-2.0019,-1.9918,-1.9312,-1.8221,-1.8228,-1.9209,-2.0565,-2.1381,-2.1773,-2.2457,-2.2992,-2.3125,-2.3125,-2.3125,-2.3125,-2.3125,-2.3138,-2.3125,-2.3125,-2.3103,-2.3378,-3.3807,-3.3807,-3.3807,-3.3697,-3.355,-3.3715,-3.3588,-3.3286,-3.3094,-3.2745,-3.2316,-3.1877,-3.1483,-3.1269,-3.119,-3.119,-3.119,-3.1021,-3.0937,-3.0886,-3.0734,-3.0565,-3.0463,-3.048,-3.0159,-2.9567,-2.9313,-2.8721,-2.8112,-2.8095,-2.8484,-2.8704,-2.9143,-2.9391,-2.9605,-2.9328,-2.8962,-2.867,-2.8042,-2.7625,-2.756,-2.756,-2.7458,-2.7357,-2.7321,-2.7188,-2.6745,-2.6215,-2.5906,-2.5578,-2.6033,-2.615,-2.6238,-2.7477,-2.8231,-2.8201,-2.8251,-2.8165,-2.7471,-2.7181,-2.7191,-2.6769,-2.6521,-2.6521,-2.6521,-2.6521,-2.6521,-2.6521,-2.6521,-2.6521,-2.6521,-2.6521,-2.6189,-2.5837,-2.546,-2.4808,-2.423,-2.3991,-2.3791,-2.3527,-2.3314,-2.3251,-2.3263,-2.3201,-2.3163,-2.315,-2.3078,-2.3017,-2.2567,-2.2063,-2.1239,-2.0398,-1.9683,-1.9198,-1.9127,-1.8822,-1.8154,-1.8045,-1.8058,-1.8754,-2.0242,-2.0711,-2.085,-2.1728,-2.287,-2.3125,-2.3125,-2.3125,-2.3125,-2.3125,-2.3125,-2.3125,-2.3125,-2.3125,-2.3188,-3.3807,-3.3807,-3.377,-3.3366,-3.2816,-3.3495,-3.3141,-3.234,-3.2474,-3.2228,-3.1721,-3.1414,-3.115,-3.1055,-3.0937,-3.097,-3.1089,-3.048,-3.0243,-2.9939,-2.955,-2.9414,-2.9414,-2.933,-2.8941,-2.8262,-2.8262,-2.7791,-2.7029,-2.7097,-2.7469,-2.7891,-2.8528,-2.9025,-2.9132,-2.8858,-2.8389,-2.814,-2.766,-2.7625,-2.756,-2.7458,-2.7255,-2.6721,-2.651,-2.6,-2.4681,-2.4738,-2.4496,-2.4002,-2.4517,-2.4622,-2.4872,-2.6126,-2.6644,-2.635,-2.6796,-2.6774,-2.6479,-2.6828,-2.7165,-2.6769,-2.6521,-2.6521,-2.6521,-2.6521,-2.6521,-2.6521,-2.6521,-2.6402,-2.6414,-2.6445,-2.6025,-2.5435,-2.4946,-2.4494,-2.3941,-2.354,-2.3339,-2.3188,-2.3125,-2.3125,-2.3125,-2.3125,-2.3125,-2.3125,-2.2689,-2.2567,-2.1803,-2.1239,-2.0409,-1.9562,-1.868,-1.8307,-1.8202,-1.8017,-1.7994,-1.8115,-1.8127,-1.9028,-2.0262,-2.0387,-2.0665,-2.1704,-2.2927,-2.3062,-2.3125,-2.3125,-2.3125,-2.3125,-2.3125,-2.3125,-2.3125,-2.3125,-2.3125,-3.2761,-3.232,-3.232,-3.2724,-3.3275,-3.2614,-3.2228,-3.2047,-3.1827,-3.1376,-3.0782,-3.0573,-3.026,-2.9973,-2.9875,-2.9837,-2.9803,-2.9583,-2.9448,-2.9381,-2.911,-2.9028,-2.9011,-2.8772,-2.8619,-2.7908,-2.7722,-2.7418,-2.6793,-2.6708,-2.6793,-2.7314,-2.8009,-2.8322,-2.8404,-2.8458,-2.813,-2.776,-2.756,-2.756,-2.7509,-2.7086,-2.6774,-2.6563,-2.596,-2.5618,-2.5021,-2.4509,-2.4163,-2.3949,-2.4038,-2.3888,-2.3896,-2.5276,-2.5627,-2.5296,-2.6009,-2.6166,-2.5845,-2.6258,-2.6362,-2.662,-2.6521,-2.6521,-2.6521,-2.6521,-2.6521,-2.6521,-2.6483,-2.6314,-2.5963,-2.5875,-2.5586,-2.4883,-2.4406,-2.4079,-2.3703,-2.3288,-2.3163,-2.3138,-2.3125,-2.3125,-2.3125,-2.3125,-2.3125,-2.3065,-2.2628,-2.2063,-2.1302,-2.0504,-1.9651,-1.8899,-1.8118,-1.7773,-1.7726,-1.7876,-1.8001,-1.8072,-1.8216,-1.919,-2.0189,-2.0938,-2.1308,-2.2283,-2.2815,-2.2902,-2.2965,-2.304,-2.3125,-2.3125,-2.3125,-2.3125,-2.3125,-2.3125,-2.3125,-3.1916,-3.1384,-3.1127,-3.1678,-3.254,-3.177,-3.137,-3.1271,-3.1092,-3.0524,-2.9807,-2.9736,-2.9499,-2.9076,-2.9045,-2.9079,-2.9062,-2.8805,-2.867,-2.8518,-2.8366,-2.826,-2.8138,-2.7931,-2.7576,-2.7326,-2.7278,-2.689,-2.6708,-2.6708,-2.664,-2.6756,-2.7207,-2.7628,-2.785,-2.8042,-2.7993,-2.771,-2.756,-2.756,-2.7509,-2.693,-2.6297,-2.6068,-2.5467,-2.4838,-2.4496,-2.3989,-2.3884,-2.378,-2.3878,-2.391,-2.4308,-2.49,-2.552,-2.571,-2.59,-2.6061,-2.5615,-2.5665,-2.5737,-2.6063,-2.6402,-2.6427,-2.6521,-2.6521,-2.6521,-2.6496,-2.6327,-2.6025,-2.5561,-2.5485,-2.5084,-2.4431,-2.4243,-2.3941,-2.3527,-2.315,-2.3138,-2.3125,-2.3125,-2.3125,-2.3125,-2.3065,-2.304,-2.2932,-2.2445,-2.1803,-2.0974,-2.0095,-1.9117,-1.839,-1.7625,-1.7473,-1.7453,-1.7625,-1.7789,-1.7782,-1.8102,-1.9037,-1.9996,-2.0688,-2.134,-2.1902,-2.2347,-2.2664,-2.284,-2.2924,-2.3025,-2.3125,-2.3125,-2.3125,-2.3125,-2.3125,-2.3125,-3.1384,-3.1292,-3.054,-3.0283,-3.0522,-3.1091,-3.075,-2.9944,-2.9993,-2.9708,-2.9064,-2.8991,-2.8924,-2.8772,-2.8638,-2.8586,-2.8484,-2.8078,-2.7841,-2.774,-2.7402,-2.6738,-2.6547,-2.6474,-2.6783,-2.6201,-2.6324,-2.6604,-2.6708,-2.6708,-2.6487,-2.6391,-2.6813,-2.7206,-2.728,-2.75,-2.758,-2.756,-2.756,-2.756,-2.7306,-2.6721,-2.6068,-2.5412,-2.4681,-2.4047,-2.3649,-2.3471,-2.3365,-2.3365,-2.3365,-2.3365,-2.3463,-2.4008,-2.4191,-2.3684,-2.4191,-2.4346,-2.4178,-2.5061,-2.546,-2.5724,-2.6101,-2.6327,-2.6483,-2.6521,-2.6433,-2.6276,-2.5988,-2.5674,-2.5398,-2.5109,-2.4531,-2.4104,-2.3904,-2.374,-2.3326,-2.3125,-2.3125,-2.3125,-2.3125,-2.3125,-2.3125,-2.3065,-2.2967,-2.2774,-2.231,-2.153,-2.0628,-1.9695,-1.8668,-1.7851,-1.7178,-1.699,-1.6996,-1.744,-1.7655,-1.7563,-1.7903,-1.8837,-1.9518,-2.0141,-2.0795,-2.1381,-2.1845,-2.2189,-2.2451,-2.2723,-2.2874,-2.3037,-2.3113,-2.3125,-2.3125,-2.3125,-2.3125,-3.0301,-2.9806,-2.9507,-2.942,-2.9434,-2.9677,-2.9584,-2.9223,-2.8818,-2.8442,-2.8232,-2.8213,-2.7892,-2.7621,-2.7554,-2.7571,-2.7469,-2.7351,-2.7063,-2.7063,-2.6793,-2.6674,-2.6436,-2.635,-2.6401,-2.6436,-2.647,-2.6436,-2.6708,-2.6708,-2.6657,-2.6586,-2.6363,-2.6837,-2.7264,-2.7537,-2.761,-2.756,-2.7575,-2.7357,-2.6878,-2.6162,-2.5453,-2.4738,-2.406,-2.3424,-2.3125,-2.3125,-2.3125,-2.3125,-2.3125,-2.3125,-2.3125,-2.359,-2.3424,-2.3138,-2.3543,-2.3488,-2.354,-2.4155,-2.4883,-2.5347,-2.5774,-2.6101,-2.6433,-2.6508,-2.6345,-2.5988,-2.5711,-2.5285,-2.4644,-2.4443,-2.3991,-2.3552,-2.3364,-2.3351,-2.315,-2.3138,-2.3125,-2.3125,-2.3125,-2.3125,-2.3125,-2.2842,-2.278,-2.2309,-2.1801,-2.1058,-2.0149,-1.9264,-1.8328,-1.741,-1.6709,-1.6524,-1.6582,-1.695,-1.684,-1.6487,-1.7275,-1.8385,-1.9077,-1.9812,-2.0318,-2.0941,-2.1355,-2.1688,-2.2008,-2.2309,-2.2711,-2.2924,-2.2862,-2.3,-2.3125,-2.3125,-2.3125,-2.9568,-2.9017,-2.8975,-2.8975,-2.8975,-2.8975,-2.8909,-2.8558,-2.7822,-2.7435,-2.7435,-2.7418,-2.7215,-2.6826,-2.6708,-2.6708,-2.6708,-2.6708,-2.6708,-2.6708,-2.6708,-2.6556,-2.647,-2.647,-2.6332,-2.6487,-2.6487,-2.647,-2.6708,-2.6708,-2.6436,-2.6072,-2.5847,-2.5882,-2.6382,-2.672,-2.7385,-2.7425,-2.7575,-2.7473,-2.6811,-2.6108,-2.5245,-2.461,-2.3872,-2.3125,-2.3125,-2.3125,-2.3125,-2.3125,-2.3125,-2.3245,-2.3305,-2.3245,-2.3305,-2.3365,-2.3198,-2.3198,-2.3301,-2.3439,-2.4167,-2.4845,-2.5297,-2.5862,-2.6382,-2.6508,-2.6126,-2.5799,-2.5473,-2.4858,-2.4205,-2.3979,-2.3577,-2.309,-2.3078,-2.315,-2.315,-2.3138,-2.3125,-2.3125,-2.3125,-2.3125,-2.299,-2.2718,-2.2424,-2.1872,-2.1272,-2.0419,-1.9516,-1.8657,-1.7842,-1.6947,-1.6351,-1.6169,-1.6135,-1.6396,-1.6087,-1.5517,-1.6874,-1.8581,-1.9126,-1.9912,-2.0204,-2.0439,-2.084,-2.1217,-2.1518,-2.1845,-2.2159,-2.2334,-2.2347,-2.2598,-2.3025,-2.3088,-2.305,-2.9265,-2.8998,-2.8975,-2.8975,-2.8975,-2.8929,-2.8525,-2.7876,-2.7117,-2.6775,-2.6742,-2.6793,-2.6759,-2.6725,-2.6708,-2.6708,-2.6708,-2.6708,-2.6708,-2.6657,-2.6624,-2.6367,-2.6191,-2.6085,-2.6156,-2.6085,-2.6156,-2.647,-2.6657,-2.6556,-2.6087,-2.5355,-2.4973,-2.5026,-2.5364,-2.5871,-2.6647,-2.6961,-2.7111,-2.6905,-2.6387,-2.583,-2.5121,-2.4429,-2.3754,-2.3185,-2.3125,-2.3125,-2.3125,-2.3125,-2.3125,-2.3531,-2.3708,-2.3471,-2.3767,-2.3767,-2.3365,-2.3185,-2.315,-2.3251,-2.3565,-2.4293,-2.4933,-2.5674,-2.6113,-2.6176,-2.5799,-2.5423,-2.5046,-2.4531,-2.4017,-2.3627,-2.3238,-2.3138,-2.3138,-2.3138,-2.3138,-2.3125,-2.3125,-2.3125,-2.3125,-2.3075,-2.2899,-2.2568,-2.2114,-2.1076,-2.0346,-1.9338,-1.8523,-1.7903,-1.7113,-1.6466,-1.5937,-1.583,-1.59,-1.6209,-1.6686,-1.6498,-1.7934,-1.9478,-1.9809,-1.9828,-2.001,-2.0175,-2.0401,-2.0715,-2.1104,-2.133,-2.1493,-2.1644,-2.187,-2.2246,-2.2686,-2.2874,-2.2899,-2.9246,-2.9017,-2.8975,-2.8975,-2.8929,-2.8456,-2.8093,-2.784,-2.7317,-2.6987,-2.6708,-2.6708,-2.6708,-2.6708,-2.6708,-2.6708,-2.6708,-2.6708,-2.6708,-2.6624,-2.647,-2.6191,-2.6085,-2.6049,-2.6013,-2.612,-2.6297,-2.6505,-2.6539,-2.6436,-2.5672,-2.4735,-2.4502,-2.4498,-2.4657,-2.4955,-2.557,-2.6048,-2.6243,-2.607,-2.5718,-2.5031,-2.4475,-2.3864,-2.3505,-2.3125,-2.3125,-2.3125,-2.3125,-2.3125,-2.3125,-2.3305,-2.3318,-2.3185,-2.3305,-2.3352,-2.3185,-2.3125,-2.3125,-2.3125,-2.3351,-2.3803,-2.4318,-2.4933,-2.541,-2.5561,-2.5297,-2.4971,-2.4632,-2.4142,-2.3728,-2.3339,-2.3125,-2.3125,-2.3125,-2.3125,-2.3125,-2.3125,-2.3125,-2.3125,-2.3125,-2.2937,-2.2749,-2.2447,-2.1828,-2.049,-1.9367,-1.8416,-1.7595,-1.7059,-1.6558,-1.593,-1.5693,-1.5625,-1.6075,-1.6399,-1.7151,-1.7835,-1.9012,-1.9784,-1.9818,-1.9834,-1.9823,-1.9911,-2.0125,-2.0413,-2.0765,-2.0903,-2.0941,-2.133,-2.1594,-2.197,-2.2297,-2.2498,-2.2736,-2.9312,-2.8998,-2.8975,-2.8975,-2.8887,-2.836,-2.802,-2.7823,-2.7303,-2.6906,-2.6725,-2.6708,-2.6708,-2.6708,-2.6708,-2.6708,-2.6708,-2.6708,-2.6708,-2.6624,-2.6367,-2.6383,-2.6297,-2.6262,-2.6297,-2.6401,-2.6487,-2.6657,-2.6505,-2.598,-2.5221,-2.4816,-2.4415,-2.4149,-2.4206,-2.4268,-2.4418,-2.4911,-2.5176,-2.5034,-2.4725,-2.4332,-2.3886,-2.3309,-2.3103,-2.3062,-2.3088,-2.3088,-2.3113,-2.3125,-2.3125,-2.3305,-2.3424,-2.359,-2.3305,-2.3305,-2.3125,-2.3125,-2.3125,-2.3125,-2.3351,-2.3552,-2.3703,-2.413,-2.4619,-2.4908,-2.4732,-2.4494,-2.4167,-2.3828,-2.3452,-2.3125,-2.3125,-2.3125,-2.3125,-2.3125,-2.3125,-2.3125,-2.3125,-2.3125,-2.3,-2.2799,-2.2548,-2.2209,-2.1448,-2.0097,-1.8883,-1.7878,-1.7073,-1.643,-1.6098,-1.5635,-1.5508,-1.5459,-1.5992,-1.654,-1.7344,-1.8109,-1.9095,-1.9664,-1.9759,-1.9798,-1.9798,-1.9798,-1.9836,-2.0125,-2.0388,-2.0338,-2.0401,-2.0778,-2.1004,-2.1142,-2.1556,-2.2133,-2.2397,-2.9304,-2.8865,-2.8957,-2.8975,-2.8929,-2.854,-2.821,-2.7823,-2.7147,-2.6758,-2.6725,-2.6708,-2.6708,-2.6708,-2.6708,-2.6708,-2.6657,-2.6624,-2.6521,-2.6624,-2.6315,-2.6245,-2.6297,-2.659,-2.6367,-2.6556,-2.6624,-2.6573,-2.628,-2.5746,-2.5205,-2.5051,-2.4158,-2.3743,-2.3744,-2.3774,-2.3894,-2.4073,-2.4505,-2.463,-2.4355,-2.4194,-2.3974,-2.3227,-2.2981,-2.2899,-2.2949,-2.294,-2.3002,-2.3062,-2.3173,-2.3458,-2.3767,-2.3943,-2.3603,-2.3365,-2.3125,-2.3125,-2.3125,-2.3125,-2.3125,-2.3188,-2.3163,-2.3514,-2.3966,-2.4243,-2.4104,-2.4142,-2.3891,-2.3602,-2.3251,-2.3138,-2.3125,-2.3125,-2.3125,-2.3125,-2.3125,-2.3125,-2.3125,-2.3075,-2.2874,-2.2636,-2.2121,-2.1769,-2.1149,-1.9763,-1.8539,-1.7467,-1.6874,-1.6202,-1.574,-1.542,-1.542,-1.5468,-1.5816,-1.6467,-1.7456,-1.8336,-1.9182,-1.9641,-1.9759,-1.9798,-1.9798,-1.9798,-1.9798,-1.9798,-1.9936,-1.9962,-1.9999,-2.0062,-2.0238,-2.0213,-2.069,-2.1331,-2.2026,-2.8327,-2.8154,-2.876,-2.8975,-2.8952,-2.8565,-2.821,-2.7869,-2.7396,-2.697,-2.6758,-2.6691,-2.6708,-2.6708,-2.6708,-2.6691,-2.6624,-2.635,-2.6175,-2.6016,-2.5855,-2.5855,-2.5709,-2.6068,-2.6191,-2.6297,-2.6367,-2.635,-2.5835,-2.5335,-2.4736,-2.4101,-2.3638,-2.3595,-2.3595,-2.3595,-2.3625,-2.3655,-2.3555,-2.3634,-2.3294,-2.3009,-2.2679,-2.2224,-2.1933,-2.2008,-2.2108,-2.2334,-2.2435,-2.2523,-2.289,-2.3148,-2.3365,-2.3412,-2.3305,-2.3138,-2.3125,-2.3125,-2.3125,-2.3125,-2.3125,-2.3125,-2.315,-2.3213,-2.3351,-2.3416,-2.3602,-2.3703,-2.3653,-2.3376,-2.3128,-2.309,-2.3125,-2.3125,-2.3125,-2.3125,-2.3113,-2.3088,-2.3088,-2.2887,-2.2686,-2.2272,-2.1744,-2.1174,-2.0532,-1.9546,-1.8386,-1.7424,-1.7045,-1.6446,-1.5778,-1.5478,-1.542,-1.5526,-1.5853,-1.6394,-1.7424,-1.8278,-1.9081,-1.9488,-1.9798,-1.9798,-1.9798,-1.9798,-1.9798,-1.9798,-1.9798,-1.9823,-1.9836,-1.9798,-1.9656,-1.9688,-1.9707,-2.0189,-2.1163,-2.7451,-2.7365,-2.8136,-2.8264,-2.8031,-2.8239,-2.8092,-2.7566,-2.7052,-2.6868,-2.6905,-2.6791,-2.6691,-2.6691,-2.6708,-2.6556,-2.6401,-2.6139,-2.5888,-2.5577,-2.5411,-2.5486,-2.5524,-2.5598,-2.6068,-2.6262,-2.647,-2.6315,-2.5615,-2.5221,-2.4736,-2.3991,-2.3794,-2.3595,-2.3595,-2.3595,-2.3595,-2.3551,-2.3009,-2.2573,-2.2332,-2.2115,-2.1836,-2.1352,-2.1317,-2.138,-2.1556,-2.1807,-2.187,-2.197,-2.2209,-2.2523,-2.2682,-2.277,-2.2887,-2.305,-2.3125,-2.3125,-2.3113,-2.3125,-2.3125,-2.3125,-2.3125,-2.3188,-2.3188,-2.3314,-2.3326,-2.3414,-2.3401,-2.3103,-2.3103,-2.3138,-2.3125,-2.3125,-2.3015,-2.299,-2.279,-2.2661,-2.2472,-2.2159,-2.1958,-2.1719,-2.128,-2.1016,-2.041,-1.9853,-1.8632,-1.7852,-1.7357,-1.6866,-1.614,-1.5642,-1.569,-1.5806,-1.614,-1.6645,-1.7379,-1.8228,-1.9032,-1.9423,-1.9798,-1.9798,-1.9798,-1.9798,-1.9798,-1.9798,-1.9798,-1.9798,-1.9798,-1.9798,-1.9527,-1.9226,-1.923,-1.9162,-1.9742,-2.6596,-2.6557,-2.731,-2.7255,-2.6808,-2.7689,-2.7723,-2.7015,-2.646,-2.6457,-2.6757,-2.6529,-2.6571,-2.6674,-2.6657,-2.6367,-2.6068,-2.5835,-2.5577,-2.5221,-2.5051,-2.5089,-2.5243,-2.5449,-2.5835,-2.628,-2.6573,-2.6367,-2.5924,-2.5561,-2.5089,-2.4471,-2.4032,-2.3681,-2.3638,-2.3595,-2.3595,-2.3465,-2.3009,-2.2392,-2.1973,-2.1532,-2.1134,-2.097,-2.0978,-2.1255,-2.1267,-2.1453,-2.1466,-2.1481,-2.1568,-2.1882,-2.2071,-2.2209,-2.241,-2.2611,-2.2849,-2.2887,-2.2915,-2.3002,-2.304,-2.3125,-2.3125,-2.3125,-2.3125,-2.3138,-2.315,-2.315,-2.3138,-2.3125,-2.3125,-2.3125,-2.3125,-2.3125,-2.3002,-2.284,-2.2552,-2.2334,-2.1995,-2.1619,-2.133,-2.1142,-2.0928,-2.0731,-2.0273,-1.9768,-1.9202,-1.8489,-1.7841,-1.7357,-1.6698,-1.6415,-1.6301,-1.6415,-1.6482,-1.6837,-1.7367,-1.8335,-1.915,-1.9527,-1.9798,-1.9798,-1.9798,-1.9798,-1.9798,-1.9798,-1.9798,-1.9798,-1.9798,-1.9695,-1.9631,-1.9307,-1.8792,-1.8677,-1.8439,-2.5663,-2.5715,-2.6484,-2.6722,-2.6609,-2.6874,-2.6681,-2.6285,-2.6104,-2.5879,-2.5623,-2.5518,-2.5737,-2.6674,-2.6708,-2.6401,-2.5855,-2.555,-2.5019,-2.4617,-2.4342,-2.4491,-2.4799,-2.5024,-2.555,-2.6016,-2.6401,-2.6401,-2.6085,-2.5852,-2.5335,-2.443,-2.4364,-2.4048,-2.3595,-2.3595,-2.3551,-2.3421,-2.3009,-2.2406,-2.1724,-2.1247,-2.0614,-2.0335,-2.0049,-2.0125,-2.033,-2.1094,-2.1155,-2.1145,-2.1179,-2.1418,-2.1581,-2.1644,-2.1807,-2.2058,-2.2309,-2.2435,-2.2523,-2.2824,-2.2924,-2.2952,-2.2977,-2.3125,-2.3125,-2.3125,-2.3138,-2.3138,-2.3125,-2.3125,-2.3125,-2.3125,-2.3125,-2.3125,-2.3027,-2.2736,-2.241,-2.2196,-2.1945,-2.1443,-2.0966,-2.0815,-2.0665,-2.0388,-2.0062,-1.9631,-1.9307,-1.8661,-1.8394,-1.7852,-1.7302,-1.7079,-1.6912,-1.6754,-1.6641,-1.6838,-1.7377,-1.8407,-1.9202,-1.9579,-1.9798,-1.9798,-1.9798,-1.9798,-1.9747,-1.9695,-1.9747,-1.9475,-1.9475,-1.9423,-1.9695,-1.9475,-1.8768,-1.8182,-1.7857]},{"header":{"parameterUnit":"m.s-1","parameterCategory":1,"la1":31.0,"la2":29.5877,"lo1":-88.7671,"lo2":-86.6584,"dy":0.0162,"dx":0.0185,"nx":115,"ny":88,"refTime":"2025-08-14T12:00:00:Z","depth":0,"parameterNumber":3,"parameterNumberName":"V-component_of_WINDS"},"data":[0.0,0.0,0.0,0.0,0.0,0.0,0.0,0.0,0.0,0.0,0.0,0.0,0.0,0.0,0.0,0.0,0.0,0.0,0.0,0.0,0.0,0.0,0.0,0.0,0.0,0.0,0.0,0.0,0.0,0.0,0.0,0.0,0.0,0.0,0.0,0.0,0.0,0.0,0.0,0.0,0.0,0.0,0.0,0.0,0.0,0.0,0.0,0.0,0.0,0.0,0.0,0.0,0.0,0.0,0.0,0.0,0.0,0.0,0.0,0.0,0.0,0.0,0.0,0.0,0.0,0.0,0.0,0.0,0.0,0.0,0.0,0.0,0.0,0.0,0.0,0.0,0.0,0.0,0.0,0.0,0.0,0.0,0.0,0.0,0.0,0.0,0.0,0.0,0.0,0.0,0.0,0.0,0.0,0.0,0.0,0.0,0.0,0.0,0.0,0.0,0.0,0.0,0.0,0.0,0.0,0.0,0.0,0.0,0.0,0.0,0.0,0.0,0.0,0.0,0.0,0.0,0.0,0.0,0.0,0.0,0.0,0.0,0.0,0.0,0.0,0.0,0.0,0.0,0.0,0.0,0.0,0.0,0.0,0.0,0.0,0.0,0.0,0.0,0.0,0.0,0.0,0.0,0.0,0.0,0.0,0.0,0.0,0.0,0.0,0.0,0.0,0.0,0.0,0.0,0.0,0.0,0.0,0.0,0.0,0.0,0.0,0.0,0.0,0.0,0.0,0.0,0.0,0.0,0.0,0.0,0.0,0.0,0.0,0.0,0.0,0.0,0.0,0.0,0.0,0.0,0.0,0.0,0.0,0.0,0.0,0.0,0.0,0.0,0.0,0.0,0.0,0.0,0.0,0.0,0.0,0.0,0.0,0.0,0.0,0.0,0.0,0.0,0.0,0.0,0.0,0.0,0.0,0.0,0.0,0.0,0.0,0.0,0.0,0.0,0.0,0.0,0.0,0.0,0.0,0.0,0.0,0.0,0.0,0.0,0.0,0.0,0.0,0.0,0.0,0.0,0.0,0.0,0.0,0.0,0.0,0.0,0.0,0.0,0.0,0.0,0.0,0.0,0.0,0.0,0.0,0.0,0.0,0.0,0.0,0.0,0.0,0.0,0.0,0.0,0.0,0.0,0.0,0.0,0.0,0.0,0.0,0.0,0.0,0.0,0.0,0.0,0.0,0.0,0.0,0.0,0.0,0.0,0.0,0.0,0.0,0.0,0.0,0.0,0.0,0.0,0.0,0.0,0.0,0.0,0.0,0.0,0.0,0.0,0.0,0.0,0.0,0.0,0.0,0.0,0.0,0.0,0.0,0.0,0.0,0.0,0.0,0.0,0.0,0.0,0.0,0.0,0.0,0.0,0.0,0.0,0.0,0.0,0.0,0.0,0.0,0.0,0.0,0.0,0.0,0.0,0.0,0.0,0.0,0.0,0.0,0.0,0.0,0.0,0.0,0.0,0.0,0.0,0.0,0.0,0.0,0.0,0.0,0.0,0.0,0.0,0.0,0.0,0.0,0.0,0.0,0.0,0.0,0.0,0.0,0.0,0.0,0.0,0.0,0.0,0.0,0.0,0.0,0.0,0.0,0.0,0.0,0.0,0.0,0.0,0.0,0.0,0.0,0.0,0.0,0.0,0.0,0.0,0.0,0.0,0.0,0.0,0.0,0.0,0.0,0.0,0.0,0.0,0.0,0.0,0.0,0.0,0.0,0.0,0.0,0.0,0.0,0.0,0.0,0.0,0.0,0.0,0.0,0.0,0.0,0.0,0.0,0.0,0.0,0.0,0.0,0.0,0.0,0.0,0.0,0.0,0.0,0.0,0.0,0.0,0.0,0.0,0.0,0.0,0.0,0.0,0.0,0.0,0.0,0.0,0.0,0.0,0.0,0.0,0.0,0.0,0.0,0.0,0.0,0.0,0.0,0.0,0.0,0.0,0.0,0.0,0.0,0.0,0.0,0.0,0.0,0.0,0.0,0.0,0.0,0.0,0.0,0.0,0.0,0.0,0.0,0.0,0.0,0.0,0.0,0.0,0.0,0.0,0.0,0.0,0.0,0.0,0.0,0.0,0.0,0.0,0.0,0.0,0.0,0.0,0.0,0.0,0.0,0.0,0.0,0.0,0.0,0.0,0.0,0.0,0.0,0.0,0.0,0.0,0.0,0.0,0.0,0.0,0.0,0.0,0.0,0.0,0.0,0.0,0.0,0.0,0.0,0.0,0.0,0.0,0.0,0.0,0.0,0.0,0.0,0.0,0.0,0.0,0.0,0.0,0.0,0.0,0.0,0.0,0.0,0.0,0.0,0.0,0.0,0.0,0.0,0.0,0.0,0.0,0.0,0.0,0.0,0.0,0.0,0.0,0.0,0.0,0.0,0.0,0.0,0.0,0.0,0.0,0.0,0.0,0.0,0.0,0.0,0.0,0.0,0.0,0.0,0.0,0.0,0.0,0.0,0.0,0.0,0.0,0.0,0.0,0.0,0.0,0.0,0.0,0.0,0.0,0.0,0.0,0.0,0.0,0.0,0.0,0.0,0.0,0.0,0.0,0.0,0.0,0.0,0.0,0.0,0.0,0.0,0.0,0.0,0.0,0.0,0.0,0.0,0.0,0.0,0.0,0.0,0.0,0.0,0.0,0.0,0.0,0.0,0.0,0.0,0.0,0.0,0.0,0.0,0.0,0.0,0.0,0.0,0.0,0.0,0.0,0.0,0.0,0.0,0.0,0.0,0.0,0.0,0.0,0.0,0.0,0.0,0.0,0.0,0.0,0.0,0.0,0.0,0.0,0.0,0.0,0.0,0.0,0.0,0.0,0.0,0.0,0.0,0.0,0.0,0.0,0.0,0.0,0.0,0.0,0.0,0.0,0.0,0.0,0.0,0.0,0.0,0.0,0.0,0.0,0.0,0.0,0.0,0.0,0.0,0.0,0.0,0.0,0.0,0.0,0.0,0.0,0.0,0.0,0.0,0.0,0.0,0.0,0.0,0.0,0.0,0.0,0.0,0.0,0.0,0.0,0.0,0.0,0.0,0.0,0.0,0.0,0.0,0.0,0.0,0.0,0.0,0.0,0.0,0.0,0.0,0.0,0.0,0.0,0.0,0.0,0.0,0.0,0.0,0.0,0.0,0.0,0.0,0.0,0.0,0.0,0.0,0.0,0.0,0.0,0.0,0.0,0.0,0.0,0.0,0.0,0.0,0.0,0.0,0.0,0.0,0.0,0.0,0.0,0.0,0.0,0.0,0.0,0.0,0.0,0.0,0.0,0.0,0.0,0.0,0.0,0.0,0.0,0.0,0.0,0.0,0.0,0.0,0.0,0.0,0.0,0.0,0.0,0.0,0.0,0.0,0.0,0.0,0.0,0.0,0.0,0.0,0.0,0.0,0.0,0.0,0.0,0.0,0.0,0.0,0.0,0.0,0.0,0.0,0.0,0.0,0.0,0.0,0.0,0.0,0.0,0.0,0.0,0.0,0.0,0.0,0.0,0.0,0.0,0.0,0.0,0.0,0.0,0.0,0.0,0.0,0.0,0.0,0.0,0.0,0.0,0.0,0.0,0.0,0.0,0.0,0.0,0.0,0.0,0.0,0.0,0.0,0.0,0.0,0.0,0.0,0.0,0.0,0.0,0.0,0.0,0.0,0.0,0.0,0.0,0.0,0.0,0.0,0.0,0.0,0.0,0.0,0.0,0.0,0.0,0.0,0.0,0.0,0.0,0.0,0.0,0.0,0.0,0.0,0.0,0.0,0.0,0.0,0.0,0.0,0.0,0.0,0.0,0.0,0.0,0.0,0.0,0.0,0.0,0.0,0.0,0.0,0.0,0.0,0.0,0.0,0.0,0.0,0.0,0.0,0.0,0.0,0.0,0.0,0.0,0.0,0.0,0.0,0.0,0.0,0.0,0.0,0.0,0.0,0.0,0.0,0.0,0.0,0.0,0.0,0.0,0.0,0.0,0.0,0.0,0.0,0.0,0.0,0.0,0.0,0.0,0.0,0.0,0.0,0.0,0.0,0.0,0.0,0.0,0.0,0.0,0.0,0.0,0.0,0.0,0.0,0.0,0.0,0.0,0.0,0.0,0.0,0.0,0.0,0.0,0.0,0.0,0.0,0.0,0.0,0.0,0.0,0.0,0.0,0.0,0.0,0.0,0.0,0.0,0.0,0.0,0.0,0.0,0.0,0.0,0.0,0.0,0.0,0.0,0.0,0.0,0.0,0.0,0.0,0.0,0.0,0.0,0.0,0.0,0.0,0.0,0.0,0.0,0.0,0.0,-1.0669,0.0,0.0,0.0,0.0,0.0,0.0,0.0,0.0,0.0,0.0,0.0,0.0,0.0,0.0,0.0,0.0,0.0,0.0,0.0,0.0,0.0,0.0,0.0,0.0,0.0,0.0,0.0,0.0,0.0,0.0,0.0,0.0,0.0,0.0,0.0,0.0,0.0,0.0,0.0,0.0,0.0,0.0,0.0,0.0,0.0,0.0,0.0,0.0,0.0,0.0,0.0,0.0,0.0,0.0,0.0,0.0,0.0,0.0,0.0,0.0,0.0,0.0,0.0,0.0,0.0,0.0,0.0,0.0,0.0,0.0,0.0,0.0,0.0,0.0,0.0,0.0,0.0,0.0,0.0,0.0,0.0,0.0,0.0,0.0,0.0,0.0,0.0,0.0,0.0,0.0,0.0,0.0,0.0,0.0,0.0,0.0,0.0,0.0,0.0,0.0,0.0,0.0,0.0,0.0,0.0,0.0,0.0,0.0,0.0,0.0,-0.6756,-0.7328,-0.7538,-0.868,-1.0954,0.0,0.0,0.0,0.0,0.0,0.0,0.0,0.0,0.0,0.0,0.0,0.0,0.0,0.0,0.0,0.0,0.0,0.0,0.0,0.0,0.0,0.0,0.0,0.0,0.0,0.0,0.0,0.0,0.0,0.0,0.0,0.0,0.0,0.0,0.0,0.0,0.0,0.0,0.0,0.0,0.0,0.0,0.0,0.0,0.0,0.0,0.0,0.0,0.0,0.0,0.0,0.0,0.0,0.0,0.0,0.0,0.0,0.0,0.0,0.0,0.0,0.0,0.0,0.0,0.0,0.0,0.0,0.0,0.0,0.0,0.0,0.0,0.0,0.0,0.0,0.0,0.0,0.0,0.0,0.0,0.0,0.0,0.0,0.0,0.0,0.0,0.0,0.0,0.0,0.0,0.0,0.0,0.0,0.0,0.0,0.0,0.0,0.0,0.0,0.0,0.0,0.0,0.0,0.0,0.0,0.0,0.0,0.0,0.0,0.0,0.0,0.0,-0.7896,-0.9291,-1.1388,0.0,0.0,0.0,0.0,0.0,0.0,0.0,0.0,0.0,0.0,0.0,0.0,0.0,0.0,0.0,0.0,0.0,0.0,0.0,0.0,0.0,0.0,0.0,0.0,0.0,0.0,0.0,0.0,0.0,0.0,0.0,0.0,0.0,0.0,0.0,0.0,0.0,0.0,0.0,0.0,0.0,0.0,0.0,0.0,0.0,0.0,0.0,0.0,0.0,0.0,0.0,0.0,0.0,0.0,0.0,0.0,0.0,0.0,0.0,0.0,0.0,0.0,0.0,0.0,0.0,0.0,0.0,0.0,0.0,0.0,0.0,0.0,0.0,0.0,0.0,0.0,0.0,0.0,0.0,0.0,0.0,0.0,0.0,0.0,0.0,0.0,0.0,0.0,0.0,0.0,0.0,0.0,0.0,0.0,0.0,0.0,0.0,0.0,0.0,0.0,0.0,0.0,0.0,0.0,0.0,0.0,0.0,0.0,0.0,0.0,-0.5944,-0.7614,-0.8123,0.0,-1.1916,0.0,0.0,0.0,0.0,0.0,0.0,0.0,0.0,0.0,0.0,0.0,0.0,0.0,0.0,0.0,0.0,0.0,0.0,0.0,0.0,0.0,0.0,0.0,0.0,0.0,0.0,0.0,0.0,0.0,0.0,0.0,0.0,0.0,0.0,0.0,0.0,0.0,0.0,0.0,0.0,0.0,0.0,0.0,0.0,0.0,0.0,0.0,0.0,0.0,0.0,0.0,0.0,0.0,0.0,0.0,0.0,0.0,0.0,0.0,0.0,0.0,0.0,0.0,0.0,0.0,0.0,0.0,0.0,0.0,0.0,0.0,0.0,0.0,0.0,0.0,0.0,0.0,0.0,0.0,0.0,0.0,0.0,0.0,0.0,0.0,0.0,0.0,0.0,0.0,0.0,0.0,0.0,0.0,0.0,0.0,0.0,0.0,0.0,0.0,0.0,0.0,0.0,0.0,0.0,0.0,0.0,0.0,0.0,0.0,0.0,-0.7461,-0.823,-0.9551,-1.085,0.0,0.0,0.0,0.0,0.0,0.0,0.0,0.0,0.0,0.0,0.0,0.0,0.0,0.0,0.0,0.0,0.0,0.0,0.0,0.0,0.0,0.0,0.0,0.0,0.0,0.0,0.0,0.0,0.0,0.0,0.0,0.0,0.0,0.0,0.0,0.0,0.0,0.0,0.0,0.0,0.0,0.0,0.0,0.0,0.0,0.0,0.0,0.0,0.0,0.0,0.0,0.0,0.0,0.0,0.0,0.0,0.0,0.0,0.0,0.0,0.0,0.0,0.0,0.0,0.0,0.0,0.0,0.0,0.0,0.0,0.0,0.0,0.0,0.0,0.0,0.0,0.0,0.0,0.0,0.0,0.0,0.0,0.0,0.0,0.0,0.0,0.0,0.0,0.0,0.0,0.0,0.0,0.0,0.0,0.0,0.0,0.0,0.0,0.0,0.0,0.0,0.0,0.0,0.0,0.0,0.0,0.0,0.0,0.0,0.0,-0.7113,0.0,-0.9317,-1.1176,-1.2216,-1.2257,0.0,0.0,0.0,0.0,0.0,0.0,0.0,0.0,0.0,0.0,0.0,0.0,0.0,0.0,0.0,0.0,0.0,0.0,0.0,0.0,0.0,0.0,0.0,0.0,0.0,0.0,0.0,0.0,0.0,0.0,0.0,0.0,0.0,0.0,0.0,0.0,0.0,0.0,0.0,0.0,0.0,0.0,0.0,0.0,0.0,0.0,0.0,0.0,0.0,0.0,0.0,0.0,0.0,0.0,0.0,0.0,0.0,0.0,0.0,0.0,0.0,0.0,0.0,0.0,0.0,0.0,0.0,0.0,0.0,0.0,0.0,0.0,0.0,0.0,0.0,0.0,0.0,0.0,0.0,0.0,0.0,0.0,0.0,0.0,0.0,0.0,0.0,0.0,0.0,0.0,0.0,0.0,0.0,0.0,0.0,0.0,0.0,0.0,0.0,0.0,0.0,0.0,0.0,0.0,0.0,0.0,0.0,0.0,0.0,-0.6892,-0.8529,-1.0799,-1.2781,-1.3401,0.0,0.0,0.0,0.0,0.0,0.0,0.0,0.0,0.0,0.0,0.0,0.0,0.0,0.0,0.0,0.0,0.0,0.0,0.0,0.0,0.0,0.0,0.0,0.0,0.0,0.0,0.0,0.0,0.0,0.0,0.0,0.0,0.0,0.0,0.0,0.0,0.0,0.0,0.0,0.0,0.0,0.0,0.0,0.0,0.0,0.0,0.0,0.0,0.0,0.0,0.0,0.0,0.0,0.0,0.0,0.0,0.0,0.0,0.0,0.0,0.0,0.0,0.0,0.0,0.0,0.0,0.0,0.0,0.0,0.0,0.0,0.0,0.0,0.0,0.0,0.0,0.0,0.0,0.0,0.0,0.0,0.0,0.0,0.0,0.0,0.0,0.0,0.0,0.0,0.0,0.0,0.0,0.0,0.0,0.0,0.0,0.0,0.0,0.0,0.0,0.0,0.0,0.0,0.0,0.0,0.0,0.0,0.0,0.0,-0.5507,-0.7455,-0.9543,-1.1623,-1.1972,-1.2416,0.0,0.0,0.0,0.0,0.0,0.0,0.0,0.0,0.0,0.0,0.0,0.0,0.0,0.0,0.0,0.0,0.0,0.0,0.0,0.0,0.0,0.0,0.0,0.0,0.0,0.0,0.0,0.0,0.0,0.0,0.0,0.0,0.0,0.0,0.0,0.0,0.0,0.0,0.0,0.0,0.0,0.0,0.0,0.0,0.0,0.0,0.0,0.0,0.0,0.0,0.0,0.0,0.0,0.0,0.0,0.0,0.0,0.0,0.0,0.0,0.0,0.0,0.0,0.0,0.0,0.0,0.0,0.0,0.0,0.0,0.0,0.0,0.0,0.0,0.0,0.0,0.0,0.0,0.0,0.0,0.0,0.0,0.0,0.0,0.0,0.0,0.0,0.0,0.0,0.0,0.0,0.0,0.0,0.0,0.0,0.0,0.0,0.0,0.0,0.0,0.0,0.0,0.0,0.0,0.0,0.0,0.0,0.0,0.0,-0.6776,0.0,-1.051,0.0,-1.187,-1.2048,0.0,0.0,0.0,0.0,0.0,0.0,0.0,0.0,0.0,0.0,0.0,0.0,0.0,0.0,0.0,0.0,0.0,0.0,0.0,0.0,0.0,0.0,0.0,0.0,0.0,0.0,0.0,0.0,0.0,0.0,0.0,0.0,0.0,0.0,0.0,0.0,0.0,0.0,0.0,0.0,0.0,0.0,0.0,0.0,0.0,0.0,0.0,0.0,0.0,0.0,0.0,0.0,0.0,0.0,0.0,0.0,0.0,0.0,0.0,0.0,0.0,0.0,0.0,0.0,0.0,0.0,0.0,0.0,0.0,0.0,0.0,0.0,0.0,0.0,0.0,0.0,0.0,0.0,0.0,0.0,0.0,0.0,0.0,0.0,0.0,0.0,0.0,0.0,0.0,0.0,0.0,0.0,0.0,0.0,0.0,0.0,0.0,0.0,0.0,0.0,0.0,0.0,0.0,0.0,0.0,0.0,0.0,0.0,-0.6792,-0.9921,-1.0305,-1.1288,-1.3088,-1.2866,-1.2586,0.0,0.0,0.0,0.0,0.0,0.0,0.0,0.0,0.0,0.0,0.0,0.0,0.0,0.0,0.0,0.0,0.0,0.0,0.0,0.0,0.0,0.0,0.0,0.0,0.0,0.0,0.0,0.0,0.0,0.0,0.0,0.0,0.0,0.0,0.0,0.0,0.0,0.0,0.0,0.0,0.0,0.0,0.0,0.0,0.0,0.0,0.0,0.0,0.0,0.0,0.0,0.0,0.0,0.0,0.0,0.0,0.0,0.0,0.0,0.0,0.0,0.0,0.0,0.0,0.0,0.0,0.0,0.0,0.0,0.0,0.0,0.0,0.0,0.0,0.0,0.0,0.0,0.0,0.0,0.0,0.0,0.0,0.0,0.0,0.0,0.0,0.0,0.0,0.0,0.0,0.0,0.0,0.0,0.0,0.0,0.0,0.0,0.0,0.0,0.0,0.0,0.0,0.0,0.0,0.0,0.0,0.0,0.0,0.0,-0.8842,-1.053,-1.1987,-1.3002,-1.2511,-1.24,0.0,0.0,0.0,0.0,0.0,0.0,0.0,0.0,0.0,0.0,0.0,0.0,0.0,0.0,0.0,0.0,0.0,0.0,0.0,0.0,0.0,0.0,0.0,0.0,0.0,0.0,0.0,0.0,0.0,0.0,0.0,0.0,0.0,0.0,0.0,0.0,0.0,0.0,0.0,0.0,0.0,0.0,0.0,0.0,0.0,0.0,0.0,0.0,0.0,0.0,0.0,0.0,0.0,0.0,0.0,0.0,0.0,0.0,0.0,0.0,0.0,0.0,0.0,0.0,0.0,0.0,0.0,0.0,0.0,0.0,0.0,0.0,0.0,0.0,0.0,0.0,0.0,0.0,0.0,0.0,0.0,0.0,0.0,0.0,0.0,0.0,0.0,0.0,0.0,0.0,0.0,0.0,0.0,0.0,0.0,0.0,0.0,0.0,0.0,0.0,0.0,0.0,0.0,0.0,0.0,0.0,0.0,0.0,0.0,-0.9276,-1.1332,-1.2771,-1.3523,-1.2896,-1.2788,-1.3364,0.0,0.0,0.0,0.0,0.0,0.0,0.0,0.0,0.0,0.0,0.0,0.0,0.0,0.0,0.0,0.0,0.0,0.0,0.0,0.0,0.0,0.0,0.0,0.0,0.0,0.0,0.0,0.0,0.0,0.0,0.0,0.0,0.0,0.0,0.0,0.0,0.0,0.0,0.0,0.0,0.0,0.0,0.0,0.0,0.0,0.0,0.0,0.0,0.0,0.0,0.0,0.0,0.0,0.0,0.0,0.0,0.0,0.0,0.0,0.0,0.0,0.0,0.0,0.0,0.0,0.0,0.0,0.0,0.0,0.0,0.0,0.0,0.0,0.0,0.0,0.0,0.0,0.0,0.0,0.0,0.0,0.0,0.0,0.0,0.0,0.0,0.0,0.0,0.0,0.0,0.0,0.0,0.0,0.0,0.0,0.0,0.0,0.0,0.0,0.0,0.0,0.0,0.0,0.0,0.0,0.0,0.0,0.0,-1.0789,-1.2597,-1.3817,-1.4528,-1.3968,-1.3663,0.0,0.0,0.0,0.0,0.0,0.0,0.0,0.0,0.0,0.0,0.0,0.0,0.0,0.0,0.0,0.0,0.0,0.0,0.0,0.0,0.0,0.0,0.0,0.0,0.0,0.0,0.0,0.0,0.0,0.0,0.0,0.0,0.0,0.0,0.0,0.0,0.0,0.0,0.0,0.0,0.0,0.0,0.0,0.0,0.0,0.0,0.0,0.0,0.0,0.0,0.0,0.0,0.0,0.0,0.0,0.0,0.0,0.0,0.0,0.0,0.0,0.0,0.0,0.0,0.0,0.0,0.0,0.0,0.0,0.0,0.0,0.0,0.0,0.0,0.0,0.0,0.0,0.0,0.0,0.0,0.0,0.0,0.0,0.0,0.0,0.0,0.0,0.0,0.0,0.0,0.0,0.0,0.0,0.0,0.0,0.0,0.0,0.0,0.0,0.0,0.0,0.0,0.0,0.0,0.0,0.0,0.0,0.0,0.0,-1.1043,-1.3519,-1.5041,-1.5451,-1.4289,-1.3746,0.0,0.0,0.0,0.0,0.0,0.0,0.0,0.0,0.0,0.0,0.0,0.0,0.0,0.0,0.0,0.0,0.0,0.0,0.0,0.0,0.0,0.0,0.0,0.0,0.0,0.0,0.0,0.0,0.0,0.0,0.0,0.0,0.0,0.0,0.0,0.0,0.0,0.0,0.0,0.0,0.0,0.0,0.0,0.0,0.0,0.0,0.0,0.0,0.0,0.0,0.0,0.0,0.0,0.0,0.0,0.0,0.0,0.0,0.0,0.0,0.0,0.0,0.0,0.0,0.0,0.0,0.0,0.0,0.0,0.0,0.0,0.0,0.0,0.0,0.0,0.0,0.0,0.0,0.0,0.0,0.0,0.0,0.0,0.0,0.0,0.0,0.0,0.0,0.0,0.0,0.0,0.0,0.0,0.0,0.0,0.0,0.0,0.0,0.0,0.0,0.0,0.0,0.0,0.0,0.0,0.0,0.0,0.0,-1.0972,-1.1891,-1.4286,-1.5658,-1.5825,-1.5286,-1.4914,0.0,0.0,0.0,0.0,0.0,0.0,0.0,0.0,0.0,0.0,0.0,0.0,0.0,0.0,0.0,0.0,0.0,0.0,0.0,0.0,0.0,0.0,0.0,0.0,0.0,0.0,0.0,0.0,0.0,0.0,0.0,0.0,0.0,0.0,0.0,0.0,0.0,0.0,0.0,0.0,0.0,0.0,0.0,0.0,0.0,0.0,0.0,0.0,0.0,0.0,0.0,0.0,0.0,0.0,0.0,0.0,0.0,0.0,0.0,0.0,0.0,0.0,0.0,0.0,0.0,0.0,0.0,0.0,0.0,0.0,0.0,0.0,0.0,0.0,0.0,0.0,0.0,0.0,0.0,0.0,0.0,0.0,0.0,0.0,0.0,0.0,0.0,0.0,0.0,0.0,0.0,0.0,0.0,0.0,0.0,0.0,0.0,0.0,0.0,0.0,0.0,0.0,0.0,0.0,0.0,0.0,0.0,0.0,-1.156,-1.3027,-1.4823,-1.5825,-1.5805,-1.6494,-1.6492,0.0,0.0,0.0,0.0,0.0,0.0,0.0,0.0,0.0,0.0,0.0,0.0,0.0,0.0,0.0,0.0,0.0,0.0,0.0,0.0,0.0,0.0,0.0,0.0,0.0,0.0,0.0,0.0,0.0,0.0,0.0,0.0,0.0,0.0,0.0,0.0,0.0,0.0,0.0,0.0,0.0,0.0,0.0,0.0,0.0,0.0,0.0,0.0,0.0,0.0,0.0,0.0,0.0,0.0,0.0,0.0,0.0,0.0,0.0,0.0,0.0,0.0,0.0,0.0,0.0,0.0,0.0,0.0,0.0,0.0,0.0,0.0,0.0,0.0,0.0,0.0,0.0,0.0,0.0,0.0,0.0,0.0,0.0,0.0,0.0,0.0,0.0,0.0,0.0,0.0,0.0,0.0,0.0,0.0,0.0,0.0,0.0,0.0,0.0,0.0,0.0,0.0,0.0,0.0,0.0,0.0,0.0,0.0,-1.1717,-1.3297,-1.492,-1.5825,-1.5825,-1.6494,-1.6599,0.0,0.0,0.0,0.0,0.0,0.0,0.0,0.0,0.0,0.0,0.0,0.0,0.0,0.0,0.0,0.0,0.0,0.0,0.0,0.0,0.0,0.0,0.0,0.0,0.0,0.0,0.0,0.0,0.0,0.0,0.0,0.0,0.0,0.0,0.0,0.0,0.0,0.0,0.0,0.0,0.0,0.0,0.0,0.0,0.0,0.0,0.0,0.0,-2.027,0.0,0.0,0.0,0.0,0.0,0.0,0.0,0.0,0.0,0.0,0.0,0.0,0.0,0.0,0.0,0.0,0.0,0.0,0.0,0.0,0.0,0.0,0.0,0.0,0.0,0.0,0.0,0.0,0.0,0.0,0.0,0.0,0.0,0.0,0.0,0.0,0.0,0.0,0.0,0.0,0.0,0.0,0.0,0.0,0.0,0.0,0.0,0.0,0.0,0.0,0.0,0.0,0.0,0.0,0.0,0.0,0.0,0.0,0.0,-1.2154,-1.4305,-1.5311,-1.6109,-1.6648,-1.7599,-1.7636,0.0,0.0,0.0,0.0,0.0,0.0,0.0,0.0,0.0,0.0,0.0,0.0,0.0,0.0,0.0,0.0,0.0,0.0,0.0,0.0,0.0,0.0,0.0,0.0,0.0,0.0,0.0,0.0,0.0,0.0,0.0,0.0,0.0,0.0,0.0,0.0,0.0,0.0,0.0,0.0,0.0,0.0,0.0,0.0,0.0,0.0,0.0,0.0,0.0,0.0,0.0,0.0,0.0,0.0,0.0,0.0,0.0,0.0,0.0,0.0,0.0,0.0,0.0,0.0,0.0,0.0,0.0,0.0,0.0,0.0,0.0,0.0,0.0,0.0,0.0,0.0,0.0,0.0,0.0,0.0,0.0,0.0,0.0,0.0,0.0,0.0,0.0,0.0,0.0,0.0,0.0,0.0,0.0,0.0,0.0,0.0,0.0,0.0,0.0,0.0,0.0,0.0,0.0,0.0,0.0,0.0,0.0,-1.1601,-1.2748,-1.5345,-1.5893,-1.6574,-1.7684,-1.9047,-1.8987,-1.7286,0.0,0.0,0.0,0.0,0.0,0.0,0.0,0.0,0.0,0.0,0.0,0.0,0.0,0.0,0.0,0.0,0.0,0.0,0.0,0.0,0.0,0.0,0.0,0.0,0.0,0.0,0.0,0.0,0.0,0.0,0.0,0.0,0.0,0.0,0.0,0.0,0.0,0.0,-1.5384,-1.4863,0.0,0.0,0.0,0.0,0.0,0.0,0.0,0.0,-2.1706,0.0,0.0,0.0,0.0,0.0,0.0,0.0,0.0,0.0,0.0,0.0,0.0,0.0,0.0,0.0,0.0,0.0,0.0,0.0,0.0,0.0,0.0,0.0,0.0,0.0,0.0,0.0,0.0,0.0,0.0,0.0,0.0,0.0,0.0,0.0,0.0,0.0,0.0,0.0,0.0,0.0,0.0,0.0,0.0,0.0,0.0,0.0,0.0,0.0,0.0,0.0,0.0,0.0,0.0,0.0,0.0,-1.3585,-1.2541,-1.3181,-1.5718,-1.6828,-1.7505,-1.7777,-1.9852,-2.0208,-1.8531,0.0,0.0,0.0,0.0,0.0,0.0,0.0,0.0,0.0,0.0,0.0,0.0,0.0,0.0,0.0,0.0,0.0,0.0,0.0,0.0,0.0,0.0,0.0,0.0,0.0,0.0,0.0,0.0,0.0,0.0,0.0,0.0,0.0,0.0,0.0,0.0,0.0,0.0,0.0,-1.4379,-1.5033,0.0,0.0,0.0,0.0,0.0,0.0,0.0,0.0,-2.2812,0.0,0.0,0.0,0.0,0.0,0.0,0.0,0.0,0.0,0.0,0.0,0.0,0.0,0.0,0.0,0.0,0.0,0.0,0.0,0.0,0.0,0.0,0.0,0.0,0.0,0.0,0.0,0.0,0.0,0.0,0.0,0.0,0.0,0.0,0.0,0.0,0.0,0.0,0.0,0.0,0.0,0.0,0.0,0.0,0.0,0.0,0.0,0.0,0.0,0.0,0.0,0.0,0.0,0.0,0.0,-1.3492,-1.296,-1.3983,-1.6713,-1.7412,-1.8326,-1.9488,-2.028,-2.0307,0.0,0.0,0.0,0.0,0.0,0.0,0.0,0.0,0.0,0.0,0.0,0.0,0.0,0.0,0.0,0.0,0.0,0.0,0.0,0.0,0.0,0.0,0.0,0.0,0.0,0.0,0.0,0.0,0.0,0.0,0.0,0.0,0.0,0.0,0.0,0.0,0.0,0.0,0.0,0.0,-1.4044,-1.4683,-1.6853,0.0,0.0,0.0,0.0,0.0,0.0,-2.2898,-2.3885,0.0,0.0,0.0,0.0,0.0,0.0,0.0,0.0,0.0,0.0,0.0,0.0,0.0,0.0,0.0,0.0,0.0,0.0,0.0,0.0,0.0,0.0,0.0,0.0,0.0,0.0,0.0,0.0,0.0,0.0,0.0,0.0,0.0,0.0,0.0,0.0,0.0,0.0,0.0,0.0,0.0,0.0,0.0,0.0,0.0,0.0,0.0,0.0,0.0,0.0,0.0,0.0,0.0,0.0,0.0,-1.3213,-1.3538,-1.4993,-1.7554,-1.8149,-1.9322,-2.1185,-2.078,-2.0512,0.0,0.0,0.0,0.0,0.0,0.0,0.0,0.0,0.0,0.0,0.0,0.0,0.0,0.0,0.0,0.0,0.0,0.0,0.0,0.0,0.0,0.0,0.0,0.0,0.0,0.0,0.0,0.0,0.0,0.0,0.0,0.0,0.0,0.0,0.0,0.0,0.0,0.0,0.0,0.0,0.0,-1.5286,-1.7598,-1.7813,0.0,0.0,0.0,0.0,-2.3253,-2.4259,0.0,0.0,0.0,0.0,0.0,0.0,0.0,0.0,0.0,0.0,0.0,0.0,0.0,0.0,0.0,0.0,0.0,0.0,0.0,0.0,0.0,0.0,0.0,0.0,0.0,0.0,0.0,0.0,0.0,0.0,0.0,0.0,0.0,0.0,0.0,0.0,0.0,0.0,0.0,0.0,0.0,0.0,0.0,0.0,0.0,0.0,0.0,0.0,0.0,0.0,0.0,0.0,0.0,0.0,0.0,0.0,-1.3259,-1.4803,-1.6233,-1.7702,-1.9786,-2.1051,-2.1293,-2.1872,-2.1671,0.0,0.0,0.0,0.0,0.0,0.0,0.0,0.0,0.0,0.0,0.0,0.0,0.0,0.0,0.0,0.0,0.0,0.0,0.0,0.0,0.0,0.0,0.0,0.0,0.0,0.0,0.0,0.0,0.0,0.0,0.0,0.0,0.0,0.0,0.0,0.0,0.0,0.0,0.0,0.0,0.0,-1.8177,-1.7679,-1.8737,-2.0467,0.0,0.0,-2.3743,-2.5247,-2.6322,0.0,0.0,0.0,0.0,0.0,0.0,0.0,0.0,0.0,0.0,0.0,0.0,0.0,0.0,0.0,0.0,0.0,0.0,0.0,0.0,0.0,0.0,0.0,0.0,0.0,0.0,0.0,0.0,0.0,0.0,0.0,0.0,0.0,0.0,0.0,0.0,0.0,0.0,0.0,0.0,0.0,0.0,0.0,0.0,0.0,0.0,0.0,0.0,0.0,0.0,0.0,0.0,0.0,0.0,0.0,-1.4856,-1.4941,-1.6468,-1.8094,-1.972,-2.0764,-2.1478,-2.1966,-2.1868,-2.1182,0.0,0.0,0.0,0.0,0.0,0.0,0.0,0.0,0.0,0.0,0.0,0.0,0.0,0.0,0.0,0.0,0.0,0.0,0.0,0.0,0.0,0.0,0.0,0.0,0.0,0.0,0.0,0.0,0.0,0.0,0.0,0.0,0.0,0.0,0.0,0.0,0.0,0.0,0.0,0.0,0.0,0.0,-1.9326,-2.0455,0.0,0.0,0.0,-2.5245,-2.6584,0.0,0.0,0.0,0.0,0.0,0.0,0.0,0.0,0.0,0.0,0.0,0.0,0.0,0.0,0.0,0.0,0.0,0.0,0.0,0.0,0.0,0.0,0.0,0.0,0.0,0.0,0.0,0.0,0.0,0.0,0.0,0.0,0.0,0.0,0.0,0.0,0.0,0.0,0.0,0.0,0.0,0.0,0.0,0.0,0.0,0.0,0.0,0.0,0.0,0.0,0.0,0.0,0.0,0.0,0.0,0.0,0.0,-1.6228,-1.7828,-1.9497,-2.1112,-2.1332,-2.1767,-2.2269,-2.1631,0.0,0.0,0.0,0.0,0.0,0.0,0.0,0.0,0.0,0.0,0.0,0.0,0.0,0.0,0.0,0.0,0.0,0.0,0.0,0.0,0.0,0.0,0.0,0.0,0.0,0.0,0.0,-1.8202,0.0,0.0,0.0,0.0,0.0,0.0,0.0,0.0,0.0,0.0,0.0,0.0,0.0,0.0,-1.956,-2.1033,-2.2295,-2.366,0.0,0.0,-2.669,-2.7849,-2.7965,-2.7929,0.0,0.0,0.0,0.0,0.0,0.0,0.0,0.0,0.0,0.0,0.0,0.0,0.0,0.0,0.0,0.0,0.0,0.0,0.0,0.0,0.0,0.0,0.0,0.0,0.0,0.0,0.0,0.0,0.0,0.0,0.0,0.0,0.0,0.0,0.0,0.0,0.0,0.0,0.0,0.0,0.0,0.0,0.0,0.0,0.0,0.0,0.0,0.0,0.0,0.0,0.0,0.0,0.0,0.0,0.0,-1.6312,-1.8381,-1.9958,-2.0706,-2.1457,-2.187,-2.1914,-2.1484,-2.0916,0.0,0.0,0.0,0.0,0.0,0.0,0.0,0.0,0.0,0.0,0.0,0.0,0.0,0.0,0.0,0.0,0.0,0.0,0.0,0.0,0.0,0.0,0.0,0.0,0.0,0.0,0.0,0.0,0.0,0.0,0.0,0.0,0.0,0.0,0.0,0.0,0.0,0.0,0.0,0.0,0.0,-2.333,-2.2145,-2.4013,-2.6119,0.0,0.0,-2.7915,-2.9397,-2.9649,-2.9324,-2.8224,0.0,0.0,0.0,0.0,0.0,0.0,0.0,0.0,0.0,0.0,0.0,0.0,0.0,0.0,0.0,0.0,0.0,0.0,0.0,0.0,0.0,0.0,0.0,0.0,0.0,0.0,0.0,0.0,0.0,0.0,0.0,0.0,0.0,0.0,0.0,0.0,0.0,0.0,0.0,0.0,0.0,0.0,0.0,0.0,0.0,0.0,0.0,0.0,0.0,0.0,0.0,0.0,0.0,-1.7497,-1.7688,-1.9615,-2.0832,-2.139,-2.1787,-2.1758,-2.1494,-2.1328,-2.0864,0.0,0.0,0.0,0.0,0.0,0.0,0.0,0.0,0.0,0.0,0.0,0.0,0.0,0.0,0.0,0.0,0.0,0.0,0.0,0.0,0.0,0.0,0.0,0.0,0.0,0.0,0.0,0.0,-1.9235,-1.9594,-2.0846,0.0,0.0,0.0,0.0,0.0,0.0,0.0,0.0,0.0,0.0,-2.4781,-2.4826,-2.6197,0.0,0.0,-2.8518,-2.913,-2.9677,-2.95,-2.8954,-2.8208,-2.8138,0.0,0.0,0.0,0.0,0.0,0.0,0.0,0.0,0.0,0.0,0.0,0.0,0.0,0.0,0.0,0.0,0.0,0.0,0.0,0.0,0.0,0.0,0.0,0.0,0.0,0.0,0.0,0.0,0.0,0.0,0.0,0.0,0.0,0.0,0.0,0.0,0.0,0.0,0.0,0.0,0.0,0.0,0.0,0.0,0.0,0.0,0.0,0.0,0.0,0.0,0.0,0.0,-1.8281,-1.8828,-2.0283,-2.125,-2.168,-2.1562,-2.1348,-2.1055,-2.1263,-2.108,0.0,0.0,0.0,0.0,0.0,0.0,0.0,0.0,0.0,0.0,0.0,0.0,0.0,0.0,0.0,0.0,0.0,0.0,0.0,0.0,0.0,0.0,0.0,0.0,0.0,0.0,0.0,0.0,-2.0487,-2.0747,-2.2156,0.0,0.0,0.0,0.0,0.0,0.0,0.0,0.0,0.0,0.0,-2.6163,-2.692,-2.7947,-2.8597,-2.8609,-2.9275,-2.9779,-2.9779,-2.9697,-2.9381,-2.8869,0.0,0.0,0.0,0.0,0.0,0.0,0.0,0.0,0.0,0.0,0.0,0.0,0.0,0.0,0.0,0.0,0.0,0.0,0.0,0.0,0.0,0.0,0.0,0.0,0.0,0.0,0.0,0.0,0.0,0.0,-1.7295,0.0,0.0,0.0,0.0,0.0,0.0,0.0,0.0,0.0,0.0,0.0,0.0,0.0,0.0,0.0,0.0,0.0,0.0,0.0,0.0,0.0,0.0,-1.8428,-1.9258,-2.0137,-2.0801,-2.1211,-2.082,-2.0683,-2.0664,-2.1548,-2.1679,-2.1018,0.0,0.0,0.0,0.0,0.0,0.0,0.0,0.0,0.0,0.0,0.0,0.0,0.0,0.0,0.0,0.0,0.0,0.0,0.0,0.0,0.0,0.0,0.0,0.0,0.0,0.0,-2.2168,-2.2239,-2.2239,0.0,0.0,0.0,0.0,0.0,0.0,0.0,0.0,0.0,0.0,-2.645,-2.7591,-2.8024,-2.9028,-2.9702,-2.9714,-2.9792,-2.9779,-2.9779,-3.0503,-3.1003,0.0,0.0,0.0,0.0,0.0,0.0,0.0,0.0,0.0,0.0,0.0,0.0,0.0,0.0,0.0,0.0,0.0,0.0,0.0,0.0,0.0,0.0,0.0,0.0,0.0,0.0,0.0,-1.9121,-1.8838,0.0,0.0,0.0,0.0,0.0,0.0,0.0,0.0,0.0,0.0,0.0,-2.1016,-2.1133,0.0,0.0,0.0,0.0,0.0,0.0,0.0,0.0,0.0,0.0,0.0,0.0,-1.8574,-1.8896,-1.998,-2.0635,-2.0781,-2.1302,-2.1517,-2.1517,-2.2478,-2.2822,-2.2576,0.0,0.0,0.0,0.0,0.0,0.0,0.0,0.0,0.0,0.0,0.0,0.0,0.0,0.0,0.0,0.0,0.0,0.0,0.0,0.0,0.0,0.0,0.0,0.0,0.0,-2.2056,0.0,0.0,0.0,0.0,0.0,0.0,0.0,0.0,0.0,0.0,0.0,-2.5652,-2.6593,-2.8028,-2.9077,-2.9172,-2.9534,-2.9779,0.0,0.0,0.0,0.0,0.0,0.0,0.0,0.0,0.0,0.0,0.0,0.0,0.0,0.0,-3.3718,-3.284,-3.2679,-3.2737,-3.2972,0.0,0.0,0.0,0.0,0.0,0.0,0.0,0.0,0.0,0.0,0.0,0.0,0.0,0.0,-1.998,0.0,-1.9434,0.0,0.0,0.0,0.0,0.0,0.0,0.0,0.0,-2.1631,-2.1894,-2.1914,-2.2187,-2.1943,0.0,-2.1094,-2.0156,0.0,0.0,0.0,0.0,0.0,0.0,0.0,0.0,-1.8708,-1.9111,-2.0059,-2.0576,-2.0644,-2.1517,-2.2038,-2.2027,-2.3128,-2.3828,-2.4111,-2.3864,-2.354,0.0,0.0,0.0,0.0,0.0,0.0,0.0,0.0,0.0,0.0,0.0,0.0,0.0,0.0,0.0,0.0,0.0,0.0,0.0,0.0,0.0,0.0,0.0,-2.2395,0.0,0.0,0.0,0.0,0.0,0.0,0.0,0.0,0.0,-2.4784,-2.6052,-2.7344,-2.8183,-2.9142,-2.9779,-2.9779,0.0,0.0,0.0,0.0,0.0,0.0,0.0,-3.0408,-3.105,-3.1714,-3.2416,-3.3018,-3.3902,-3.4758,-3.5359,0.0,0.0,-3.4352,-3.4382,-3.4666,-3.5085,-3.5699,-3.6372,-3.7015,-3.727,-3.7479,0.0,0.0,0.0,0.0,0.0,0.0,0.0,0.0,-2.0644,-2.0635,0.0,-2.0596,0.0,0.0,0.0,0.0,0.0,-2.084,0.0,0.0,-2.2705,-2.3125,-2.3115,-2.3115,-2.292,-2.2568,-2.2881,-2.2207,-2.0576,-1.9336,0.0,0.0,0.0,0.0,0.0,0.0,-1.9092,-1.9883,-2.0332,-2.0576,-2.0644,-2.1593,-2.2103,-2.2242,-2.3555,-2.4655,-2.5532,-2.5084,-2.4318,-2.3276,-2.309,0.0,0.0,0.0,0.0,0.0,0.0,0.0,0.0,0.0,0.0,0.0,0.0,0.0,0.0,0.0,0.0,0.0,0.0,0.0,0.0,-2.2849,0.0,0.0,0.0,0.0,0.0,0.0,0.0,0.0,0.0,0.0,-2.6974,-2.7268,-2.8106,-2.9549,0.0,0.0,0.0,0.0,-2.9779,-2.9779,-2.9779,-2.9779,-2.9779,-3.1322,-3.2443,-3.2532,0.0,0.0,-3.5489,-3.5489,-3.5489,-3.5504,-3.5489,-3.5489,-3.5459,-3.5908,-3.6357,-3.6477,-3.6941,-3.7599,-3.8197,-3.7958,-3.7739,-1.5449,0.0,0.0,0.0,0.0,-1.9695,-2.0891,-2.1953,-2.1953,-2.1777,-2.1504,-2.1514,0.0,0.0,0.0,0.0,0.0,0.0,-2.1924,-2.2334,-2.2588,-2.2842,-2.3135,-2.3144,-2.3076,-2.2959,-2.2773,-2.2285,-2.1504,-2.082,-1.9736,-1.8311,0.0,0.0,0.0,0.0,-1.9658,-1.9922,-2.0342,-2.0576,-2.0566,-2.2188,-2.3734,-2.5193,-2.5196,-2.5505,-2.6189,-2.531,-2.4845,-2.487,-2.3766,0.0,0.0,0.0,0.0,0.0,0.0,0.0,0.0,0.0,0.0,0.0,0.0,0.0,0.0,0.0,0.0,0.0,0.0,0.0,-2.3475,-2.3665,-2.4416,0.0,0.0,0.0,0.0,0.0,0.0,0.0,0.0,0.0,-2.8934,-2.9043,-2.9282,0.0,0.0,-2.9779,-2.9779,-2.9779,-2.9779,-2.9779,-2.9779,0.0,0.0,-3.0215,-3.1066,-3.2359,-3.4249,-3.5489,-3.5489,-3.5489,-3.5489,-3.5489,-3.5489,-3.5489,-3.5504,-3.5639,-3.6088,-3.6911,-3.7285,-3.7793,-3.8826,-3.8945,-3.8829,-1.5591,-1.5451,-1.6595,-1.7438,-1.8233,-1.98,-2.108,-2.2034,-2.2572,-2.2617,-2.2383,-2.2383,-2.1992,-2.1328,-2.1162,0.0,0.0,0.0,-2.2363,-2.2754,-2.2764,-2.29,-2.3125,-2.3144,-2.3144,-2.3038,-2.2715,-2.2305,-2.1885,-2.1445,-2.0527,-1.9199,0.0,0.0,-1.917,-1.9648,-2.0,-2.0176,-2.043,-2.0789,-2.1155,-2.3084,-2.485,-2.644,-2.59,-2.5862,-2.6414,-2.5611,-2.5272,-2.5561,-2.4657,-2.3976,0.0,0.0,0.0,0.0,0.0,0.0,0.0,0.0,0.0,0.0,0.0,-2.554,0.0,0.0,0.0,0.0,-2.46,-2.5226,-2.5923,-2.6041,0.0,0.0,0.0,0.0,0.0,0.0,0.0,-3.034,-3.0035,-2.9808,-2.9819,-2.9779,-2.9779,-2.9779,-2.9779,-2.9779,-2.9779,0.0,-2.9779,-2.9779,-2.9779,-2.9934,-3.0279,-3.0674,-3.1562,-3.3422,-3.4691,-3.5424,-3.5489,-3.5489,-3.5489,-3.5489,-3.5489,-3.5489,-3.5489,-3.5489,-3.5804,-3.6821,-3.724,-3.7778,-3.8811,-3.9005,-3.908,-1.5825,-1.592,-1.703,-1.7591,-1.7956,-2.0215,-2.1203,-2.1382,-2.258,-2.3144,-2.3144,-2.3144,-2.292,-2.2549,-2.2158,0.0,-2.2559,-2.2559,-2.2773,-2.3135,-2.3144,-2.3144,-2.3144,-2.3144,-2.3125,-2.3076,-2.2695,-2.2275,-2.1826,-2.1435,-2.0801,-1.999,-1.9961,-1.9941,-1.9922,-1.9951,-2.0156,-2.0634,-2.0566,-2.1078,-2.2103,-2.3963,-2.5487,-2.6377,-2.5837,-2.5774,-2.6357,-2.5774,-2.5498,-2.5523,-2.5485,-2.4782,-2.3301,0.0,0.0,0.0,0.0,0.0,0.0,0.0,0.0,0.0,0.0,0.0,0.0,0.0,0.0,0.0,-2.7131,0.0,-2.9108,-2.9296,0.0,0.0,0.0,-3.055,-3.1135,-3.1692,-3.1775,-3.1262,0.0,0.0,-2.9934,-2.9779,-2.9779,-2.9779,-2.9779,-2.9779,-2.9779,-2.9779,-2.9779,-2.9779,-2.9856,-3.0203,-3.0983,-3.1984,-3.3197,-3.481,-3.5474,-3.5489,-3.5489,-3.5489,-3.5489,-3.5489,-3.5489,-3.5489,-3.5489,-3.5489,-3.5684,-3.6297,-3.6896,-3.7524,-3.8153,-3.8317,-3.8482,-1.5825,-1.5832,-1.6109,-1.6857,-1.7777,-1.9314,-2.0486,-2.1382,-2.2589,-2.3144,-2.3144,-2.3144,-2.3086,-2.2978,-2.2891,-2.2891,-2.2998,-2.2988,-2.3037,-2.3135,-2.3144,-2.3144,-2.3144,-2.3144,-2.2969,-2.2666,-2.2559,-2.2119,-2.1406,-2.1289,-2.0947,-2.043,-2.041,-2.0234,-1.9941,-2.0244,-2.0469,-2.0566,-2.0576,-2.1461,-2.3147,-2.4348,-2.5247,-2.5799,-2.5285,-2.5059,-2.5197,-2.4669,-2.4569,-2.4983,-2.4607,-2.4205,-2.3816,-2.2622,0.0,0.0,0.0,0.0,0.0,0.0,0.0,0.0,0.0,-2.7934,-2.5764,0.0,-2.8524,0.0,-2.8457,-2.9115,-2.9789,-2.9873,0.0,0.0,-3.2434,-3.2677,-3.3225,-3.3425,-3.2877,-3.1362,-3.1167,-3.0833,-2.9934,-2.9779,-2.9779,-2.9779,-2.9779,-2.9779,-2.9779,-2.9779,-2.9779,-2.9856,-3.0419,-3.097,-3.1281,-3.2629,-3.3799,-3.4259,-3.5011,-3.5489,-3.5489,-3.5489,-3.5489,-3.5489,-3.5489,-3.5489,-3.5489,-3.5489,-3.5549,-3.5744,-3.6252,-3.6896,-3.7509,-3.7629,-3.7664,-1.5825,-1.5825,-1.5825,-1.6204,-1.7037,-1.8764,-1.9852,-2.0666,-2.2315,-2.3144,-2.3144,-2.3144,-2.3144,-2.3144,-2.3144,-2.3144,-2.3144,-2.3144,-2.3144,-2.3144,-2.3144,-2.3047,-2.2861,-2.2861,-2.2637,-2.2236,-2.2031,-2.1699,-2.125,-2.1035,-2.081,-2.0576,-2.0576,-2.0449,-2.0225,-2.0439,-2.0576,-2.0634,-2.1461,-2.2414,-2.3526,-2.4921,-2.5603,-2.5624,-2.5322,-2.5059,-2.4833,-2.4531,-2.4494,-2.4795,-2.4531,-2.4368,-2.4343,-2.3573,-2.3402,0.0,0.0,0.0,0.0,0.0,0.0,0.0,0.0,0.0,0.0,0.0,-3.0308,-3.025,-3.0771,-3.1426,-3.1982,-3.2313,-3.297,-3.409,-3.4229,-3.4376,-3.4647,-3.4691,-3.3973,-3.2033,-3.1815,-3.1341,-2.9998,-3.0126,-3.0419,-3.0419,-3.0771,-3.0709,-2.9934,-2.9779,-2.9946,-3.0355,-3.0833,-3.1542,-3.2291,-3.3676,-3.4639,-3.4741,-3.515,-3.5489,-3.5489,-3.5489,-3.5489,-3.5489,-3.5489,-3.5489,-3.5489,-3.5489,-3.5489,-3.5549,-3.5789,-3.6252,-3.6866,-3.6978,-3.7076,-1.5825,-1.5825,-1.5825,-1.5825,-1.6015,-1.8303,-1.9314,-1.9679,-2.2041,-2.3144,-2.3144,-2.3144,-2.3144,-2.3144,-2.3144,-2.3144,-2.3144,-2.3144,-2.3144,-2.3144,-2.3144,-2.292,-2.2519,-2.251,-2.2266,-2.1797,-2.1416,-2.1211,-2.1143,-2.0752,-2.0576,-2.0576,-2.0576,-2.0537,-2.0488,-2.0537,-2.0644,-2.0789,-2.2563,-2.3599,-2.3734,-2.5499,-2.6189,-2.5636,-2.5536,-2.5247,-2.4745,-2.472,-2.472,-2.472,-2.4782,-2.4833,-2.4808,-2.4978,-2.5421,0.0,-2.6451,0.0,0.0,0.0,0.0,0.0,0.0,0.0,0.0,-3.1706,-3.2138,-3.2706,-3.3365,-3.3993,-3.4547,-3.516,-3.5489,-3.5489,-3.5489,-3.5489,-3.5504,-3.5489,-3.4787,-3.2961,-3.2678,-3.1974,-3.0495,-3.0758,-3.118,-3.1389,-3.1974,-3.1928,-3.0546,-3.0241,-3.0583,-3.1294,-3.1489,-3.23,-3.3818,-3.4888,-3.5424,-3.5489,-3.5474,-3.5489,-3.5489,-3.5489,-3.5489,-3.5489,-3.5489,-3.5489,-3.5489,-3.5489,-3.5489,-3.5504,-3.5534,-3.5729,-3.6193,-3.634,-3.6547,-1.5825,-1.5825,-1.5825,-1.5825,-1.592,-1.7404,-1.8596,-1.9679,-2.2041,-2.3144,-2.3144,-2.3144,-2.3144,-2.3144,-2.3144,-2.3144,-2.3144,-2.3144,-2.3144,-2.3144,-2.3144,-2.291,-2.2519,-2.251,-2.2109,-2.1377,-2.1269,-2.1045,-2.0703,-2.0596,-2.0576,-2.0576,-2.0576,-2.0381,-2.0078,0.0,0.0,0.0,-2.2914,-2.3879,-2.4719,-2.5873,-2.6176,-2.5611,-2.5184,0.0,-2.4192,-2.4155,-2.4142,-2.4167,-2.4582,0.0,0.0,0.0,0.0,0.0,0.0,0.0,0.0,0.0,0.0,0.0,-3.2213,-3.1719,-3.1541,-3.2991,-3.3978,-3.4098,-3.4726,-3.5175,-3.531,-3.5429,-3.5489,-3.5489,-3.5489,-3.5489,-3.5489,-3.5489,-3.4986,-3.3876,-3.3087,-3.2464,-3.2105,-3.1609,-3.1536,-3.2249,-3.2451,-3.2431,-3.2179,-3.205,-3.2141,-3.2359,-3.2901,-3.3851,-3.5038,-3.5353,-3.5489,-3.5489,-3.5489,-3.5489,-3.5489,-3.5489,-3.5489,-3.5489,-3.5489,-3.5489,-3.5489,-3.5489,-3.5489,-3.5489,-3.5489,-3.5549,-3.5669,-3.5719,-3.5734,-1.5825,0.0,-1.5825,-1.5825,0.0,-1.7131,-1.8411,-1.967,-2.14,-2.258,-2.3144,-2.3144,-2.3144,-2.3144,-2.3144,-2.3144,-2.3144,-2.3144,-2.3027,-2.2832,-2.2832,-2.249,-2.1875,-2.1875,-2.1543,-2.0918,-2.0908,-2.0781,-2.0576,-2.0576,-2.0576,-2.0576,-2.0576,-2.0352,-1.9922,-1.9922,-2.0647,-2.1952,-2.2999,-2.3963,-2.5004,-2.5955,-2.6189,-2.5624,0.0,0.0,0.0,0.0,0.0,0.0,0.0,0.0,0.0,0.0,0.0,-2.8036,-2.8936,-3.0017,-3.1407,-3.2108,-3.2916,-3.3888,-3.3993,-3.3709,-3.3036,-3.4203,-3.4981,-3.4981,-3.531,-3.5489,-3.5489,-3.5489,-3.5489,-3.5489,-3.5489,-3.5489,-3.5489,-3.5489,-3.5133,-3.4109,-3.3157,-3.2593,-3.2593,-3.2249,-3.2307,-3.3171,-3.3754,-3.3962,-3.3968,-3.3213,-3.2747,-3.3255,-3.4103,-3.4905,-3.5359,-3.5489,-3.5489,-3.5489,-3.5489,-3.5489,-3.5489,-3.5489,-3.5489,-3.5489,-3.5489,-3.5489,-3.5489,-3.5489,-3.5489,-3.5489,-3.5489,-3.5489,-3.5489,-3.5489,-3.5489,-1.5825,-1.5825,-1.5825,-1.5825,-1.592,-1.6943,-1.8141,-1.9579,0.0,0.0,0.0,-2.3144,-2.3144,-2.3144,-2.3144,-2.3144,-2.3135,-2.3066,-2.2842,-2.2519,-2.2441,-2.1992,-2.125,-2.124,-2.1006,-2.0586,-2.0576,-2.0576,-2.0576,-2.0576,-2.0518,-2.0459,-2.0449,-2.0234,-1.9805,-1.9385,-2.0119,-2.1967,-2.2908,-2.3982,-2.5073,-2.6032,-2.6239,-2.5762,-2.6181,-2.5887,-2.4996,-2.5372,-2.5398,-2.4996,-2.5071,-2.531,-2.5778,-2.7125,-2.8488,-2.9933,-3.1368,-3.2642,-3.3634,-3.4292,-3.4651,-3.4666,-3.519,-3.5265,-3.4696,-3.5175,-3.5489,-3.5489,-3.5489,-3.5489,-3.5489,-3.5489,-3.5489,-3.5489,-3.5489,-3.5489,-3.5489,-3.5489,-3.5198,-3.4312,-3.3463,-3.2961,-3.3171,-3.2961,-3.3171,-3.4095,-3.4839,-3.5489,-3.5279,-3.4138,-3.3547,-3.4206,-3.4935,-3.5424,-3.5489,-3.5489,-3.5489,-3.5489,-3.5489,-3.5489,-3.5489,-3.5489,-3.5489,-3.5489,-3.5489,-3.5489,-3.5489,-3.5489,-3.5489,-3.5489,-3.5489,-3.5489,-3.5489,-3.5489,-3.5489,-1.5825,-1.5825,-1.5825,-1.5825,-1.5825,-1.6015,-1.739,-1.9679,-2.1854,-2.295,-2.3144,-2.3144,-2.3144,-2.3144,-2.3144,-2.3144,-2.3115,-2.2773,-2.2568,0.0,-2.2139,-2.1719,-2.125,-2.124,-2.0996,-2.0586,-2.0576,-2.0576,-2.0576,-2.0576,-2.0381,-2.0049,-2.001,-1.9795,-1.9375,-1.8945,-1.9788,-2.1959,-2.2674,-2.3816,-2.5443,-2.6201,-2.6496,-2.6327,-2.5937,-2.5661,-2.5498,-2.5573,-2.5573,-2.5498,-2.5963,-2.6264,-2.6395,-2.6655,-2.7721,-2.9793,-3.0793,-3.2155,-3.4215,-3.4966,-3.537,-3.537,-3.5459,-3.5459,-3.5385,-3.5444,-3.5489,-3.5489,-3.5489,-3.5489,-3.5489,-3.5489,-3.5489,-3.5489,-3.5489,-3.5489,-3.5489,-3.5489,-3.5439,-3.5198,-3.4394,-3.4095,-3.4691,-3.4259,-3.4109,-3.4986,-3.5359,-3.5489,-3.5424,-3.5279,-3.5133,-3.5279,-3.5374,-3.5504,-3.5489,-3.5489,-3.5489,-3.5489,-3.5489,-3.5489,-3.5489,-3.5489,-3.5489,-3.5489,-3.5489,-3.5489,-3.5489,-3.5489,-3.5489,-3.5489,-3.5489,-3.5489,-3.5489,-3.5489,-3.5489,-1.5825,-1.5825,-1.5825,-1.5825,-1.592,-1.721,-1.8395,-1.967,-2.2041,-2.3144,-2.3144,-2.3144,-2.3144,-2.3144,-2.3144,-2.3008,-2.2793,-2.2607,-2.2256,-2.1816,-2.1621,-2.1299,-2.0898,-2.0859,-2.0771,-2.0576,-2.0576,-2.0576,-2.0576,-2.0576,-2.0342,-1.9902,-1.9453,-1.9121,-1.8926,-1.8506,-1.9243,-2.1196,-2.2002,-2.3489,-2.5519,-2.5862,-2.6138,-2.6508,-2.6189,-2.6063,-2.6063,-2.6063,-2.6063,-2.6063,-2.6382,-2.6521,-2.6533,-2.7173,-2.8503,-3.0422,-3.158,-3.2961,-3.4916,-3.5325,-3.5489,-3.5489,-3.5489,-3.5489,-3.5489,-3.5489,-3.5489,-3.5489,-3.5489,-3.5489,-3.5489,-3.5489,-3.5489,-3.5489,-3.5489,-3.5489,-3.5489,-3.5489,-3.5489,-3.5424,-3.461,-3.438,-3.5359,-3.461,-3.4394,-3.5279,-3.5489,-3.5489,-3.5489,-3.5489,-3.5489,-3.5489,-3.5489,-3.5489,-3.5489,-3.5489,-3.5489,-3.5489,-3.5489,-3.5489,-3.5489,-3.5489,-3.5489,-3.5489,-3.5489,-3.5489,-3.5489,-3.5489,-3.5489,-3.5489,-3.5489,-3.5489,-3.5489,-3.5489,-3.5489,-1.5825,-1.5825,-1.5825,-1.5825,-1.6015,-1.8488,-1.9497,-1.977,-2.205,-2.3144,-2.3144,-2.3144,-2.3144,-2.3135,-2.3037,-2.2812,-2.2519,-2.2305,-2.1865,-2.1269,-2.1123,-2.0898,-2.0596,-2.0576,-2.0576,-2.0576,-2.0576,-2.0576,-2.0576,-2.0576,-2.0293,-1.9736,-1.8916,-1.8496,-1.8496,-1.8174,-1.8854,-2.0518,-2.1442,-2.3012,-2.5331,-2.5649,-2.6013,-2.6483,-2.6521,-2.6521,-2.6521,-2.6521,-2.6521,-2.6521,-2.6521,-2.6521,-2.6546,-2.761,-2.9023,-3.0837,-3.215,-3.3607,-3.5285,-3.5489,-3.5489,-3.5489,-3.5489,-3.5489,-3.5489,-3.5489,-3.5489,-3.5489,-3.5489,-3.5489,-3.5489,-3.5489,-3.5489,-3.5489,-3.5489,-3.5489,-3.5489,-3.5489,-3.5489,-3.5424,-3.4773,-3.4691,-3.5133,-3.4839,-3.4691,-3.5279,-3.5489,-3.5489,-3.5489,-3.5489,-3.5459,-3.534,-3.54,-3.5489,-3.5489,-3.5489,-3.5489,-3.5489,-3.5489,-3.5489,-3.5489,-3.5489,-3.5489,-3.5489,-3.5489,-3.5489,-3.5489,-3.5489,-3.5489,-3.5489,-3.5489,-3.5489,-3.5489,-3.5489,-3.5489,-1.5825,-1.5825,-1.5825,-1.5825,-1.6103,-1.8395,-1.9497,-1.977,-2.2041,-2.3144,-2.3144,-2.3135,-2.3125,-2.3086,-2.2744,-2.2549,-2.2412,-2.1709,-2.1309,-2.1182,-2.082,-2.0605,-2.0576,-2.0576,-2.0576,-2.0576,-2.0576,-2.0576,-2.0566,-2.0527,-2.0127,-1.9336,-1.8486,-1.8086,-1.8066,-1.8037,-1.8854,-2.0602,-2.1183,-2.2577,-2.4778,-2.5862,-2.6483,-2.6521,-2.6521,-2.6521,-2.6521,-2.6521,-2.6521,-2.6521,-2.6521,-2.6521,-2.6571,-2.7107,-2.8456,-3.0837,-3.165,-3.2962,-3.5204,-3.5489,-3.5489,-3.5489,-3.5489,-3.5489,-3.5489,-3.5489,-3.5489,-3.5489,-3.5489,-3.5489,-3.5489,-3.5489,-3.5489,-3.5489,-3.5489,-3.5489,-3.5489,-3.5489,-3.5489,-3.5489,-3.5344,-3.5424,-3.5424,-3.5344,-3.5344,-3.5424,-3.5489,-3.5489,-3.5489,-3.54,-3.522,-3.4876,-3.5055,-3.537,-3.537,-3.5489,-3.5415,-3.5444,-3.5474,-3.5415,-3.537,-3.54,-3.5489,-3.5489,-3.5489,-3.5489,-3.5489,-3.5489,-3.5489,-3.5489,-3.5489,-3.5489,-3.5489,-3.5489,-3.5489,-1.5825,-1.5825,-1.5825,-1.5825,-1.6103,-1.7677,-1.8864,-1.9679,-2.1302,-2.2394,-2.3008,-2.2881,-2.2764,-2.2754,-2.2588,-2.2246,-2.1748,-2.1387,-2.1084,-2.084,-2.0644,-2.0576,-2.0576,-2.0576,-2.0576,-2.0576,-2.0576,-2.0576,-2.0478,-2.0059,-1.9492,-1.8906,-1.8291,-1.8008,-1.8008,-1.8008,-1.8854,-2.056,-2.143,-2.2823,-2.4663,-2.5548,-2.6113,-2.6427,-2.6521,-2.6521,-2.6521,-2.6521,-2.6521,-2.6521,-2.6521,-2.6521,-2.6533,-2.7281,-2.8737,-3.0893,-3.2906,-3.4427,-3.5409,-3.5489,-3.5489,-3.5489,-3.5489,-3.5489,-3.5489,-3.5489,-3.5489,-3.5489,-3.5489,-3.5489,-3.5489,-3.5489,-3.5489,-3.5489,-3.5489,-3.5489,-3.5489,-3.5489,-3.5489,-3.5489,-3.5489,-3.5489,-3.5489,-3.5489,-3.5489,-3.5489,-3.5489,-3.5459,-3.5474,-3.5175,-3.4786,-3.4517,-3.4415,-3.4265,-3.4382,-3.507,-3.5055,-3.4637,-3.4651,-3.4876,-3.4891,-3.4906,-3.4996,-3.5385,-3.5429,-3.5444,-3.5489,-3.5489,-3.5489,-3.5489,-3.5489,-3.5489,-3.5489,-3.5489,-3.5489,-1.5825,-1.5825,-1.5825,-1.5825,-1.592,-1.7131,-1.8356,-1.9438,-2.0597,-2.172,-2.2678,-2.2471,-2.2266,-2.2168,-2.2158,-2.1807,-2.1269,-2.1113,-2.0879,-2.0586,-2.0576,-2.0576,-2.0576,-2.0576,-2.0576,-2.0576,-2.0576,-2.0508,-2.0322,-1.9668,-1.9062,-1.8643,-1.8213,-1.8008,-1.8008,-1.8008,-1.8854,-2.054,-2.1497,-2.2881,-2.4586,-2.5335,-2.5875,-2.6471,-2.6521,-2.6521,-2.6521,-2.6521,-2.6521,-2.6521,-2.6521,-2.6521,-2.6559,-2.7369,-2.8879,-3.1156,-3.393,-3.5489,-3.5489,-3.5489,-3.5489,-3.5489,-3.5489,-3.5489,-3.5489,-3.5489,-3.5489,-3.5489,-3.5489,-3.5489,-3.5489,-3.5489,-3.5489,-3.5489,-3.5489,-3.5489,-3.5489,-3.5489,-3.5489,-3.5489,-3.5489,-3.5489,-3.5489,-3.5489,-3.5489,-3.5489,-3.5325,-3.522,-3.513,-3.4651,-3.4143,-3.3978,-3.3622,-3.3607,-3.3591,-3.419,-3.4355,-3.4023,-3.401,-3.4205,-3.4235,-3.425,-3.4475,-3.4895,-3.5085,-3.5355,-3.5474,-3.5489,-3.5474,-3.5489,-3.5489,-3.5489,-3.5489,-3.5489,-3.5489,-1.5825,-1.5825,-1.5825,-1.5825,-1.592,-1.7117,-1.8125,-1.901,-2.0123,-2.1163,-2.1938,-2.1934,-2.1689,-2.1348,-2.1348,-2.1269,-2.1162,-2.0801,-2.0615,-2.0576,-2.0576,-2.0576,-2.0576,-2.0576,-2.0576,-2.0566,-2.0518,-2.0303,-1.9902,-1.9482,-1.9062,-1.8623,-1.8203,-1.8008,-1.8008,-1.8008,-1.8854,-2.0464,-2.1194,-2.2542,-2.4549,-2.5322,-2.5875,-2.6389,-2.6521,-2.6521,-2.6521,-2.6521,-2.6521,-2.6521,-2.6521,-2.6521,-2.6571,-2.7087,-2.8799,-3.1612,-3.4083,-3.5489,-3.5489,-3.5489,-3.5489,-3.5489,-3.5489,-3.5489,-3.5489,-3.5489,-3.5489,-3.5489,-3.5489,-3.5489,-3.5489,-3.5489,-3.5489,-3.5489,-3.5489,-3.5489,-3.5489,-3.5489,-3.5489,-3.5489,-3.5489,-3.5489,-3.5489,-3.5489,-3.5429,-3.531,-3.4921,-3.4517,-3.4427,-3.3963,-3.338,-3.2991,-3.3081,-3.3442,-3.3471,-3.3787,-3.3712,-3.3321,-3.3216,-3.3547,-3.3532,-3.3652,-3.395,-3.428,-3.449,-3.4756,-3.5265,-3.5474,-3.5444,-3.5459,-3.5474,-3.5489,-3.5489,-3.5489,-3.5489,-1.5825,-1.5825,-1.5825,-1.5825,-1.5805,-1.6092,-1.7197,-1.875,-1.9132,-2.0283,-2.168,-2.1602,-2.1377,-2.1211,-2.0928,-2.081,-2.0791,-2.0625,-2.0576,-2.0576,-2.0576,-2.0576,-2.0576,-2.0576,-2.0576,-2.0527,-2.0273,-1.9785,-1.9141,-1.8936,-1.8652,-1.8281,-1.8086,-1.8008,-1.8008,-1.8008,-1.8854,-2.0442,-2.1138,-2.2507,-2.4589,-2.5322,-2.5875,-2.6414,-2.6521,-2.6521,-2.6521,-2.6521,-2.6521,-2.6521,-2.6521,-2.6521,-2.6627,-2.8088,-3.0105,-3.2401,-3.4024,-3.504,-3.5429,-3.5489,-3.5489,-3.5489,-3.5489,-3.5489,-3.5489,-3.5489,-3.5489,-3.5489,-3.5489,-3.5489,-3.5489,-3.5489,-3.5489,-3.5489,-3.5489,-3.5489,-3.5489,-3.5489,-3.5489,-3.5489,-3.5489,-3.5489,-3.5385,-3.513,-3.4861,-3.4786,-3.4262,-3.3918,-3.3754,-3.3275,-3.2751,-3.2527,-3.2302,-3.2227,-3.2213,-3.3021,-3.3322,-3.2691,-3.2422,-3.2751,-3.2886,-3.2886,-3.3095,-3.3681,-3.3829,-3.4098,-3.4622,-3.51,-3.513,-3.5026,-3.5085,-3.5355,-3.5489,-3.5489,-3.5489,-1.5825,-1.5825,-1.5825,-1.5772,-1.5671,-1.5478,-1.6342,-1.7898,-1.8177,-1.9283,-2.0746,-2.0983,-2.1016,-2.0977,-2.0703,-2.0576,-2.0576,-2.0576,-2.0576,-2.0576,-2.0576,-2.0576,-2.0576,-2.0576,-2.0478,-2.0303,-1.9912,-1.9326,-1.864,-1.8562,-1.8418,-1.8037,-1.8008,-1.8008,-1.8008,-1.8279,-1.9177,-2.0464,-2.1251,-2.2657,-2.4551,-2.5159,-2.5711,-2.6395,-2.6521,-2.6521,-2.6521,-2.6521,-2.6521,-2.6521,-2.6521,-2.6658,-2.7011,-2.8864,-3.083,-3.2659,-3.3878,-3.4771,-3.537,-3.5489,-3.5489,-3.5489,-3.5489,-3.5489,-3.5489,-3.5489,-3.5489,-3.5489,-3.5489,-3.5489,-3.5489,-3.5489,-3.5489,-3.5489,-3.5489,-3.5489,-3.5489,-3.5489,-3.5489,-3.5489,-3.5489,-3.5415,-3.519,-3.4771,-3.4442,-3.4203,-3.3589,-3.3215,-3.3095,-3.2632,-3.2198,-3.2168,-3.1854,-3.1674,-3.1661,-3.2287,-3.2601,-3.2063,-3.1943,-3.2153,-3.2273,-3.2243,-3.2437,-3.2961,-3.332,-3.3574,-3.3978,-3.4517,-3.4622,-3.4472,-3.4726,-3.504,-3.525,-3.5489,-3.5474,-1.5812,-1.5798,-1.5812,-1.5618,-1.5398,-1.5331,-1.5638,-1.6395,-1.7391,-1.8382,-1.9457,-2.0205,-2.0644,-2.0596,-2.0586,-2.0576,-2.0576,-2.0576,-2.0576,-2.0576,-2.0576,-2.0576,-2.0566,-2.0508,-2.0234,-1.9844,-1.9473,-1.9053,-1.8533,-1.8484,-1.8369,-1.8066,-1.8008,-1.8008,-1.8008,-1.8787,-1.9694,-2.0602,-2.1423,-2.2829,-2.4541,-2.4883,-2.5398,-2.6327,-2.6521,-2.6521,-2.6521,-2.6521,-2.6521,-2.6521,-2.6521,-2.6918,-2.7669,-2.9073,-3.0592,-3.2097,-3.3583,-3.4741,-3.534,-3.5459,-3.5489,-3.5489,-3.5489,-3.5489,-3.5489,-3.5489,-3.5489,-3.5489,-3.5489,-3.5489,-3.5489,-3.5489,-3.5489,-3.5489,-3.5489,-3.5489,-3.5489,-3.5489,-3.5474,-3.5429,-3.537,-3.5175,-3.4681,-3.4292,-3.4008,-3.3499,-3.2946,-3.2512,-3.2467,-3.2033,-3.1586,-3.1526,-3.1526,-3.1482,-3.1467,-3.1554,-3.1569,-3.1497,-3.1614,-3.1719,-3.1779,-3.1809,-3.1988,-3.2422,-3.2766,-3.3021,-3.308,-3.3589,-3.3963,-3.3993,-3.4352,-3.4651,-3.4981,-3.522,-3.54,-1.5531,-1.5504,-1.5311,-1.5184,-1.507,-1.4883,-1.5255,-1.6159,-1.7044,-1.8019,-1.9054,-2.0167,-2.0576,-2.0576,-2.0576,-2.0576,-2.0576,-2.0576,-2.0576,-2.0576,-2.0576,-2.0576,-2.0518,-2.0264,-1.9736,-1.9121,-1.8906,-1.8623,-1.8291,-1.8213,-1.8115,-1.8027,-1.8008,-1.8008,-1.8076,-1.8854,-1.9748,-2.059,-2.1428,-2.2856,-2.4578,-2.482,-2.5347,-2.6314,-2.6521,-2.6521,-2.6521,-2.6521,-2.6521,-2.6521,-2.6521,-2.685,-2.7709,-2.8733,-3.0003,-3.1435,-3.2963,-3.4083,-3.4741,-3.525,-3.5489,-3.5489,-3.5489,-3.5489,-3.5489,-3.5489,-3.5489,-3.5489,-3.5489,-3.5489,-3.5489,-3.5489,-3.5489,-3.5489,-3.5489,-3.5489,-3.5489,-3.5474,-3.5265,-3.4891,-3.4786,-3.4502,-3.3903,-3.3514,-3.314,-3.2856,-3.2273,-3.1898,-3.1809,-3.1661,-3.1497,-3.1467,-3.1467,-3.1467,-3.1467,-3.1467,-3.1467,-3.1467,-3.1467,-3.1467,-3.1467,-3.1497,-3.1704,-3.1884,-3.2213,-3.2392,-3.2452,-3.2691,-3.3125,-3.335,-3.3529,-3.3993,-3.4592,-3.4846,-3.4921,-1.5231,-1.5217,-1.5044,-1.4897,-1.479,-1.4589,-1.4781,-1.5495,-1.6778,-1.7738,-1.855,-1.9923,-2.0576,-2.0576,-2.0576,-2.0576,-2.0576,-2.0576,-2.0576,-2.0576,-2.0576,-2.0576,-2.0469,-1.9941,-1.9346,-1.8711,-1.8477,-1.8271,-1.8027,-1.8008,-1.8008,-1.8008,-1.8008,-1.8008,-1.8144,-1.9177,-2.0139,-2.0719,-2.1753,-2.3071,-2.4229,-2.472,-2.5234,-2.6025,-2.6408,-2.6508,-2.6521,-2.6521,-2.6521,-2.6521,-2.6782,-2.7351,-2.8168,-2.9016,-3.0159,-3.1533,-3.2776,-3.3799,-3.4442,-3.513,-3.5489,-3.5489,-3.5489,-3.5489,-3.5489,-3.5489,-3.5489,-3.5489,-3.5489,-3.5489,-3.5489,-3.5489,-3.5489,-3.5489,-3.5489,-3.5489,-3.5474,-3.5265,-3.4996,-3.4577,-3.4277,-3.3829,-3.3215,-3.2841,-3.2392,-3.2168,-3.1794,-3.1467,-3.1467,-3.1482,-3.1467,-3.1467,-3.1467,-3.1467,-3.1467,-3.1467,-3.1467,-3.1467,-3.1467,-3.1467,-3.1467,-3.1467,-3.1614,-3.1601,-3.1898,-3.1928,-3.1988,-3.2198,-3.2527,-3.2617,-3.2871,-3.3335,-3.3888,-3.4083,-3.4185,-1.4943,-1.4937,-1.4917,-1.473,-1.4509,-1.4476,-1.4421,-1.4537,-1.6206,-1.7253,-1.7827,-1.9511,-2.0489,-2.0566,-2.0576,-2.0576,-2.0557,-2.0478,-2.0459,-2.0449,-2.042,-2.0342,-2.0146,-1.9541,-1.8994,-1.8555,-1.8213,-1.8037,-1.8008,-1.8008,-1.8008,-1.8008,-1.8008,-1.8008,-1.8269,-1.9694,-2.0526,-2.0782,-2.2187,-2.3391,-2.4029,-2.4469,-2.4996,-2.5548,-2.5988,-2.6264,-2.6314,-2.6471,-2.6521,-2.6589,-2.7162,-2.792,-2.8812,-2.9766,-3.0875,-3.2049,-3.299,-3.3664,-3.4367,-3.4951,-3.54,-3.5489,-3.5489,-3.5489,-3.5489,-3.5489,-3.5489,-3.5489,-3.5489,-3.5489,-3.5489,-3.5489,-3.5474,-3.5429,-3.5325,-3.534,-3.537,-3.4831,-3.4367,-3.4188,-3.3784,-3.3185,-3.2572,-3.2407,-3.2123,-3.1779,-3.1511,-3.1482,-3.1467,-3.1467,-3.1467,-3.1467,-3.1467,-3.133,-3.127,-3.1129,-3.1084,-3.0776,-3.0926,-3.1106,-3.1375,-3.1422,-3.1467,-3.1497,-3.1467,-3.1467,-3.1571,-3.1869,-3.2062,-3.224,-3.2466,-3.2781,-3.308,-3.335,-3.3587,-1.4643,-1.4616,-1.4409,-1.4269,-1.4202,-1.4202,-1.4168,-1.425,-1.5538,-1.6577,-1.7488,-1.8789,-1.9875,-2.0547,-2.0547,-2.0576,-2.0459,-2.0215,-2.0078,-2.0029,-1.9746,-1.9443,-1.9189,-1.8945,-1.8603,-1.8213,-1.8076,-1.8008,-1.8008,-1.8008,-1.8008,-1.8008,-1.8008,-1.8008,-1.8269,-1.9683,-2.0526,-2.0846,-2.2249,-2.3341,-2.3891,-2.4117,-2.4469,-2.4983,-2.5197,-2.5485,-2.5824,-2.6307,-2.6521,-2.6521,-2.7297,-2.7789,-2.8233,-2.9504,-3.0551,-3.1114,-3.2123,-3.3066,-3.3724,-3.4367,-3.4936,-3.5444,-3.5415,-3.5489,-3.5489,-3.5489,-3.5489,-3.5489,-3.5489,-3.5489,-3.5489,-3.5444,-3.525,-3.4831,-3.4711,-3.4711,-3.4651,-3.4173,-3.3589,-3.311,-3.2901,-3.2482,-3.2048,-3.178,-3.1779,-3.1526,-3.1467,-3.1407,-3.1362,-3.1452,-3.1452,-3.1452,-3.145,-3.1165,-3.0953,-3.0764,-3.0533,-3.0053,-3.0158,-3.0513,-3.0923,-3.1317,-3.1392,-3.1482,-3.1317,-3.1258,-3.1392,-3.1644,-3.1747,-3.188,-3.1927,-3.2183,-3.2512,-3.2796,-3.3066,-1.4335,-1.4322,-1.4155,-1.4088,-1.4088,-1.4088,-1.4088,-1.43,-1.5068,-1.6137,-1.715,-1.8126,-1.9086,-2.0029,-2.0029,-2.0029,-1.999,-1.9766,-1.9658,-1.958,-1.9219,-1.8906,-1.8691,-1.8553,-1.8418,-1.8047,-1.8008,-1.8008,-1.8008,-1.8008,-1.8008,-1.8008,-1.8008,-1.8008,-1.8076,-1.9299,-2.0268,-2.0782,-2.1939,-2.2948,-2.3553,-2.3891,-2.413,-2.4494,-2.4669,-2.5071,-2.5573,-2.5925,-2.6189,-2.6569,-2.7229,-2.7868,-2.8312,-2.9504,-3.045,-3.0807,-3.1901,-3.2721,-3.3095,-3.3694,-3.4218,-3.4622,-3.4861,-3.5055,-3.513,-3.5295,-3.5489,-3.5489,-3.5489,-3.5355,-3.507,-3.4846,-3.4487,-3.4113,-3.3829,-3.3784,-3.4008,-3.3484,-3.2976,-3.2572,-3.2258,-3.1988,-3.1497,-3.1482,-3.1467,-3.1467,-3.1467,-3.1273,-3.115,-3.133,-3.1285,-3.1061,-3.0989,-3.0678,-3.0372,-3.0177,-3.0051,-2.9559,-2.9469,-2.9808,-3.0213,-3.0776,-3.0941,-3.0956,-3.1031,-3.1108,-3.1258,-3.1392,-3.1569,-3.1599,-3.1539,-3.1571,-3.2003,-3.2258,-3.2527,-1.4088,-1.4088,-1.4088,-1.4088,-1.4088,-1.4088,-1.4055,-1.4226,-1.4887,-1.5761,-1.6674,-1.7543,-1.8508,-1.9277,-1.9443,-1.9326,-1.9336,-1.9268,-1.916,-1.9014,-1.875,-1.8525,-1.8516,-1.8416,-1.832,-1.8047,-1.8008,-1.8008,-1.8008,-1.8008,-1.8008,-1.8008,-1.8008,-1.8008,-1.8202,-1.8911,-1.9759,-2.059,-2.1553,-2.2457,-2.3106,-2.3602,-2.3828,-2.3941,-2.4418,-2.482,-2.5234,-2.5548,-2.585,-2.6339,-2.7245,-2.8051,-2.8876,-2.9813,-3.0644,-3.1293,-3.1959,-3.2377,-3.2602,-3.3125,-3.3484,-3.3709,-3.4143,-3.4352,-3.4457,-3.4786,-3.5055,-3.504,-3.528,-3.4876,-3.4442,-3.3873,-3.3589,-3.3395,-3.2886,-3.2871,-3.3021,-3.2766,-3.2407,-3.2392,-3.1869,-3.1541,-3.1467,-3.1467,-3.1437,-3.115,-3.115,-3.0911,-3.0687,-3.0672,-3.0432,-3.0043,-3.0037,-3.0119,-2.9824,-2.9469,-2.9319,-2.9124,-2.9004,-2.9109,-2.9214,-2.9639,-2.9983,-3.0208,-3.0552,-3.0881,-3.1108,-3.1243,-3.1347,-3.1467,-3.1467,-3.1467,-3.1541,-3.1764,-3.1988,-1.4088,-1.4088,-1.4088,-1.4088,-1.4088,-1.4082,-1.3948,-1.381,-1.4684,-1.5497,-1.6376,-1.7336,-1.8276,-1.9248,-1.9199,-1.9277,-1.916,-1.8906,-1.8613,-1.8281,-1.8213,-1.8144,-1.8154,-1.8174,-1.8105,-1.8008,-1.8008,-1.8008,-1.8008,-1.8008,-1.8008,-1.8008,-1.8008,-1.8008,-1.8134,-1.8844,-1.9694,-2.059,-2.1428,-2.2261,-2.2944,-2.3251,-2.3376,-2.3414,-2.3891,-2.4192,-2.4494,-2.5159,-2.5636,-2.6038,-2.6958,-2.7986,-2.8876,-2.9766,-3.0584,-3.1249,-3.1601,-3.193,-3.2407,-3.2647,-3.2946,-3.335,-3.3529,-3.3709,-3.3709,-3.3858,-3.3978,-3.3948,-3.3933,-3.3948,-3.3709,-3.3589,-3.32,-3.2781,-3.2557,-3.2332,-3.2063,-3.181,-3.1765,-3.1691,-3.1601,-3.1467,-3.1467,-3.1465,-3.1285,-3.0881,-3.0597,-3.0402,-3.0208,-3.0043,-2.9699,-2.931,-2.946,-2.9516,-2.9077,-2.8779,-2.8674,-2.8599,-2.8509,-2.8412,-2.8517,-2.8786,-2.925,-2.9744,-3.0223,-3.0507,-3.0672,-3.1091,-3.1195,-3.136,-3.1377,-3.1332,-3.1273,-3.1347,-3.1524,-1.4088,-1.4068,-1.3941,-1.3881,-1.3861,-1.3734,-1.3587,-1.3507,-1.3815,-1.4727,-1.5822,-1.6422,-1.736,-1.8621,-1.8691,-1.8682,-1.8643,-1.8467,-1.8232,-1.8057,-1.8018,-1.8018,-1.8008,-1.8008,-1.8008,-1.8008,-1.8008,-1.8008,-1.8008,-1.8008,-1.8008,-1.8008,-1.8008,-1.8008,-1.8144,-1.8854,-1.9759,-2.059,-2.1428,-2.2261,-2.2944,-2.3125,-2.3125,-2.315,-2.3452,-2.369,-2.4067,-2.4782,-2.5297,-2.5782,-2.6573,-2.7537,-2.8363,-2.9192,-3.0072,-3.0777,-3.097,-3.1279,-3.1782,-3.2078,-3.2183,-3.2572,-3.2826,-3.3006,-3.3155,-3.329,-3.3499,-3.3499,-3.3499,-3.3425,-3.3066,-3.2662,-3.2377,-3.2183,-3.2063,-3.184,-3.1556,-3.1467,-3.1467,-3.1467,-3.1482,-3.1467,-3.1437,-3.13,-3.0971,-3.0537,-3.0088,-2.9864,-2.9549,-2.9355,-2.9071,-2.8899,-2.8989,-2.8884,-2.8389,-2.809,-2.8051,-2.7955,-2.7955,-2.7874,-2.7919,-2.8263,-2.8652,-2.9101,-2.952,-2.9759,-2.9983,-3.0447,-3.0731,-3.0567,-3.0582,-3.0866,-3.1106,-3.1165,-3.1345,-1.4021,-1.3995,-1.3701,-1.3492,-1.354,-1.3327,-1.3206,-1.31,-1.3237,-1.4396,-1.5357,-1.5501,-1.6921,-1.7764,-1.8076,-1.8027,-1.8037,-1.8057,-1.8027,-1.8018,-1.8008,-1.8008,-1.8008,-1.8008,-1.8008,-1.8008,-1.8008,-1.8008,-1.8008,-1.8008,-1.8008,-1.8008,-1.8008,-1.8008,-1.8202,-1.8854,-1.9748,-2.059,-2.1491,-2.2322,-2.2944,-2.3125,-2.3125,-2.315,-2.3188,-2.3401,-2.3803,-2.4368,-2.4908,-2.546,-2.6148,-2.6899,-2.767,-2.8376,-2.9317,-3.0194,-3.0389,-3.0807,-3.1425,-3.1541,-3.1556,-3.1497,-3.2018,-3.2332,-3.2482,-3.2736,-3.2931,-3.3051,-3.2991,-3.2841,-3.2392,-3.2048,-3.1704,-3.1569,-3.1497,-3.1467,-3.1467,-3.1467,-3.1467,-3.1467,-3.1452,-3.1422,-3.118,-3.0896,-3.0552,-3.0178,-2.9714,-2.9295,-2.8951,-2.8682,-2.8427,-2.8329,-2.8404,-2.8419,-2.7985,-2.8182,-2.8031,-2.7855,-2.7695,-2.7725,-2.7675,-2.7829,-2.8188,-2.8353,-2.8682,-2.8996,-2.9355,-2.9774,-2.9879,-2.9669,-2.9864,-3.0268,-3.0582,-3.0881,-3.1004,-1.3714,-1.3694,-1.34,-1.328,-1.3273,-1.322,-1.3039,-1.314,-1.4306,-1.5162,-1.5413,-1.683,-1.7442,-1.794,-1.8008,-1.8008,-1.8008,-1.8008,-1.8008,-1.8008,-1.8008,-1.8008,-1.8008,-1.8008,-1.8008,-1.8008,-1.8008,-1.8008,-1.8008,-1.8008,-1.8008,-1.8008,-1.8008,-1.8008,-1.8269,-1.8844,-1.9748,-2.059,-2.1428,-2.2322,-2.2884,-2.3125,-2.3125,-2.3125,-2.3125,-2.3213,-2.3376,-2.3853,-2.4381,-2.4985,-2.6142,-2.6974,-2.7459,-2.7762,-2.8684,-2.9827,-3.0147,-3.045,-3.1204,-3.1409,-3.1467,-3.1511,-3.1646,-3.1676,-3.1779,-3.1795,-3.2093,-3.2033,-3.2003,-3.1869,-3.1734,-3.1556,-3.1497,-3.1467,-3.1467,-3.1437,-3.1422,-3.1435,-3.1375,-3.1255,-3.1258,-3.124,-3.0761,-3.0338,-2.9903,-2.9499,-2.9011,-2.8577,-2.8218,-2.8023,-2.7859,-2.7805,-2.776,-2.7775,-2.767,-2.8164,-2.833,-2.8107,-2.8027,-2.7989,-2.789,-2.7675,-2.7739,-2.7964,-2.8218,-2.8547,-2.8876,-2.9131,-2.922,-2.916,-2.9415,-2.9714,-2.9909,-3.0118,-3.035,-1.342,-1.3394,-1.3093,-1.2966,-1.2939,-1.2799,-1.2659,-1.2675,-1.3534,-1.439,-1.5275,-1.6158,-1.7157,-1.7794,-1.8008,-1.8008,-1.8008,-1.8008,-1.8008,-1.8008,-1.8008,-1.8008,-1.8008,-1.8008,-1.8008,-1.8008,-1.8008,-1.7988,-1.8008,-1.8008,-1.7998,-1.8008,-1.8008,-1.8008,-1.8202,-1.8844,-1.9748,-2.059,-2.1491,-2.231,-2.3005,-2.3125,-2.3125,-2.3125,-2.3125,-2.3125,-2.319,-2.369,-2.4104,-2.4557,-2.5537,-2.6231,-2.6698,-2.7181,-2.7907,-2.9289,-2.9676,-3.0011,-3.0703,-3.0911,-3.1029,-3.1467,-3.1467,-3.1467,-3.1467,-3.1511,-3.1467,-3.1467,-3.1467,-3.1467,-3.1497,-3.1467,-3.1467,-3.1467,-3.1437,-3.1345,-3.112,-3.1031,-3.0866,-3.0702,-3.0687,-3.0477,-3.0128,-2.9648,-2.9222,-2.8801,-2.8359,-2.7964,-2.7655,-2.7625,-2.761,-2.781,-2.7875,-2.8054,-2.8149,-2.8583,-2.8779,-2.8561,-2.8401,-2.8367,-2.8122,-2.7894,-2.771,-2.7664,-2.7919,-2.8173,-2.8128,-2.8278,-2.8457,-2.8667,-2.8861,-2.9026,-2.916,-2.937,-2.9575,-1.3113,-1.3093,-1.2779,-1.2735,-1.2619,-1.2405,-1.2466,-1.2586,-1.2959,-1.4027,-1.5376,-1.5869,-1.6724,-1.7716,-1.8008,-1.8008,-1.8008,-1.8008,-1.8008,-1.8008,-1.8008,-1.8008,-1.8008,-1.7998,-1.7959,-1.7803,-1.7822,-1.7881,-1.7861,-1.7959,-1.7969,-1.791,-1.792,-1.8008,-1.8202,-1.911,-1.989,-2.0655,-2.1678,-2.2506,-2.2944,-2.3125,-2.3125,-2.3125,-2.3125,-2.3185,-2.3475,-2.3854,-2.4307,-2.4754,-2.5497,-2.6104,-2.6285,-2.6841,-2.7854,-2.8801,-2.8983,-2.9504,-3.0086,-3.0658,-3.1029,-3.1482,-3.1467,-3.1467,-3.1467,-3.1467,-3.1467,-3.1467,-3.1467,-3.1467,-3.1467,-3.1467,-3.1467,-3.1422,-3.1302,-3.1135,-3.0717,-3.0402,-3.0013,-2.9924,-3.0008,-2.9798,-2.9409,-2.919,-2.8824,-2.8374,-2.7934,-2.7874,-2.7625,-2.7625,-2.766,-2.7993,-2.8253,-2.8587,-2.8839,-2.9218,-2.93,-2.906,-2.9026,-2.9023,-2.8576,-2.8158,-2.7913,-2.768,-2.7604,-2.7784,-2.7604,-2.756,-2.7874,-2.8128,-2.8233,-2.8338,-2.8427,-2.8644,-2.8914,-1.2876,-1.2856,-1.2478,-1.2358,-1.2358,-1.2325,-1.2739,-1.3528,-1.4235,-1.5438,-1.6219,-1.7148,-1.7588,-1.794,-1.8008,-1.8008,-1.8008,-1.8008,-1.8008,-1.8008,-1.8008,-1.8008,-1.8008,-1.8008,-1.7793,-1.7607,-1.751,-1.7451,-1.7461,-1.7715,-1.7764,-1.7578,-1.7734,-1.7988,-1.8045,-1.9249,-2.0462,-2.0835,-2.2113,-2.2944,-2.3078,-2.3125,-2.3125,-2.3125,-2.3138,-2.3305,-2.3826,-2.4125,-2.459,-2.5643,-2.643,-2.7216,-2.8032,-2.9217,-2.9434,-2.9359,-2.9214,-2.9393,-3.0194,-3.0777,-3.1161,-3.1409,-3.1467,-3.1467,-3.1467,-3.1467,-3.1467,-3.1467,-3.1467,-3.1467,-3.1467,-3.1467,-3.1467,-3.13,-3.1016,-3.0717,-3.0342,-2.9789,-2.94,-2.8996,-2.9034,-2.8906,-2.8682,-2.8607,-2.8405,-2.7993,-2.7685,-2.764,-2.766,-2.771,-2.7978,-2.84,-2.8842,-2.9215,-2.9448,-2.9809,-2.9918,-2.9674,-2.9575,-2.9551,-2.8948,-2.8401,-2.8064,-2.7834,-2.768,-2.756,-2.756,-2.756,-2.756,-2.7664,-2.7889,-2.7814,-2.7694,-2.794,-2.8291,-1.2498,-1.2478,-1.2351,-1.2305,-1.2305,-1.2305,-1.2519,-1.3025,-1.3954,-1.4879,-1.5869,-1.6802,-1.752,-1.794,-1.8008,-1.8008,-1.8008,-1.7998,-1.8008,-1.7978,-1.7978,-1.7978,-1.8008,-1.7988,-1.7783,-1.7422,-1.7305,-1.7012,-1.6982,-1.7031,-1.7168,-1.71,-1.7217,-1.7402,-1.7866,-1.8856,-1.9834,-2.0808,-2.2113,-2.3005,-2.3125,-2.3125,-2.3125,-2.3125,-2.3125,-2.3365,-2.3708,-2.4131,-2.45,-2.5208,-2.5738,-2.6094,-2.6557,-2.7107,-2.7384,-2.729,-2.7911,-2.8848,-3.0086,-3.0629,-3.1029,-3.1409,-3.1467,-3.1467,-3.1467,-3.1467,-3.1467,-3.1467,-3.1467,-3.1467,-3.1467,-3.1467,-3.127,-3.1001,-3.0657,-3.0043,-2.9669,-2.928,-2.8816,-2.8382,-2.8053,-2.8128,-2.8173,-2.8113,-2.8068,-2.7859,-2.7655,-2.764,-2.781,-2.7993,-2.8415,-2.8966,-2.9454,-2.9874,-3.0103,-3.0381,-3.0608,-3.0476,-3.0039,-2.9863,-2.9233,-2.8763,-2.8247,-2.7856,-2.7645,-2.756,-2.756,-2.756,-2.756,-2.756,-2.7575,-2.756,-2.756,-2.7655,-2.7985,-1.2305,-1.2305,-1.2305,-1.2265,-1.2211,-1.2271,-1.2391,-1.2694,-1.3708,-1.4665,-1.5587,-1.6594,-1.7451,-1.7872,-1.8008,-1.8008,-1.8008,-1.791,-1.7861,-1.7832,-1.7744,-1.7646,-1.7588,-1.7598,-1.7412,-1.707,-1.6924,-1.6582,-1.623,-1.6221,-1.6445,-1.6572,-1.7252,-1.7486,-1.7965,-1.9137,-2.0374,-2.1506,-2.2506,-2.3078,-2.3125,-2.3125,-2.3245,-2.3365,-2.3437,-2.3531,-2.3975,-2.4553,-2.4908,-2.5466,-2.6033,-2.6495,-2.6353,-2.6767,-2.7026,-2.7114,-2.7763,-2.8786,-2.9849,-3.0454,-3.0733,-3.1204,-3.1467,-3.1467,-3.1467,-3.1467,-3.1467,-3.1467,-3.1467,-3.1467,-3.1467,-3.1467,-3.121,-3.0791,-3.0342,-2.9564,-2.8876,-2.8592,-2.8353,-2.8038,-2.7784,-2.7709,-2.7724,-2.7649,-2.7604,-2.759,-2.7625,-2.7675,-2.7993,-2.8367,-2.8966,-2.954,-3.0021,-3.0426,-3.0609,-3.0866,-3.1128,-3.0943,-3.0505,-3.0013,-2.9315,-2.877,-2.8306,-2.7936,-2.762,-2.756,-2.756,-2.756,-2.756,-2.756,-2.756,-2.756,-2.756,-2.756,-2.7634,-1.2305,-1.2305,-1.2291,-1.2144,-1.1944,-1.2191,-1.2639,-1.323,-1.4458,-1.5545,-1.6513,-1.7413,-1.7804,-1.793,-1.7861,-1.7881,-1.7949,-1.7598,-1.7461,-1.7285,-1.7061,-1.6982,-1.6982,-1.6934,-1.6709,-1.64,-1.64,-1.6045,-1.5605,-1.5644,-1.5859,-1.6184,-1.7141,-1.8049,-1.9009,-2.0113,-2.149,-2.2384,-2.3005,-2.3078,-2.3125,-2.3245,-2.3484,-2.406,-2.4292,-2.4781,-2.6122,-2.6068,-2.6269,-2.6774,-2.7229,-2.7345,-2.6906,-2.7173,-2.7351,-2.7526,-2.7748,-2.8711,-2.9667,-3.0324,-3.0704,-3.1204,-3.1467,-3.1467,-3.1467,-3.1467,-3.1467,-3.1467,-3.1467,-3.1465,-3.148,-3.1377,-3.1016,-3.0313,-2.9729,-2.919,-2.8532,-2.8053,-2.7814,-2.7634,-2.756,-2.756,-2.756,-2.756,-2.756,-2.756,-2.7894,-2.7993,-2.8543,-2.8966,-2.9556,-3.0123,-3.0633,-3.0925,-3.1055,-3.105,-3.0701,-3.0448,-3.0168,-2.9724,-2.9207,-2.8713,-2.8054,-2.778,-2.7445,-2.7485,-2.756,-2.756,-2.756,-2.756,-2.756,-2.756,-2.756,-2.756,-2.756,-1.1924,-1.1764,-1.1764,-1.1911,-1.2111,-1.187,-1.2291,-1.3274,-1.4421,-1.5729,-1.7063,-1.7474,-1.7471,-1.7305,-1.7161,-1.7227,-1.7207,-1.708,-1.7002,-1.6963,-1.6807,-1.6675,-1.6665,-1.6611,-1.6523,-1.6194,-1.6086,-1.583,-1.5469,-1.542,-1.5469,-1.6009,-1.6829,-1.7441,-1.8623,-2.0676,-2.2176,-2.2884,-2.3125,-2.3125,-2.3185,-2.3649,-2.4002,-2.4234,-2.4851,-2.5175,-2.5797,-2.6283,-2.6602,-2.6951,-2.729,-2.7239,-2.7129,-2.7224,-2.7243,-2.7365,-2.7527,-2.8183,-2.9212,-2.9941,-3.073,-3.1306,-3.1467,-3.1467,-3.1467,-3.1467,-3.1467,-3.1467,-3.1422,-3.136,-3.0941,-3.0836,-3.0492,-2.9654,-2.9086,-2.8697,-2.8248,-2.7754,-2.7604,-2.7575,-2.756,-2.756,-2.756,-2.756,-2.756,-2.761,-2.7944,-2.8367,-2.8919,-2.9419,-2.9972,-3.0245,-3.0606,-3.0784,-3.0857,-3.0499,-3.0107,-2.9928,-2.9726,-2.913,-2.8566,-2.8168,-2.7643,-2.7394,-2.731,-2.7415,-2.749,-2.758,-2.756,-2.756,-2.756,-2.756,-2.756,-2.756,-2.756,-1.1617,-1.1423,-1.1329,-1.153,-1.1844,-1.1563,-1.1963,-1.2953,-1.4006,-1.5553,-1.7122,-1.7168,-1.7031,-1.6787,-1.6685,-1.6704,-1.6694,-1.6631,-1.6553,-1.6465,-1.6377,-1.6481,-1.6574,-1.6617,-1.6487,-1.6257,-1.6148,-1.5998,-1.542,-1.542,-1.5614,-1.5918,-1.6267,-1.7264,-1.8785,-2.0845,-2.2567,-2.2944,-2.3125,-2.3125,-2.3185,-2.3826,-2.4523,-2.4738,-2.5356,-2.5946,-2.6269,-2.6759,-2.6878,-2.6997,-2.6989,-2.6907,-2.6761,-2.6586,-2.6427,-2.6624,-2.6821,-2.7343,-2.8448,-2.9655,-3.0672,-3.1061,-3.1465,-3.1495,-3.1467,-3.1467,-3.1467,-3.1437,-3.1375,-3.1016,-3.0462,-3.0372,-2.9894,-2.9116,-2.8891,-2.8532,-2.8038,-2.759,-2.7575,-2.756,-2.756,-2.756,-2.756,-2.761,-2.758,-2.7695,-2.8091,-2.8543,-2.9134,-2.9653,-3.0153,-3.0306,-3.0374,-3.0417,-3.0383,-2.9921,-2.946,-2.9304,-2.8969,-2.8223,-2.7648,-2.733,-2.6949,-2.657,-2.6632,-2.713,-2.734,-2.732,-2.744,-2.756,-2.756,-2.756,-2.756,-2.756,-2.756,-1.1423,-1.139,-1.1116,-1.1022,-1.1109,-1.1316,-1.1727,-1.2633,-1.3827,-1.5219,-1.6612,-1.6738,-1.6699,-1.6611,-1.6451,-1.6504,-1.6445,-1.6211,-1.6074,-1.6016,-1.582,-1.5986,-1.6189,-1.6382,-1.6252,-1.6452,-1.629,-1.5906,-1.542,-1.542,-1.5758,-1.6331,-1.6836,-1.7922,-1.9369,-2.1777,-2.304,-2.3125,-2.3125,-2.3125,-2.3424,-2.406,-2.4738,-2.5412,-2.6122,-2.6707,-2.7086,-2.724,-2.7357,-2.7357,-2.7357,-2.7357,-2.735,-2.6899,-2.6866,-2.7366,-2.6866,-2.7278,-2.8434,-2.9734,-3.0342,-3.0657,-3.1106,-3.1375,-3.1422,-3.1467,-3.1362,-3.1315,-3.0971,-3.0597,-3.0268,-2.9924,-2.9235,-2.8727,-2.8487,-2.8293,-2.7799,-2.756,-2.756,-2.756,-2.756,-2.756,-2.756,-2.761,-2.7615,-2.775,-2.8174,-2.8701,-2.9188,-2.9615,-3.0021,-2.9856,-2.9753,-2.9726,-2.9587,-2.9168,-2.881,-2.866,-2.8102,-2.7153,-2.6619,-2.6249,-2.591,-2.5708,-2.6033,-2.6561,-2.6876,-2.7081,-2.726,-2.7455,-2.7545,-2.756,-2.756,-2.756,-2.756,-1.1029,-1.0848,-1.0813,-1.0708,-1.0786,-1.0802,-1.1654,-1.3164,-1.4684,-1.5766,-1.6218,-1.6289,-1.6103,-1.5947,-1.5908,-1.5918,-1.5859,-1.5791,-1.5625,-1.5625,-1.5469,-1.5556,-1.5806,-1.5911,-1.5864,-1.5806,-1.5748,-1.5806,-1.542,-1.542,-1.5468,-1.5974,-1.7532,-1.8879,-2.0452,-2.22,-2.3065,-2.3125,-2.3138,-2.3365,-2.3884,-2.461,-2.5342,-2.6068,-2.6721,-2.7306,-2.756,-2.756,-2.756,-2.756,-2.756,-2.756,-2.756,-2.7137,-2.7306,-2.7575,-2.7203,-2.738,-2.8053,-2.8786,-2.9654,-3.0208,-3.0717,-3.1106,-3.1362,-3.1452,-3.1258,-3.0971,-3.0642,-3.0133,-2.937,-2.9131,-2.8592,-2.8068,-2.7844,-2.7829,-2.759,-2.7575,-2.756,-2.756,-2.756,-2.756,-2.756,-2.7465,-2.739,-2.7549,-2.7904,-2.82,-2.8642,-2.9105,-2.9473,-2.9118,-2.8941,-2.8912,-2.8721,-2.8209,-2.7888,-2.7712,-2.6857,-2.5775,-2.5316,-2.5244,-2.509,-2.4956,-2.545,-2.5961,-2.6228,-2.6587,-2.7066,-2.732,-2.7245,-2.741,-2.756,-2.756,-2.756,-1.0471,-1.0561,-1.0618,-1.0618,-1.0618,-1.0618,-1.1607,-1.3393,-1.5028,-1.584,-1.584,-1.583,-1.5713,-1.5488,-1.542,-1.542,-1.542,-1.542,-1.542,-1.542,-1.542,-1.5642,-1.5748,-1.5748,-1.5979,-1.5758,-1.5758,-1.5748,-1.542,-1.542,-1.5806,-1.669,-1.8182,-1.9592,-2.0986,-2.2027,-2.2877,-2.3012,-2.3138,-2.3258,-2.393,-2.4667,-2.5577,-2.6162,-2.6864,-2.756,-2.756,-2.756,-2.756,-2.756,-2.756,-2.7458,-2.7408,-2.7458,-2.7408,-2.7357,-2.7524,-2.7524,-2.7769,-2.7934,-2.8801,-2.9609,-3.0148,-3.0821,-3.1302,-3.1452,-3.1135,-3.0746,-3.0357,-2.9624,-2.8846,-2.8577,-2.8098,-2.764,-2.7625,-2.759,-2.759,-2.7575,-2.756,-2.756,-2.756,-2.756,-2.752,-2.7315,-2.7203,-2.7374,-2.7597,-2.7847,-2.8132,-2.8592,-2.8832,-2.8485,-2.8178,-2.8147,-2.7806,-2.7153,-2.6905,-2.6742,-2.586,-2.4883,-2.459,-2.4589,-2.4401,-2.4358,-2.4837,-2.5285,-2.5644,-2.6033,-2.6408,-2.6617,-2.6632,-2.6931,-2.744,-2.7515,-2.747,-0.9792,-1.0555,-1.0618,-1.0618,-1.0618,-1.0744,-1.167,-1.3147,-1.4647,-1.5381,-1.5439,-1.5469,-1.5449,-1.543,-1.542,-1.542,-1.542,-1.542,-1.542,-1.5468,-1.5526,-1.5921,-1.6208,-1.6379,-1.6265,-1.6379,-1.6265,-1.5748,-1.5468,-1.5642,-1.6301,-1.759,-1.9076,-2.0086,-2.0909,-2.1613,-2.2359,-2.2623,-2.2749,-2.3081,-2.3759,-2.4619,-2.5452,-2.6197,-2.6967,-2.7509,-2.756,-2.756,-2.756,-2.756,-2.756,-2.7188,-2.7034,-2.724,-2.6982,-2.6982,-2.7357,-2.7509,-2.759,-2.7709,-2.8083,-2.8951,-2.9714,-3.0597,-3.112,-3.1195,-3.0746,-3.0298,-2.9849,-2.9235,-2.8622,-2.8158,-2.7694,-2.7575,-2.7575,-2.7575,-2.7575,-2.756,-2.756,-2.756,-2.756,-2.75,-2.729,-2.7135,-2.6826,-2.6734,-2.6878,-2.7111,-2.7462,-2.8102,-2.8202,-2.7816,-2.7604,-2.7418,-2.6993,-2.658,-2.6191,-2.6148,-2.5376,-2.4487,-2.4245,-2.4053,-2.3953,-2.4044,-2.4313,-2.4687,-2.5151,-2.542,-2.5615,-2.5794,-2.6063,-2.6512,-2.7036,-2.726,-2.729,-0.9786,-1.0561,-1.0618,-1.0618,-1.0744,-1.1787,-1.2581,-1.313,-1.4145,-1.4805,-1.542,-1.542,-1.542,-1.542,-1.542,-1.542,-1.542,-1.542,-1.542,-1.5526,-1.5748,-1.6208,-1.6379,-1.6436,-1.6492,-1.6322,-1.6036,-1.569,-1.5633,-1.5806,-1.6912,-1.8387,-1.9143,-1.9838,-2.0507,-2.1033,-2.1455,-2.1857,-2.202,-2.2763,-2.3566,-2.4491,-2.5455,-2.6504,-2.7159,-2.756,-2.756,-2.756,-2.756,-2.756,-2.756,-2.7408,-2.7423,-2.7509,-2.7408,-2.7342,-2.7509,-2.756,-2.756,-2.756,-2.7829,-2.8368,-2.8981,-2.9714,-3.0283,-3.0462,-3.0148,-2.9759,-2.9355,-2.8771,-2.8278,-2.7814,-2.756,-2.756,-2.756,-2.756,-2.756,-2.756,-2.756,-2.756,-2.756,-2.7335,-2.7111,-2.6752,-2.6479,-2.6226,-2.6172,-2.6423,-2.6836,-2.7433,-2.7693,-2.7315,-2.7182,-2.7063,-2.6753,-2.6372,-2.5912,-2.547,-2.4777,-2.4215,-2.3934,-2.3743,-2.3625,-2.3729,-2.3984,-2.4328,-2.4747,-2.4911,-2.4956,-2.542,-2.5734,-2.6183,-2.6572,-2.6811,-2.7096,-0.9524,-1.0555,-1.0618,-1.0618,-1.08,-1.1965,-1.2696,-1.3122,-1.4213,-1.4991,-1.5352,-1.542,-1.542,-1.542,-1.542,-1.542,-1.542,-1.542,-1.542,-1.5526,-1.5921,-1.5931,-1.6036,-1.6093,-1.6036,-1.5864,-1.5758,-1.5468,-1.569,-1.6472,-1.7578,-1.8112,-1.865,-1.9556,-2.0132,-2.0363,-2.0489,-2.0903,-2.1407,-2.2343,-2.3259,-2.4226,-2.5502,-2.6579,-2.717,-2.7485,-2.7515,-2.7515,-2.7545,-2.756,-2.756,-2.7408,-2.7306,-2.7137,-2.7408,-2.7408,-2.756,-2.756,-2.756,-2.756,-2.7829,-2.8068,-2.8248,-2.8757,-2.934,-2.9684,-2.9475,-2.919,-2.8801,-2.8397,-2.7949,-2.756,-2.756,-2.756,-2.756,-2.756,-2.756,-2.756,-2.756,-2.756,-2.741,-2.7171,-2.6871,-2.6467,-2.6134,-2.5839,-2.5753,-2.5892,-2.629,-2.6811,-2.7058,-2.6945,-2.686,-2.6776,-2.6484,-2.6214,-2.5713,-2.5156,-2.4441,-2.396,-2.3653,-2.3595,-2.3595,-2.3595,-2.364,-2.3984,-2.4298,-2.4238,-2.4313,-2.4762,-2.5031,-2.5196,-2.5689,-2.6378,-2.6692,-0.9029,-1.0577,-1.0611,-1.0618,-1.0744,-1.1531,-1.2266,-1.3122,-1.451,-1.5294,-1.5352,-1.542,-1.542,-1.542,-1.542,-1.542,-1.5468,-1.5526,-1.57,-1.5526,-1.5968,-1.6083,-1.6036,-1.5584,-1.5921,-1.5642,-1.5526,-1.5575,-1.6026,-1.68,-1.7567,-1.7786,-1.9044,-1.9834,-1.9924,-1.9949,-2.0049,-2.02,-2.0929,-2.1887,-2.2711,-2.3671,-2.4717,-2.5684,-2.6553,-2.729,-2.735,-2.746,-2.7535,-2.7485,-2.7494,-2.7225,-2.6982,-2.6826,-2.7152,-2.7357,-2.756,-2.756,-2.756,-2.756,-2.756,-2.7634,-2.7604,-2.8023,-2.8562,-2.8891,-2.8727,-2.8771,-2.8472,-2.8128,-2.7709,-2.7575,-2.756,-2.756,-2.756,-2.756,-2.756,-2.756,-2.756,-2.75,-2.726,-2.6976,-2.6363,-2.5944,-2.5317,-2.5182,-2.5399,-2.5535,-2.586,-2.631,-2.6589,-2.6708,-2.6708,-2.6657,-2.6453,-2.6099,-2.5518,-2.4894,-2.4223,-2.3827,-2.3653,-2.3595,-2.3595,-2.3595,-2.3595,-2.3595,-2.3759,-2.3789,-2.3834,-2.3909,-2.4118,-2.4088,-2.4657,-2.5648,-2.6366,-0.9204,-1.0247,-1.0468,-1.0618,-1.0681,-1.1469,-1.2266,-1.307,-1.4034,-1.4796,-1.5294,-1.541,-1.542,-1.542,-1.542,-1.541,-1.5526,-1.5911,-1.6197,-1.6415,-1.6631,-1.6631,-1.6856,-1.6368,-1.6208,-1.6036,-1.5921,-1.5911,-1.6698,-1.7413,-1.8221,-1.9085,-1.9747,-1.9798,-1.9798,-1.9798,-1.9823,-1.9849,-2.0566,-2.1562,-2.2495,-2.3009,-2.3794,-2.5009,-2.6138,-2.6228,-2.6348,-2.6617,-2.6737,-2.6841,-2.74,-2.7464,-2.7357,-2.7291,-2.7408,-2.7575,-2.756,-2.756,-2.756,-2.756,-2.756,-2.756,-2.759,-2.7664,-2.7829,-2.803,-2.8128,-2.8248,-2.8188,-2.7859,-2.7685,-2.764,-2.756,-2.756,-2.756,-2.756,-2.7545,-2.7515,-2.7515,-2.7275,-2.7036,-2.6542,-2.5914,-2.5347,-2.4687,-2.4683,-2.5075,-2.5351,-2.5631,-2.6066,-2.6521,-2.6674,-2.6708,-2.6624,-2.6385,-2.5983,-2.5351,-2.4815,-2.4204,-2.3852,-2.3595,-2.3595,-2.3595,-2.3595,-2.3595,-2.3595,-2.3595,-2.3625,-2.364,-2.3595,-2.3739,-2.399,-2.4228,-2.5043,-2.5787,-0.9118,-0.996,-1.0241,-1.0287,-1.0411,-1.1338,-1.1997,-1.2418,-1.3414,-1.4286,-1.4914,-1.5235,-1.541,-1.541,-1.542,-1.5642,-1.5864,-1.6255,-1.6652,-1.709,-1.7302,-1.7191,-1.7135,-1.7024,-1.6368,-1.6093,-1.5748,-1.5968,-1.7034,-1.7578,-1.8221,-1.9254,-1.9527,-1.9798,-1.9798,-1.9798,-1.9798,-1.985,-2.0446,-2.1327,-2.2332,-2.2901,-2.3622,-2.4889,-2.5405,-2.548,-2.5689,-2.5989,-2.6063,-2.6183,-2.6467,-2.6841,-2.6912,-2.7016,-2.7275,-2.747,-2.756,-2.756,-2.7545,-2.756,-2.756,-2.756,-2.756,-2.7634,-2.7634,-2.7784,-2.7799,-2.7904,-2.7889,-2.7655,-2.7655,-2.7575,-2.756,-2.756,-2.755,-2.752,-2.728,-2.7006,-2.6782,-2.6408,-2.6168,-2.5884,-2.536,-2.5046,-2.4432,-2.4083,-2.4502,-2.5028,-2.5373,-2.5726,-2.621,-2.6556,-2.6505,-2.6436,-2.621,-2.5753,-2.5169,-2.4634,-2.4142,-2.3879,-2.3595,-2.3595,-2.3595,-2.3595,-2.3595,-2.3595,-2.3595,-2.3595,-2.3595,-2.3595,-2.3794,-2.4063,-2.4284,-2.4636,-2.5497,-0.8964,-0.9666,-0.994,-0.992,-0.989,-1.0977,-1.1413,-1.1537,-1.2621,-1.3553,-1.4078,-1.4705,-1.511,-1.54,-1.5468,-1.5921,-1.6368,-1.6698,-1.709,-1.7578,-1.7786,-1.7731,-1.7512,-1.7246,-1.6698,-1.6026,-1.5575,-1.5921,-1.6595,-1.7079,-1.7731,-1.8608,-1.9202,-1.9695,-1.9747,-1.9798,-1.9798,-1.9952,-2.0446,-2.1064,-2.1973,-2.289,-2.3679,-2.4445,-2.5001,-2.533,-2.5345,-2.5342,-2.5357,-2.56,-2.5704,-2.6078,-2.6303,-2.6467,-2.6707,-2.6946,-2.723,-2.7275,-2.743,-2.7535,-2.758,-2.756,-2.756,-2.756,-2.756,-2.7575,-2.759,-2.759,-2.7575,-2.756,-2.756,-2.756,-2.756,-2.756,-2.7535,-2.734,-2.6995,-2.6617,-2.6213,-2.5764,-2.542,-2.5196,-2.4941,-2.4597,-2.4267,-2.3874,-2.4032,-2.4536,-2.5012,-2.5373,-2.5835,-2.6016,-2.6087,-2.6016,-2.5997,-2.5558,-2.5034,-2.4554,-2.4074,-2.3794,-2.3595,-2.3595,-2.3595,-2.3595,-2.3595,-2.3595,-2.3595,-2.3595,-2.3595,-2.3681,-2.3709,-2.3948,-2.4379,-2.4786,-2.5496,-0.9151,-0.9296,-0.9639,-0.9726,-0.9751,-1.0048,-1.0443,-1.0955,-1.1282,-1.2068,-1.3126,-1.3497,-1.412,-1.54,-1.542,-1.5864,-1.6631,-1.6991,-1.7763,-1.8382,-1.826,-1.8289,-1.7935,-1.7279,-1.6991,-1.6415,-1.5864,-1.5864,-1.6379,-1.6708,-1.7413,-1.8661,-1.878,-1.9214,-1.9798,-1.9798,-1.985,-2.0003,-2.0446,-2.1077,-2.1724,-2.2488,-2.3096,-2.36,-2.3894,-2.3984,-2.4015,-2.4053,-2.4336,-2.4758,-2.5241,-2.5525,-2.5719,-2.5794,-2.5989,-2.6288,-2.6587,-2.6737,-2.6841,-2.72,-2.732,-2.7475,-2.7505,-2.756,-2.756,-2.756,-2.7575,-2.7575,-2.756,-2.756,-2.756,-2.756,-2.756,-2.756,-2.7565,-2.7096,-2.6707,-2.6452,-2.6153,-2.5555,-2.4986,-2.4807,-2.4627,-2.4298,-2.3909,-2.3709,-2.3948,-2.443,-2.4632,-2.5028,-2.5411,-2.5561,-2.5672,-2.5799,-2.5872,-2.544,-2.4932,-2.4427,-2.4032,-2.3752,-2.3595,-2.3595,-2.3595,-2.3595,-2.3638,-2.3681,-2.3638,-2.3837,-2.3837,-2.3879,-2.3681,-2.3837,-2.4348,-2.491,-2.5621]}]]